     2              OBSERVATION DATA    GPS                 RINEX VERSION / TYPE
ASRINEXO V2.4.4 UX USGS 24-FEB-96 16:21                     PGM / RUN BY / DATE
                                                            COMMENT
Contact: kwendt@isdmnl.wr.usgs.gov (Ph: 415-329-4866)       COMMENT
Contact: kwendt@isdmnl.wr.usgs.gov (Ph: 415-329-4866)       COMMENT
Contact: kwendt@isdmnl.wr.usgs.gov (Ph: 415-329-4866)       COMMENT
Contact: kwendt@isdmnl.wr.usgs.gov (Ph: 415-329-4866)       COMMENT
Contact: kwendt@isdmnl.wr.usgs.gov (Ph: 415-329-4866)       COMMENT
Contact: kwendt@isdmnl.wr.usgs.gov (Ph: 415-329-4866)       COMMENT
Original Marker Name: p166 P_166_1933_USC&GS                COMMENT
Campaign Name: USGS Yucca Profile                           COMMENT
4-Character Station Name: P166                              COMMENT
6-Character Antenna Code: ASHGD3                            COMMENT
Vertical Measurement Point: EGP                             COMMENT
Vertical Offset to Rinex Ref. Point: 0.0594                 COMMENT
Radial Measurement Point: EGP                               COMMENT
Radial Offset to Rinex Ref. Point: 0.1837                   COMMENT
Antenna Height from Field Measurement: 1.2810 m             COMMENT
Additional Antenna Identification Info.:                    COMMENT
The Whopper (700718AB)                                      COMMENT
Original XYZ: -2385480.4200 -4566407.2400 3749797.3200      COMMENT
New XYZ position is based on association with SCEC monument COMMENT
E1F4R2L4+0011. Position of that monument is believed to be  COMMENT
valid to within 1 m horizontally; vertical accuracy         COMMENT
should be no worse than 3-times this value.                 COMMENT
                                                            COMMENT
Revised Rinex header created by UCSD GPS archive for        COMMENT
GSAC on 02-Aug-2000 (2000:215) 16:28:20 GMT                 COMMENT
For assistance contact dagnew@ucsd.edu                      COMMENT
or anderson@python.ucsd.edu                                 COMMENT
                                                            COMMENT
P166 1933                                                   MARKER NAME
CHS US GEOLOGICAL SURVEY                                    OBSERVER / AGENCY
143 ASHTECH Z-XII3 1F00                                     REC # / TYPE / VERS
11401 ASHTECH GEODETIC III                                  ANT # / TYPE
 -2387948.3555 -4559779.3870  3756657.8940                  APPROX POSITION XYZ
        1.2084        0.0000        0.0000                  ANTENNA: DELTA H/E/N
     1     1     0                                          WAVELENGTH FACT L1/2
     5    C1    L1    L2    P1    P2                        # / TYPES OF OBSERV
    30                                                      INTERVAL
  1996     2    21    16    26    0.000000                  TIME OF FIRST OBS
  1996     2    21    23     0    0.000000                  TIME OF LAST OBS
                                                            END OF HEADER
 96  2 21 16 26  0.0000000  0  1  4
  19533294.415         925.24619
 96  2 21 16 26 30.0000000  0  7 19 29  4 25 22 18 14
  19340017.294      -45027.22519
  15850516.858      -14908.73719     -9357.31059                  15850520.6004
  19533773.578        3514.468 9      2137.88459                  19533783.0484
  19100764.891      112168.03819
  16140713.298       25323.84519     15738.82059                  16140717.4494
  17674508.789      -64456.91019    -40604.34059                  17674513.8334
  15264073.591       50183.16219     29192.05259                  15264079.0044
 96  2 21 16 27  0.0000000  0  1  4
  24630789.094        6359.76959      4355.00049  24630789.4284   24630795.5154
 96  2 21 16 27 30.0000000  0  7 19 29  4 25 22 18 14
  24408927.799     -189891.43859   -139744.08459  24408924.5754   24408932.5644
  20941764.545      -42363.33159    -30750.48749  20941762.8194   20941768.0404
  24631382.238        9468.31959      6777.20259  24631380.7474   24631387.9154
  24238696.077      330022.024 9
  21246142.672       72392.40959     52415.63749  21246140.3424   21246146.1574
  22748289.824     -183707.95259   -133527.16749  22748286.7914   22748292.7054
  20376960.152      136443.11159     96407.57149  20376959.4424   20376965.4794
 96  2 21 16 28  0.0000000  0  7 19 29  4 25 22 18 14
  24395104.261     -262538.72459   -196352.28859  24395098.2174   24395107.8094
  20939139.359      -56152.94959    -41495.64359  20939139.0624   20939144.0834
  24632022.818       12841.64449      9405.75149  24632023.9794   24632029.7264
  24259364.129      438641.900 9     68470.89159                  24259369.2014
  21250728.549       96496.10859     71197.74559  21250727.1944   21250732.7574
  22736890.313     -243614.68159   -180207.71259  22736887.3724   22736892.8504
  20385261.716      180058.27059    130393.39459  20385259.4254   20385265.5344
 96  2 21 16 28 30.0000000  0  7 19 29  4 25 22 18 14
  24381249.201     -335322.83249   -253067.14349  24381250.3194   24381257.0214
  20936506.661      -69991.56949    -52278.98249  20936505.7824   20936510.6924
  24632715.438       16475.26049     12237.11449  24632716.6684   24632721.2454
  24279993.588      547044.65359    152940.50849  24279991.8254   24279997.1714
  21255388.509      120978.50849     90274.93649  21255386.0034   21255391.6224
  22725454.587     -303699.91649   -227027.34549  22725453.2884   22725459.3104
  20393616.853      223971.40549    164611.40849  20393615.8184   20393621.5524
 96  2 21 16 29  0.0000000  0  7 19 29  4 25 22 18 14
  24367371.607     -408256.53749   -309898.61349  24367370.2134   24367379.6924
  20933859.620      -83904.20349    -63119.99749  20933858.5124   20933863.3664
  24633454.501       20361.58549     15265.40749  24633455.0794   24633461.8314
  24300574.110      655209.01049    237224.36349  24300575.7684   24300580.6924
  21260111.963      145804.00149    109619.47749  21260110.1064   21260115.6884
  22713984.257     -363975.50949   -273995.31249  22713982.8794   22713988.8604
  20402026.483      268163.56249    199046.84049  20402025.5054   20402031.2554
 96  2 21 16 29 30.0000000  0  7 19 29  4 25 22 18 14
  24353472.271     -481303.69349   -366818.49949  24353470.7854   24353478.5154
  20931202.552      -97864.96549    -73998.50849  20931201.8494   20931206.6374
  24634251.226       24545.46249     18525.59949  24634251.1544   24634259.0634
  24321117.288      763146.85849    321331.73049  24321114.2194   24321120.7964
  21264907.571      171000.25549    129252.91949  21264904.9964   21264910.5114
  22702484.890     -424408.30749   -321085.77949  22702482.8744   22702489.1224
  20410494.478      312663.62349    233722.19749  20410493.4834   20410499.5364
 96  2 21 16 30  0.0000000  0  7 19 29  4 25 22 18 14
  24339555.552     -554430.17749   -423800.20249  24339555.1564   24339561.8214
  20928541.285     -111853.49249    -84898.65549  20928539.8404   20928544.7094
  24635113.240       29035.28849     22024.14849  24635104.8284   24635111.4834
  24341613.433      870862.82449    405266.18549  24341612.3214   24341618.5824
  21269775.146      196583.67749    149188.05049  21269773.1734   21269778.7374
  22690958.574     -484985.60649   -368288.84549  22690955.8414   22690962.2054
  20419025.796      357492.06349    268653.43249  20419024.1064   20419029.9644
 96  2 21 16 30 30.0000000  0  7 19 29  4 25 22 18 14
  24325628.583     -627611.46249   -480824.59049  24325627.7164   24325635.8504
  20925874.558     -125867.30549    -95818.50449  20925873.2174   20925878.0534
  24636016.973       33818.94049     25751.69149  24636014.1844   24636023.1474
  24362069.695      978358.89249    489029.28749  24362068.8464   24362074.7434
  21274717.472      222554.18849    169424.80549  21274715.2744   21274720.9114
  22679403.149     -545705.84049   -415603.27949  22679401.8934   22679407.9174
  20427622.993      402673.35449    303859.61949  20427621.6914   20427627.6144
 96  2 21 16 31  0.0000000  0  7 19 29  4 25 22 18 14
  24311698.893     -700818.12549   -537868.74749  24311697.0814   24311705.9694
  20923205.782     -139889.37249   -106744.78949  20923204.8664   20923209.7694
  24636985.283       38901.33749     29711.98249  24636982.7954   24636988.5574
  24382485.271     1085638.49449    572623.71049  24382482.5494   24382487.7814
  21279736.896      248934.34949    189980.77249  21279735.1534   21279741.0464
  22667826.204     -606545.27449   -463010.60649  22667824.0644   22667830.4124
  20436293.016      448233.50149    339361.01949  20436291.7224   20436297.6224
 96  2 21 16 31 30.0000000  0  7 19 29  4 25 22 18 14
  24297763.896     -774044.09649   -594927.92249  24297762.2924   24297771.0074
  20920533.962     -153928.86149   -117684.64749  20920533.2864   20920538.0714
  24638003.765       44255.97449     33884.37049  24638001.8164   24638006.3504
  24402860.374     1192713.37449    656058.63249  24402859.7614   24402864.6464
  21284838.453      275740.68949    210868.82749  21284836.0354   21284841.8354
  22656224.674     -667510.36649   -510515.84349  22656223.3214   22656228.9154
  20445033.977      494164.81249    375151.63749  20445032.0454   20445037.9494
 96  2 21 16 32  0.0000000  0  7 19 29  4 25 22 18 14
  24283830.469     -847271.91449   -651988.55449  24283827.8194   24283837.2994
  20917862.140     -167972.47349   -128627.72149  20917860.9114   20917865.6814
  24639074.746       49865.66549     38255.47949  24639070.1754   24639073.8854
  24423199.511     1299597.07849    739344.58849  24423198.9054   24423201.9754
  21290023.352      302990.09749    232102.12749  21290021.6474   21290027.2644
  22644601.203     -728593.52549   -558113.08149  22644598.9344   22644605.4154
  20453844.674      540468.14749    411232.14149  20453843.5654   20453849.4554
 96  2 21 16 32 30.0000000  0  7 19 29  4 25 22 18 14
  24269893.605     -920497.98149   -709047.86749  24269893.9034   24269900.8854
  20915191.759     -182005.35249   -139562.42749  20915190.5364   20915195.1814
  24640192.561       55749.37749     42840.14549  24640189.0094   24640195.6694
  24443504.871     1406297.07849    822487.42149  24443503.3974   24443508.6674
  21295294.567      330689.22949    253685.86449  21295292.7754   21295298.2894
  22632956.944     -789779.83149   -605790.69649  22632955.3144   22632962.2774
  20462726.867      587143.81549    447602.77549  20462725.7194   20462731.3524
 96  2 21 16 33  0.0000000  0  7 19 29  4 25 22 18 14
  24255958.520     -993728.97949   -766110.96749  24255956.3454   24255967.2714
  20912524.214     -196021.64749   -150484.21249  20912523.3924   20912528.0734
  24641371.761       61941.55749     47665.22449  24641367.3404   24641373.4534
  24463774.120     1512815.14449    905488.48949  24463772.9764   24463777.5254
  21300652.765      358847.21349    275627.15049  21300651.0344   21300656.8634
  22621296.177     -851059.53749   -653541.09549  22621294.2334   22621300.6904
  20471678.030      634182.20349    484256.05349  20471676.4774   20471682.3104
 96  2 21 16 33 30.0000000  0  7 19 29  4 25 22 18 14
  24242021.756    -1066970.56549   -823182.29449  24242021.2424   24242027.8144
  20909862.854     -210006.24949   -161381.30049  20909862.3094   20909867.0684
  24642612.353       68467.20149     52750.15649  24642608.1144   24642615.5664
  24484009.073     1619149.94759    988346.75349  24484007.7274   24484012.3374
  21306097.539      387458.94549    297922.00949  21306095.7924   21306101.3584
  22609618.984     -912419.87249   -701354.31249  22609617.8444   22609623.8574
  20480697.666      681583.39949    521192.03549  20480696.5194   20480702.8214
 96  2 21 16 34  0.0000000  0  7 19 29  4 25 22 18 14
  24228079.420    -1140239.35449   -880274.82549  24228079.3044   24228086.5314
  20907207.864     -223961.15249   -172255.25349  20907206.6434   20907211.1764
  24643920.736       75347.00449     58111.03449  24643918.3014   24643925.4484
  24504204.854     1725290.41049   1071053.58449  24504205.1124   24504210.3434
  21311624.905      416505.27849    320555.51849  21311623.1354   21311628.7854
  22597927.098     -973858.54749   -749228.57949  22597926.0934   22597932.5174
  20489786.953      729345.12349    558408.95149  20489785.6114   20489791.7154
 96  2 21 16 34 30.0000000  0  7 19 29  4 25 22 18 14
  24214132.304    -1213531.61049   -937385.62249  24214130.3454   24214139.2374
  20904562.081     -237866.41049   -183090.52149  20904560.5324   20904565.2574
  24645300.869       82619.15949     63777.64449  24645302.8444   24645308.9114
  24524371.611     1831267.09049   1153632.74649  24524371.5114   24524377.3894
  21317235.995      445991.30149    343531.64049  21317234.2454   21317239.4974
  22586226.053    -1035354.68049   -797147.61449  22586224.3954   22586229.8734
  20498947.646      777486.32849    595921.56049  20498946.3084   20498952.4444
 96  2 21 16 35  0.0000000  0  7 19 29  4 25 22 18 14
  24200180.094    -1286850.99649   -994517.56849  24200180.3184   24200185.8644
  20901923.533     -251728.51449   -193892.15749  20901922.7084   20901927.5394
  24646757.996       90278.33349     69745.81249  24646760.4864   24646766.0864
  24544508.539     1937086.93449   1236089.71649  24544508.2804   24544514.0314
  21322930.253      475914.40349    366848.35149  21322928.4654   21322933.7704
  22574512.602    -1096911.36149   -845113.84149  22574510.5904   22574516.1724
  20508180.279      826006.99349    633729.85849  20508179.6984   20508185.6234
 96  2 21 16 35 30.0000000  0  7 19 29  4 25 22 18 14
  24186222.573    -1360197.31149  -1051670.49249  24186221.0094   24186230.6394
  20899294.512     -265544.04449   -204657.50549  20899293.7484   20899298.8034
  24648285.799       98305.91449     76001.03449  24648287.5404   24648294.1614
  24564619.686     2042765.37349   1318436.49549  24564619.1214   24564624.6494
  21328706.537      506270.85449    390502.73049  21328705.0174   21328710.6934
  22562785.873    -1158532.83149   -893130.53649  22562783.9414   22562789.9884
  20517487.714      874915.08049    671840.03349  20517486.7814   20517492.7424
 96  2 21 16 36  0.0000000  0  7 19 29  4 25 22 18 14
  24172259.284    -1433587.10649  -1108857.34549  24172256.3314   24172264.3114
  20896672.517     -279322.69549   -215394.11149  20896671.7974   20896676.5724
  24649880.533      106679.49349     82525.87249  24649881.0294   24649884.9694
  24584703.936     2148303.97349   1400674.30949  24584702.1924   24584708.2874
  21334565.443      537059.80649    414494.12349  21334564.0964   21334569.4714
  22551044.837    -1220233.38749   -941208.85849  22551043.2304   22551048.6114
  20526869.073      924214.83649    710255.40749  20526868.2024   20526874.1344
 96  2 21 16 36 30.0000000  0  7 19 29  4 25 22 18 14
  24158289.481    -1506989.59549  -1166054.08849  24158287.5604   24158295.4774
  20894062.198     -293039.95549   -226082.87849  20894061.4324   20894066.3844
  24651533.804      115397.19349     89318.87949  24651538.9334   24651546.8024
  24604761.749     2253707.66749   1482807.00949  24604760.2104   24604765.6094
  21340511.073      568304.11949    438840.34349  21340509.5574   21340515.2094
  22539291.924    -1281997.10449   -989336.40049  22539289.9494   22539295.8294
  20536330.777      973936.76849    748999.75149  20536329.6694   20536335.6424
 96  2 21 16 37  0.0000000  0  7 19 29  4 25 22 18 14
  24144323.239    -1580380.03249  -1223241.41649  24144320.9284   24144330.9554
  20891464.848     -306685.23149   -236715.55349  20891464.7714   20891469.7844
  24653261.235      124454.51149     96376.51449  24653261.0794   24653269.7324
  24624794.191     2358984.64049   1564840.93249  24624793.7534   24624800.5844
  21346547.261      600022.68249    463556.11149  21346545.5944   21346551.2464
  22527530.237    -1343802.21949  -1037496.20349  22527528.9284   22527534.1044
  20545877.384     1024104.68449    788091.61749  20545876.5304   20545882.5684
 96  2 21 16 37 30.0000000  0  7 19 29  4 25 22 18 14
  24130361.069    -1653750.53249  -1280413.22449  24130361.5434   24130368.3674
  20888883.943     -320251.76249   -247286.86649  20888883.1584   20888888.1224
  24655051.152      133846.10549    103694.61749  24655051.5524   24655058.2594
  24644801.780     2464130.04249   1646772.35849  24644801.6074   24644807.1104
  21352674.067      632222.60349    488646.96549  21352672.8794   21352678.6084
  22515761.721    -1405644.58749  -1085685.03049  22515760.4834   22515766.1144
  20555511.340     1074730.67349    827540.41949  20555510.3774   20555516.5424
 96  2 21 16 38  0.0000000  0  7 19 29  4 25 22 18 14
  24116405.962    -1727084.95449  -1337556.92749  24116405.4204   24116412.6954
  20886317.626     -333736.76449   -257794.65749  20886317.0124   20886321.6744
  24656904.290      143568.54249    111270.53549  24656901.5054   24656908.6744
  24664782.570     2569127.92549   1728588.85349  24664782.4934   24664789.1824
  21358892.314      664899.20549    514109.25249  21358891.2394   21358896.7004
  22503984.827    -1467530.66049  -1133907.90849  22503983.5504   22503989.4214
  20565230.202     1125805.74949    867339.15949  20565229.7604   20565235.8354
 96  2 21 16 38 30.0000000  0  7 19 29  4 25 22 18 14
  24102460.137    -1800369.05049  -1394661.37649  24102460.8734   24102468.1634
  20883767.101     -347140.80049   -268239.35649  20883766.5784   20883771.0324
  24658821.363      153619.98949    119102.82349  24658813.7364   24658821.9424
  24684733.357     2673972.59749   1810285.92749  24684734.4674   24684739.9814
  21365200.648      698047.14149    539938.81449  21365198.8504   21365204.6684
  22492199.630    -1529466.02849  -1182169.20449  22492197.5564   22492204.1704
  20575029.818     1177301.60349    907465.78049  20575029.1274   20575034.9794
 96  2 21 16 39  0.0000000  0  7 19 29  4 25 22 18 14
  24088523.856    -1873610.23149  -1451732.40749  24088523.1334   24088529.6904
  20881230.401     -360470.46849   -278626.10849  20881229.6194   20881234.6054
  24660789.088      164017.47749    127204.71749  24660793.1264   24660798.5204
  24704657.899     2778664.03349   1891863.57649  24704656.3014   24704661.5504
  21371599.114      731671.00749    566139.22649  21371597.2954   21371602.8014
  22480403.495    -1591448.16049  -1230466.94149  22480402.7244   22480409.5964
  20584905.943     1229200.70749    947906.62249  20584905.1934   20584911.1834
 96  2 21 16 39 30.0000000  0  7 19 29  4 25 22 18 14
  24074596.084    -1946801.28849  -1508764.35949  24074594.2774   24074602.2244
  20878708.502     -373720.89649   -288951.11749  20878708.3894   20878713.0084
  24662845.240      174791.12249    135599.77149  24662840.6244   24662850.2414
  24724548.747     2883197.32349   1973318.00149  24724548.6364   24724554.2634
  21378088.114      765774.00149    592712.98849  21378086.9224   21378092.4464
  22468600.098    -1653476.73849  -1278800.86749  22468598.3424   22468605.0064
  20594857.873     1281497.60549    988657.43149  20594856.9224   20594863.2294
 96  2 21 16 40  0.0000000  0  7 19 29  4 25 22 18 14
  24060679.321    -2019938.35349  -1565754.26949  24060676.9294   24060684.8564
  20876202.916     -386890.35449   -299213.03049  20876202.5804   20876207.2594
  24664964.304      185960.53549    144303.15849  24664967.9324   24664974.2224
  24744412.194     2987575.46749   2054651.56549  24744409.8684   24744416.1634
  21384669.760      800357.20549    619660.94049  21384667.8204   21384673.0794
  22456790.823    -1715533.96549  -1327157.12449  22456789.9544   22456796.1354
  20604883.948     1334184.66149   1029712.26049  20604883.3154   20604889.3994
 96  2 21 16 40 30.0000000  0  7 19 29  4 25 22 18 14
  24046764.833    -2093048.66349  -1622723.28349  24046765.4304   24046771.4954
  20873709.134     -399989.32749   -309420.02049  20873709.5724   20873714.2674
  24667177.368      197536.36149    153323.27749  24667168.7374   24667176.3714
  24764244.048     3091803.37949   2135868.08149  24764244.3514   24764250.9884
  21391343.736      835428.79349    646989.45349  21391341.8074   21391347.3244
  22444978.936    -1777606.83149  -1375525.57849  22444978.1494   22444984.1484
  20614986.482     1387273.08149   1071079.84049  20614985.6974   20614991.7234
 96  2 21 16 41  0.0000000  0  6 19 29  4 22 18 14
  24032854.965    -2166158.25949  -1679691.81649  24032852.8464   24032860.6504
  20871229.151     -413028.42549   -319580.35449  20871228.7124   20871233.1744
  24669433.174      209508.93649    162652.53549  24669451.0754   24669456.4394
  21398104.977      870966.06649    674680.83349  21398104.1574   21398109.7064
  22433162.125    -1839707.48549  -1423915.68149  22433160.4984   22433166.4974
  20625167.258     1440774.82749   1112769.49449  20625166.5544   20625172.6434
 96  2 21 16 41 30.0000000  0  6 19 29  4 22 18 14
  24018943.645    -2239252.68849  -1736648.50849  24018943.7634   24018951.7794
  20868763.416     -425985.99949   -329677.16549  20868762.8394   20868767.5534
  24671805.223      221869.86449    172284.41749  24671802.8844   24671808.5644
  21404958.621      906975.78249    702740.34849  21404956.7234   21404962.2924
  22421340.069    -1901829.27149  -1472322.23349  22421339.4034   22421344.7394
  20635431.361     1494713.08249   1154799.28449  20635430.6084   20635436.7474
 96  2 21 16 42  0.0000000  0  6 19 29  4 22 18 14
  24005034.911    -2312340.36849  -1793599.89649  24005036.9624   24005042.8804
  20866314.313     -438852.55349   -339703.05149  20866314.2204   20866319.0144
  24674220.314      234588.25549    182194.79749  24674223.4004   24674230.3484
  21411898.043      943448.98549    731161.02249  21411897.2654   21411902.8814
  22409514.306    -1963976.97249  -1520748.98549  22409513.0364   22409518.9154
  20645778.449     1549088.65649   1197169.84649  20645777.9614   20645784.1214
 96  2 21 16 42 30.0000000  0  6 19 29  4 22 18 14
  23991129.101    -2385417.39349  -1850543.02449  23991128.8634   23991137.8054
  20863885.631     -451616.30749   -349648.83149  20863885.5004   20863890.2404
  24676713.998      247640.25049    192365.16149  24676705.5924   24676711.8134
  21418926.305      980381.19949    759939.36649  21418925.3324   21418930.9314
  22397679.794    -2026165.80949  -1569207.78949  22397679.2114   22397684.5474
  20656208.759     1603898.24149   1239878.59249  20656207.9704   20656213.8184
 96  2 21 16 43  0.0000000  0  6 19 29  4 22 18 14
  23977234.772    -2458432.87949  -1907438.18749  23977234.9394   23977242.3214
  20861481.539     -464251.16449   -359494.16449  20861481.1374   20861485.9374
  24679254.487      261036.21749    202803.59049  24679254.0994   24679263.7474
  21426044.638     1017785.78549    789085.79349  21426043.3404   21426049.1124
  22385840.979    -2088377.64049  -1617684.50949  22385840.6674   22385846.2744
  20666720.993     1659140.70149   1282924.64749  20666720.1524   20666726.2474
 96  2 21 16 43 30.0000000  0  6 19 29  4 22 18 14
  23963353.127    -2531382.03649  -1964281.66949  23963352.2094   23963359.1624
  20859100.662     -476762.80949   -369243.49649  20859100.1904   20859105.1084
  24681867.487      274776.53049    213510.30849  24681869.3884   24681872.8214
  21433252.893     1055667.07949    818603.67749  21433251.9214   21433257.3974
  22374000.782    -2150604.81649  -1666173.19249  22373999.3024   22374004.9354
  20677311.298     1714796.26049   1326292.59449  20677311.2134   20677316.7404
 96  2 21 16 44  0.0000000  0  6 19 29  4 22 18 14
  23949486.163    -2604254.19149  -2021065.18149  23949485.9754   23949492.1584
  20856744.625     -489143.25149   -378890.58449  20856744.3384   20856749.2974
  24684562.879      288886.03849    224504.70949  24684554.3464   24684561.1114
  21440553.542     1094034.93449    848500.70649  21440552.9364   21440558.6754
  22362157.464    -2212837.56249  -1714666.20549  22362156.4874   22362162.5774
  20687981.424     1770865.03649   1369982.53349  20687980.6864   20687986.5384
 96  2 21 16 44 30.0000000  0  6 19 29  4 22 18 14
  23935638.392    -2677031.69449  -2077774.90349  23935635.9134   23935643.1864
  20854413.777     -501392.90449   -388435.76549  20854413.3154   20854418.2854
  24687310.191      303400.17149    235814.37749  24687315.3584   24687321.3714
  21447953.367     1132914.65449    878796.59049  21447951.4994   21447957.1104
  22350315.419    -2275066.48249  -1763156.24749  22350314.7294   22350320.9004
  20698731.541     1827355.66649   1414001.18749  20698730.6094   20698736.5954
 96  2 21 16 45  0.0000000  0  6 19 29  4 22 18 14
  23921803.435    -2749724.06649  -2134418.29149  23921805.1524   23921812.9984
  20852104.554     -513527.31849   -397891.14849  20852104.2544   20852109.1484
  24690162.933      318328.75749    247447.02449  24690157.0294   24690164.5094
  21455447.253     1172299.66549    909486.20749  21455446.1474   21455451.7854
  22338473.666    -2337300.06049  -1811649.91749  22338471.4234   22338477.9684
  20709561.321     1884270.22849   1458350.18049  20709560.9394   20709567.0324
 96  2 21 16 45 30.0000000  0  6 19 29  4 22 18 14
  23907983.990    -2822343.07849  -2191004.43649  23907984.6054   23907992.5644
  20849818.482     -525542.09849   -407253.31349  20849817.9494   20849822.8224
  24693080.015      333673.76049    259404.14149  24693079.1694   24693085.0134
  21463037.564     1212187.83949    940567.90449  21463036.6634   21463042.3604
  22326629.559    -2399533.89749  -1860143.78349  22326629.0084   22326635.5734
  20720475.066     1941621.43549   1503039.41649  20720474.3684   20720480.5064
 96  2 21 16 46  0.0000000  0  6 19 29  4 22 18 14
  23894180.873    -2894884.90449  -2247530.53349  23894180.5724   23894188.5494
  20847555.066     -537435.92449   -416521.22849  20847554.5654   20847559.4894
  24696073.473      349430.13449    271681.83549  24696076.4054   24696082.5334
  21470725.659     1252586.92949    972047.71649  21470724.4614   21470730.1314
  22314787.527    -2461767.84549  -1908637.75249  22314786.3254   22314792.5584
  20731470.483     1999403.73149   1548064.56449  20731470.0834   20731476.4214
 96  2 21 16 46 30.0000000  0  6 19 29  4 22 18 14
  23880388.809    -2967358.85749  -2304003.71549  23880388.5104   23880396.1894
  20845311.290     -549224.97749   -425707.50649  20845311.1984   20845316.2104
  24699137.704      365575.42149    284262.54949  24699145.1064   24699155.2664
  21478506.727     1293479.38949   1003911.97549  21478505.7744   21478511.8104
  22302944.051    -2524000.90749  -1957131.03049  22302943.4724   22302949.6984
  20742548.459     2057618.16649   1593426.44449  20742548.0154   20742554.3254
 96  2 21 16 47  0.0000000  0  6 19 29  4 22 18 14
  23866611.761    -3039762.15449  -2360421.82649  23866610.9804   23866617.5494
  20843091.468     -560893.01649   -434799.48949  20843090.7704   20843095.5854
  24702286.766      382101.51949    297140.01449  24702293.1634   24702300.6344
  21486380.943     1334858.57349   1036155.49849  21486380.1484   21486385.7674
  22291108.638    -2586202.99149  -2005600.16949  22291107.3924   22291113.0584
  20753711.687     2116280.86149   1639137.61549  20753711.0654   20753717.6014
 96  2 21 16 47 30.0000000  0  6 19 29  4 22 18 14
  23852845.688    -3112100.34749  -2416789.21749  23852845.9524   23852855.2014
  20840892.561     -572443.48749   -443799.85949  20840892.9174   20840897.7494
  24705506.479      399006.57349    310312.76249  24705510.2074   24705515.9544
  21494348.917     1376729.55249   1068782.24149  21494347.8224   21494353.5354
  22279281.176    -2648355.37349  -2054030.56849  22279279.9034   22279285.6914
  20764958.328     2175386.27349   1685193.76149  20764958.5644   20764964.7924
 96  2 21 16 48  0.0000000  0  6 19 29  4 22 18 14
  23839093.134    -3184369.96549  -2473103.15849  23839093.2424   23839101.1654
  20838719.531     -583868.10349   -452702.16049  20838719.0094   20838723.9214
  24708798.167      416294.33949    323783.66549  24708800.7084   24708805.2864
  21502410.576     1419094.06249   1101793.55049  21502409.6114   21502415.1984
  22267463.802    -2710459.29649  -2102423.22949  22267462.8004   22267467.7874
  20776291.025     2234936.92249   1731596.84549  20776290.5954   20776296.9194
 96  2 21 16 48 30.0000000  0  6 19 29  4 22 18 14
  23825349.362    -3256597.76749  -2529384.54749  23825349.2714   23825357.4724
  20836564.580     -595188.33949   -461523.12649  20836564.6594   20836569.4614
  24712151.137      433945.30449    337537.66049  24712158.7834   24712163.4334
  21510558.863     1461913.79849   1135159.57949  21510557.7234   21510563.6404
  22255647.769    -2772548.85649  -2150804.69049  22255646.8904   22255652.5674
  20787704.709     2294914.37949   1778332.50849  20787704.0074   20787710.0774
 96  2 21 16 49  0.0000000  0  6 19 29  4 22 18 14
  23811617.994    -3328753.62949  -2585609.86649  23811617.0034   23811625.6844
  20834438.405     -606362.96649   -470230.63349  20834438.2024   20834443.0794
  24715595.678      452007.08259    351611.73949  24715596.4444   24715602.5534
  21518802.987     1505235.40049   1168916.67049  21518801.7174   21518807.4834
  22243841.053    -2834593.90949  -2199151.46449  22243840.3984   22243845.6034
  20799200.913     2355325.86549   1825406.37049  20799200.3684   20799206.2534
 96  2 21 16 49 30.0000000  0  6 19 29  4 22 18 14
  23797902.130    -3400835.06249  -2641777.18449  23797901.6004   23797908.1564
  20832339.632     -617390.70549   -478823.67449  20832339.7684   20832344.5734
  24719107.431      470473.83749    366001.39049  24719111.3494   24719114.1164
  21527142.440     1549060.90049   1203066.41049  21527141.4664   21527147.1394
  22232036.333    -2896621.14249  -2247484.36249  22232036.8694   22232041.9904
  20810775.209     2416149.32149   1872801.25449  20810774.5214   20810780.5504
 96  2 21 16 50  0.0000000  0  6 19 29  4 22 18 14
  23784199.651    -3472840.97049  -2697885.68749  23784198.7894   23784207.8464
  20830272.231     -628256.10249   -487290.21749  20830272.1864   20830276.9424
  24722697.819      489333.58149    380697.32249  24722697.2704   24722705.4494
  21535575.569     1593380.62749   1237601.25849  21535575.3654   21535581.0574
  22220234.667    -2958643.33449  -2295813.33049  22220234.1464   22220239.7984
  20822426.999     2477380.73149   1920514.01949  20822426.6104   20822432.2904
 96  2 21 16 50 30.0000000  0  6 19 29  4 22 18 14
  23770511.195    -3544770.09949  -2753934.33949  23770512.5374   23770518.8484
  20828234.644     -638964.64249   -495634.52449  20828234.3974   20828239.1804
  24726358.576      508579.80049    395694.37949  24726360.6564   24726368.1164
  21544105.055     1638198.75649   1272524.47249  21544103.8434   21544109.4984
  22208435.001    -3020653.44349  -2344132.88049  22208434.0104   22208439.5464
  20834156.892     2539024.23449   1968547.90349  20834156.8304   20834162.6634
 96  2 21 16 51  0.0000000  0  6 19 29  4 22 18 14
  23756837.152    -3616634.62249  -2809932.66149  23756836.4084   23756843.9004
  20826226.071     -649521.68449   -503860.78149  20826225.5944   20826230.1584
  24730088.827      528184.09249    410970.44349  24730089.3934   24730097.8534
  21552727.439     1683510.18449   1307832.06849  21552726.4604   21552732.0504
  22196637.732    -3082644.16349  -2392437.32349  22196637.5144   22196643.4664
  20845966.380     2601081.48549   2016904.18449  20845966.0754   20845971.9264
 96  2 21 16 51 30.0000000  0  6 19 29  4 22 18 14
  23743176.783    -3688419.50949  -2865868.93349  23743176.2104   23743183.9394
  20824246.423     -659920.70149   -511963.90049  20824246.4814   20824251.1714
  24733890.325      548144.69349    426524.14949  24733890.2404   24733897.5964
  21561441.151     1729300.99249   1343513.21149  21561440.2604   21561445.8624
  22184847.092    -3144606.86749  -2440719.93649  22184846.0394   22184852.1704
  20857858.117     2663575.28649   2065600.64349  20857857.7644   20857864.2374
 96  2 21 16 52  0.0000000  0  6 19 29  4 22 18 14
  23729535.335    -3760103.02949  -2921726.17449  23729535.9384   23729542.4554
  20822299.816     -670150.89749   -519935.48049  20822299.6874   20822304.6904
  24737761.765      568491.32849    442378.63449  24737762.3474   24737768.0014
  21570249.832     1775588.55749   1379581.43049  21570248.6304   21570254.0394
  22173068.197    -3206504.37549  -2488951.74749  22173067.1624   22173073.4424
  20869839.353     2726537.32849   2114661.95849  20869839.4274   20869845.5284
 96  2 21 16 52 30.0000000  0  6 19 29  4 22 18 14
  23715915.851    -3831672.83549  -2977494.81749  23715915.0444   23715923.0464
  20820383.030     -680222.00149   -527783.09149  20820383.2354   20820387.9804
  24741711.450      589240.21549    458546.57049  24741710.2104   24741715.8424
  21579152.987     1822376.74849   1416039.74749  21579151.8054   21579157.5024
  22161303.371    -3268329.79749  -2537127.37949  22161302.7004   22161308.1824
  20881909.748     2789966.83949   2164087.53549  20881909.7454   20881916.0584
 96  2 21 16 53  0.0000000  0  6 19 29  4 22 18 14
  23702317.179    -3903133.94849  -3033178.78649  23702317.4974   23702324.4154
  20818494.897     -690147.56549   -535517.29549  20818494.7004   20818499.2604
  24745734.917      610390.89249    475027.59649  24745734.1934   24745740.7754
  21588149.598     1869656.42449   1452881.04249  21588148.8314   21588154.5194
  22149551.748    -3330092.92049  -2585254.46649  22149550.0594   22149555.8604
  20894065.453     2853844.73649   2213862.50049  20894065.2584   20894071.7004
 96  2 21 16 53 30.0000000  0  6 19 29  4 22 18 14
  23688742.592    -3974468.63449  -3088764.23849  23688742.7094   23688749.7424
  20816634.186     -699922.23349   -543133.92049  20816634.5304   20816639.3144
  24749840.691      631962.15149    491836.30249  24749839.0514   24749844.1744
  21597241.374     1917432.32649   1490109.00649  21597240.4184   21597245.7444
  22137809.015    -3391797.08549  -2633335.61549  22137807.8744   22137813.6224
  20906305.245     2918164.98749   2263982.16349  20906304.6414   20906311.2504
 96  2 21 16 54  0.0000000  0  6 19 29  4 22 18 14
  23675192.179    -4045680.65449  -3144254.10149  23675190.6164   23675199.1384
  20814804.099     -709537.74849   -550626.53049  20814804.7044   20814809.1924
  24754023.755      653954.65849    508973.37049  24754024.3094   24754031.0674
  21606430.749     1965720.87349   1527736.43049  21606429.5834   21606434.9664
  22126079.980    -3453437.71249  -2681367.25149  22126078.4074   22126084.0654
  20918631.788     2982942.10649   2314457.82249  20918631.4134   20918637.8554
 96  2 21 16 54 30.0000000  0  6 19 29  4 22 18 14
  23661664.466    -4116769.69549  -3199648.13949  23661662.8444   23661671.8064
  20813008.483     -718977.52749   -557982.19649  20813008.4764   20813013.4634
  24758286.584      676360.63949    526432.48649  24758287.8954   24758295.6414
  21615717.845     2014531.12249   1565770.38649  21615717.9804   21615723.0984
  22114363.086    -3515005.24349  -2729341.91949  22114362.5864   22114368.0774
  20931047.972     3048186.91149   2365297.91149  20931047.4644   20931053.6284
 96  2 21 16 55  0.0000000  0  6 19 29  4 22 18 14
  23648154.966    -4187755.93749  -3254962.06149  23648155.4444   23648161.3924
  20811246.292     -728239.72249   -565199.49049  20811246.0484   20811250.7114
  24762627.883      699154.06149    544193.64449  24762626.7734   24762632.9354
  21625102.709     2063844.07649   1604196.05749  21625101.9424   21625107.3924
  22102659.069    -3576510.39749  -2777267.99149  22102658.1064   22102663.5824
  20943550.360     3113889.20249   2416494.47849  20943550.2244   20943556.2764
 96  2 21 16 55 30.0000000  0  6 19 29  4 22 18 14
  23634664.304    -4258653.06849  -3310206.56949  23634664.2404   23634672.2344
  20809519.181     -737315.24249   -572271.32249  20809519.1034   20809523.5234
  24767037.428      722332.38049    562254.61449  24767037.8224   24767043.9814
  21634580.198     2113648.09649   1643004.38649  21634579.1754   21634584.4964
  22090966.989    -3637951.11449  -2825143.85449  22090966.1704   22090971.7544
  20956139.198     3180047.02749   2468046.01049  20956139.4754   20956145.7614
 96  2 21 16 56  0.0000000  0  6 19 29  4 22 18 14
  23621187.880    -4329469.66249  -3365388.32249  23621187.5104   23621195.1684
  20807827.977     -746203.01749   -579196.85949  20807827.8814   20807832.3074
  24771520.774      745892.26449    580612.94449  24771521.0804   24771526.7294
  21644152.349     2163948.72849   1682199.68049  21644150.8614   21644156.6094
  22079287.934    -3699323.39949  -2872966.39749  22079287.4704   22079293.1944
  20968815.819     3246660.06649   2519952.25549  20968815.4354   20968821.7064
 96  2 21 16 56 30.0000000  0  6 19 29  4 22 18 14
  23607729.131    -4400194.26249  -3420498.39149  23607730.1714   23607736.3824
  20806170.525     -754909.14249   -585980.85349  20806170.8254   20806175.6834
  24776076.655      769832.24749    599267.48349  24776077.1974   24776081.9284
  21653816.454     2214737.01849   1721774.96849  21653815.6144   21653821.0944
  22067621.970    -3760629.54149  -2920737.39649  22067620.9984   22067626.5054
  20981572.108     3313696.56149   2572188.46949  20981572.0444   20981578.0954
 96  2 21 16 57  0.0000000  0  6 19 29  4 22 18 14
  23594293.928    -4470798.80549  -3475514.91449  23594293.2964   23594301.9704
  20804552.202     -763416.52249   -592609.98149  20804551.9594   20804556.8724
  24780707.488      794175.19249    618235.96649  24780707.7894   24780715.3884
  21663576.091     2266024.06449   1761738.89749  21663575.0504   21663580.8214
  22055969.775    -3821859.91349  -2968449.36249  22055969.0944   22055975.0994
  20994409.611     3381156.86049   2624754.92249  20994409.3184   20994415.4714
 96  2 21 16 57 30.0000000  0  6 19 29  4 22 18 14
  23580882.313    -4541278.43549  -3530434.06949  23580881.5944   23580889.9304
  20802969.724     -771732.34349   -599089.84149  20802969.3714   20802974.2554
  24785415.943      818928.56249    637524.28849  24785418.1024   24785424.8924
  21673432.553     2317818.83349   1802098.45449  21673431.5434   21673437.0254
  22044331.286    -3883019.53049  -3016106.19149  22044330.6834   22044336.8474
  21007326.770     3449040.35049   2677651.12749  21007327.2884   21007333.3314
 96  2 21 16 58  0.0000000  0  6 19 29  4 22 18 14
  23567498.660    -4611599.70849  -3585229.84649  23567500.9924   23567508.4674
  20801425.060     -779846.55749   -605412.60749  20801425.4954   20801430.1724
  24790206.409      844097.05949    657136.08049  24790207.4004   24790214.7004
  21683386.828     2370129.69649   1842860.16449  21683386.1594   21683391.3594
  22032707.717    -3944100.76149  -3063701.94549  22032707.6164   22032713.3914
  21020327.704     3517354.20749   2730882.68449  21020327.1164   21020332.9004
 96  2 21 16 58 30.0000000  0  6 19 29  4 22 18 14
  23554148.284    -4681768.03149  -3639906.46749  23554148.9214   23554154.3034
  20799918.647     -787762.09849   -611580.56649  20799919.1154   20799924.0834
  24795074.592      869672.51749    677064.94949  24795075.2894   24795080.5324
  21693435.487     2422935.09849   1884007.22949  21693434.6634   21693439.9914
  22021099.511    -4005107.96949  -3111240.02449  22021098.3284   22021104.2154
  21033407.631     3586093.74049   2784445.93749  21033407.9644   21033413.9164
 96  2 21 16 59  0.0000000  0  6 19 29  4 22 18 14
  23540824.853    -4751781.37149  -3694462.25449  23540823.7304   23540831.4644
  20798454.825     -795454.98849   -617575.02749  20798455.4134   20798460.2944
  24800022.677      895682.79449    697332.66849  24800023.9014   24800031.6714
  21703583.623     2476263.38649   1925561.73849  21703582.5234   21703587.9794
  22009507.074    -4066031.09249  -3158712.57349  22009505.5174   22009510.7324
  21046578.059     3655302.63249   2838374.92649  21046577.8304   21046583.6414
 96  2 21 16 59 30.0000000  0  6 19 29  4 22 18 14
  23527532.273    -4821633.75449  -3748892.65149  23527532.1834   23527540.1044
  20797033.992     -802923.73849   -623394.83849  20797034.1514   20797038.9834
  24805060.321      922134.89649    717944.65049  24805060.0164   24805065.3854
  21713832.270     2530126.23449   1967532.78549  21713832.2664   21713837.8504
  21997931.596    -4126849.12049  -3206103.22949  21997931.8844   21997937.7114
  21059839.102     3724993.73949   2892679.66649  21059839.4024   21059845.6194
 96  2 21 17  0  0.0000000  0  6 19 29  4 22 18 14
  23514268.989    -4891336.67449  -3803206.56749  23514269.2894   23514275.8254
  20795651.931     -810186.66049   -629054.26249  20795651.8834   20795656.7264
  24810169.990      949003.21249    738880.96849  24810171.3444   24810178.7474
  21724179.927     2584499.05749   2009901.21249  21724178.9764   21724184.6624
  21986377.954    -4187567.61249  -3253416.32949  21986377.8674   21986383.2724
  21073189.687     3795149.00149   2947346.08849  21073189.8344   21073195.9634
 96  2 21 17  0 30.0000000  0  6 19 29  4 22 18 14
  23501029.870    -4960906.53049  -3857416.80449  23501030.0864   23501037.1324
  20794309.929     -817239.02549   -634549.61149  20794309.7594   20794314.7694
  24815363.891      976284.34849    760138.98349  24815361.9094   24815370.6024
  21734625.694     2639392.75549   2052675.51349  21734625.2864   21734630.4284
  21974844.666    -4248180.27249  -3300646.95449  21974843.4654   21974849.1694
  21086630.109     3865779.03349   3002382.46049  21086630.1584   21086636.4284
 96  2 21 17  1  0.0000000  0  6 19 29  4 22 18 14
  23487812.682    -5030361.39049  -3911537.41749  23487813.5494   23487820.0554
  20793002.373     -824108.89549   -639902.75949  20793002.7544   20793007.4644
  24820625.720     1003950.76549    781697.23749  24820626.5244   24820634.9024
  21745167.891     2694791.35649   2095843.24849  21745167.3244   21745172.6234
  21963328.358    -4308695.72149  -3347801.83749  21963327.9794   21963332.9444
  21100156.646     3936859.80449   3057770.05649  21100156.5834   21100162.6804
 96  2 21 17  1 30.0000000  0  6 19 29  4 22 18 14
  23474619.387    -5099692.59849  -3965561.69149  23474618.5714   23474626.3464
  20791728.544     -830801.02149   -645117.40949  20791729.3374   20791733.9414
  24825961.565     1031992.57849    803547.96949  24825963.2714   24825970.2464
  21755802.984     2750681.07349   2139393.66349  21755802.6464   21755808.0304
  21951834.675    -4369091.81149  -3394863.71749  21951834.9674   21951840.2404
  21113767.928     4008386.87349   3113505.41449  21113767.5294   21113773.7974
 96  2 21 17  2  0.0000000  0  6 19 29  4 22 18 14
  23461447.221    -5168908.35149  -4019495.99349  23461448.8224   23461454.9814
  20790492.139     -837300.32449   -650181.80649  20790492.5714   20790496.7484
  24831371.438     1060409.21849    825690.75849  24831372.2114   24831378.0744
  21766530.993     2807053.75449   2183320.41649  21766530.1904   21766535.5864
  21940361.310    -4429386.55349  -3441846.62749  21940361.2584   21940366.7524
  21127463.168     4080359.49149   3169587.95449  21127463.3894   21127469.6374
 96  2 21 17  2 30.0000000  0  6 19 29  4 22 18 14
  23448298.804    -5238010.92649  -4073342.13849  23448299.1784   23448306.0044
  20789295.822     -843588.04249   -655081.33149  20789296.0454   20789300.5384
  24836851.863     1089215.04349    848136.77849  24836853.4774   24836858.7604
  21777351.672     2863920.39749   2227632.07849  21777351.2374   21777356.7934
  21928908.705    -4489570.67949  -3488743.34549  21928908.3344   21928913.8294
  21141245.727     4152783.25349   3226022.03849  21141245.4104   21141251.6204
 96  2 21 17  3  0.0000000  0  6 19 29  4 22 18 14
  23435171.651    -5306992.64649  -4127094.08249  23435170.5184   23435179.2454
  20788138.013     -849670.23649   -659820.70949  20788138.9354   20788143.4914
  24842411.498     1118421.52749    870895.04249  24842411.3054   24842416.0794
  21788265.823     2921269.01649   2272319.29549  21788264.4904   21788269.9454
  21917476.273    -4549648.80949  -3535557.45949  21917475.8704   21917481.7014
  21155109.555     4225641.42849   3282794.62449  21155109.6684   21155116.2044
 96  2 21 17  3 30.0000000  0  6 19 29  4 22 18 14
  23422068.309    -5375849.57249  -4180748.79349  23422068.6744   23422076.2614
  20787023.433     -855528.88349   -664385.89749  20787023.7174   20787028.5814
  24848044.168     1148033.03149    893968.89049  24848045.6914   24848052.4494
  21799268.829     2979093.50849   2317377.32249  21799268.1024   21799273.7604
  21906062.223    -4609631.13149  -3582296.92849  21906061.6274   21906067.3674
  21169054.948     4298924.55049   3339898.33549  21169054.7524   21169061.3664
 96  2 21 17  4  0.0000000  0  6 19 29  4 22 18 14
  23408992.799    -5444559.56349  -4234288.99749  23408994.2644   23408999.8534
  20785957.115     -861131.66049   -668751.69949  20785957.7244   20785962.7644
  24853759.288     1178059.32149    917365.93649  24853759.6154   24853767.8154
  21810366.238     3037412.15149   2362820.40149  21810365.6184   21810371.4434
  21894669.278    -4669499.55049  -3628947.63549  21894668.7704   21894674.6764
  21183081.789     4372634.15149   3397334.37149  21183081.4404   21183088.0444
 96  2 21 17  4 30.0000000  0  6 19 29  4 22 18 14
  23395948.942    -5513107.45649  -4287702.92849  23395948.6804   23395956.4024
  20784939.096     -866483.01849   -672921.58649  20784939.1974   20784944.1404
  24859549.059     1208498.04849    941084.43649  24859550.4554   24859558.6464
  21821557.470     3096221.77949   2408646.06849  21821556.9394   21821562.4014
  21883301.929    -4729232.80649  -3675493.02349  21883302.1724   21883307.7084
  21197189.510     4446772.15049   3455104.22349  21197189.5724   21197196.0234
 96  2 21 17  5  0.0000000  0  6 19 29  4 22 18 14
  23382935.874    -5581488.13949  -4340986.52649  23382936.4154   23382943.1554
  20783965.579     -871599.18049   -676908.20149  20783965.8114   20783970.7304
  24865420.083     1239331.60849    965110.57149  24865419.0384   24865427.7604
  21832838.183     3155506.35749   2454841.82949  21832838.5534   21832843.9194
  21871958.669    -4788841.84849  -3721941.62149  21871958.5914   21871964.3744
  21211375.513     4521324.50549   3513196.95049  21211376.4154   21211382.8574
 96  2 21 17  5 30.0000000  0  6 19 29  4 22 18 14
  23369955.792    -5649697.93449  -4394136.97949  23369956.4764   23369963.7554
  20783037.382     -876476.35049   -680708.59549  20783037.7984   20783042.5154
  24871356.099     1270543.39049    989431.37549  24871358.4084   24871365.9444
  21844213.613     3215275.81949   2501415.41949  21844212.2594   21844218.0174
  21860641.233    -4848316.71449  -3768285.67049  21860640.9684   21860646.9854
  21225642.712     4596294.48549   3571615.09149  21225642.5074   21225649.3304
 96  2 21 17  6  0.0000000  0  6 19 29  4 22 18 14
  23357007.646    -5717740.06649  -4447156.77449  23357008.0114   23357015.6364
  20782151.116     -881132.53149   -684336.78749  20782151.6884   20782156.5474
  24877371.284     1302136.21949   1014049.17549  24877371.4914   24877377.1304
  21855680.130     3275537.07549   2548372.23549  21855679.6744   21855685.2924
  21849349.539    -4907653.67449  -3814522.25949  21849349.9244   21849355.4794
  21239989.307     4671687.34149   3630362.75049  21239989.4114   21239995.7914
 96  2 21 17  6 30.0000000  0  6 19 29  4 22 18 14
  23344091.354    -5785613.07049  -4500044.78149  23344092.7724   23344100.5614
  20781307.561     -885566.71049   -687791.99049  20781307.9364   20781312.7844
  24883458.547     1334130.71649   1038979.89649  24883460.8684   24883464.5144
  21867243.004     3336300.59249   2595720.42149  21867242.4324   21867248.1214
  21838083.740    -4966860.71149  -3860657.61949  21838082.9614   21838088.3534
  21254418.125     4747513.25849   3689447.85949  21254418.5994   21254425.1324
 96  2 21 17  7  0.0000000  0  6 19 29  4 22 18 14
  23331205.464    -5853335.70349  -4552815.62649  23331205.6324   23331212.7294
  20780505.445     -889782.57049   -691077.07549  20780505.6544   20780510.7194
  24889623.905     1366527.98649   1064224.48149  24889624.0314   24889631.6304
  21878903.544     3397578.52149   2643469.45449  21878903.4284   21878908.9414
  21826840.296    -5025943.99249  -3906696.53649  21826839.9284   21826845.3774
  21268928.330     4823761.06749   3748861.71749  21268928.0414   21268934.3734
 96  2 21 17  7 30.0000000  0  6 19 29  4 22 18 14
  23318345.922    -5920913.74949  -4605473.78649  23318345.7254   23318353.2424
  20779747.169     -893764.70249   -694180.03249  20779747.9154   20779752.7894
  24895866.473     1399337.93249   1089790.59449  24895867.6484   24895875.1534
  21890663.115     3459372.57649   2691620.66349  21890662.1924   21890667.6014
  21815622.192    -5084897.63749  -3952634.43049  21815621.0964   21815626.8024
  21283522.215     4900456.15249   3808624.10049  21283522.7704   21283528.9854
 96  2 21 17  8  0.0000000  0  6 19 29  4 22 18 14
  23305516.545    -5988329.10049  -4658005.17849  23305517.4484   23305524.7664
  20779042.218     -897474.02749   -697070.42049  20779041.8584   20779046.9054
  24902195.647     1432603.02449   1115711.39549  24902195.6554   24902203.9054
  21902523.689     3521698.18949   2740186.07049  21902522.5904   21902527.8364
  21804431.342    -5143702.86649  -3998456.68449  21804431.1464   21804436.7464
  21298209.854     4977636.33949   3868764.48749  21298209.8904   21298216.3034
 96  2 21 17  8 30.0000000  0  6 19 29  4 22 18 14
  23292713.189    -6055612.80849  -4710433.99149  23292713.9394   23292720.8434
  20778385.001     -900923.48649   -699758.31549  20778385.7004   20778390.4114
  24908608.248     1466292.33349   1141962.78949  24908608.4234   24908615.7574
  21914477.943     3584521.70949   2789139.45649  21914477.4744   21914482.6894
  21793264.585    -5202385.73349  -4044183.58749  21793264.3194   21793269.8974
  21312983.890     5055274.81449   3929261.98449  21312983.8564   21312990.0484
 96  2 21 17  9  0.0000000  0  6 19 29  4 22 18 14
  23279932.314    -6122772.40349  -4762766.09849  23279932.4274   23279940.6934
  20777775.533     -904127.25249   -702254.76049  20777775.9224   20777780.7784
  24915092.778     1500380.85849   1168525.25849  24915093.7374   24915103.4734
  21926523.154     3647819.00449   2838462.02049  21926522.6094   21926527.8994
  21782120.015    -5260950.69549  -4089818.61349  21782119.4884   21782125.3494
  21327844.020     5133367.53449   3990113.43349  21327844.2284   21327850.5744
 96  2 21 17  9 30.0000000  0  6 19 29  4 22 18 14
  23267177.911    -6189799.11549  -4814994.66749  23267178.3584   23267185.6234
  20777214.412     -907076.95849   -704553.23549  20777214.7204   20777219.2454
  24921658.146     1534869.01749   1195399.07949  24921658.9734   24921667.0374
  21938656.657     3711583.05049   2888148.28949  21938656.4374   21938661.8514
  21770997.170    -5319400.88849  -4135364.20549  21770997.0674   21771002.6234
  21342794.280     5211927.25349   4051328.78549  21342794.0454   21342800.6794
 96  2 21 17 10  0.0000000  0  6 19 29  4 22 18 14
  23254450.556    -6256682.35349  -4867111.42949  23254450.7594   23254458.4214
  20776701.359     -909769.60049   -706651.40749  20776702.4094   20776706.7944
  24928298.759     1569766.46549   1222591.90749  24928299.7374   24928306.6584
  21950882.583     3775829.06449   2938210.11849  21950881.9974   21950887.4494
  21759898.501    -5377722.60049  -4180809.68449  21759898.9304   21759904.4864
  21357827.539     5290930.28949   4112889.56949  21357827.7094   21357834.0714
 96  2 21 17 10 30.0000000  0  6 19 29  4 22 18 14
  23241751.208    -6323420.99049  -4919115.51849  23241750.8634   23241758.2404
  20776233.914     -912230.89949   -708569.31049  20776234.0854   20776238.5794
  24935011.262     1605039.79249   1250077.53849  24935011.8074   24935020.2004
  21963197.519     3840543.95949   2988637.31249  21963196.8054   21963202.4854
  21748824.451    -5435921.60049  -4226159.54649  21748823.9534   21748829.4964
  21372940.689     5370350.07949   4174775.09649  21372940.9904   21372947.2914
 96  2 21 17 11  0.0000000  0  6 19 29  4 22 18 14
  23229081.062    -6389997.63149  -4970993.37349  23229081.7494   23229089.1844
  20775809.671     -914460.50449   -710306.67049  20775809.7194   20775814.5834
  24941794.585     1640680.68649   1277849.64249  24941794.3084   24941800.5344
  21975601.862     3905731.67549   3039432.93349  21975601.3044   21975607.2114
  21737773.160    -5493993.75249  -4271410.56449  21737773.0244   21737778.8124
  21388132.691     5450183.67649   4236983.07449  21388132.9414   21388139.1454
 96  2 21 17 11 30.0000000  0  6 19 29  4 22 18 14
  23216446.618    -6456398.43649  -5022734.20849  23216445.8294   23216453.2464
  20775433.697     -916433.52249   -711844.08949  20775434.2304   20775439.1274
  24948644.856     1676689.66149   1305908.57549  24948645.2394   24948653.4444
  21988098.938     3971406.54149   3090608.14349  21988098.8934   21988104.5034
  21726750.955    -5551917.60149  -4316546.01649  21726750.5194   21726756.0974
  21403402.228     5530428.98849   4299511.86649  21403402.9584   21403409.1814
 96  2 21 17 12  0.0000000  0  6 19 29  4 22 18 14
  23203845.591    -6522616.84549  -5074332.92549  23203845.3984   23203851.7224
  20775105.388     -918156.24949   -713186.47549  20775106.3244   20775111.1194
  24955563.452     1713040.78449   1334234.06049  24955563.4574   24955572.4204
  22000685.603     4037546.67349   3142145.90349  22000685.2904   22000690.7774
  21715755.968    -5609690.82249  -4361564.10049  21715756.3764   21715762.1624
  21418745.733     5611059.48849   4362340.80449  21418746.4614   21418752.4914
 96  2 21 17 12 30.0000000  0  6 19 29  4 22 18 14
  23191282.624    -6588625.67649  -5125768.33249  23191283.6324   23191291.5614
  20774830.526     -919603.81149   -714314.44849  20774830.9984   20774835.7264
  24962545.495     1749747.89949   1362836.95449  24962546.6804   24962553.8964
  22013363.235     4104166.64349   3194057.54949  22013362.5184   22013368.2444
  21704794.201    -5667297.51949  -4406452.42749  21704794.1554   21704800.1354
  21434168.274     5692100.85149   4425489.89349  21434168.0944   21434174.1734
 96  2 21 17 13  0.0000000  0  6 19 29  4 22 18 14
  23178758.835    -6654440.92249  -5177052.90849  23178759.9544   23178766.9304
  20774608.375     -920772.53249   -715225.14549  20774608.5274   20774613.3944
  24969600.060     1786811.64749   1391717.78749  24969600.5724   24969606.4614
  22026131.601     4171263.66749   3246340.92949  22026130.6974   22026136.3474
  21693864.058    -5724737.68649  -4451210.99349  21693863.4614   21693869.6274
  21449665.697     5773541.92949   4488950.44649  21449665.9264   21449672.2614
 96  2 21 17 13 30.0000000  0  6 19 29  4 22 18 14
  23166271.023    -6720065.80449  -5228189.13449  23166271.9734   23166279.4984
  20774441.059     -921651.22049   -715909.83649  20774441.3774   20774446.1424
  24976726.996     1824254.97749   1420894.36049  24976726.8014   24976734.7834
  22038990.538     4238842.29849   3298999.58849  22038990.5644   22038996.1344
  21682967.881    -5781994.13049  -4495826.39649  21682967.7664   21682973.7854
  21465240.078     5855389.05449   4552727.40249  21465240.8194   21465246.9174
 96  2 21 17 14  0.0000000  0  6 19 29  4 22 18 14
  23153818.117    -6785506.89349  -5279182.17249  23153818.4994   23153825.7684
  20774326.240     -922251.89249   -716377.89549  20774327.0624   20774331.8284
  24983926.717     1862096.24049   1450380.97249  24983927.8034   24983934.8574
  22051942.758     4306905.81749   3352036.07849  22051942.7544   22051948.0354
  21672106.973    -5839068.54049  -4540299.96249  21672106.9074   21672112.9564
  21480893.619     5937645.52449   4616823.32749  21480893.8814   21480899.9614
 96  2 21 17 14 30.0000000  0  6 19 29  4 22 18 14
  23141393.583    -6850800.53149  -5330060.28349  23141394.5534   23141400.5404
  20774260.862     -922594.96249   -716645.22549  20774261.8574   20774266.5244
  24991202.420     1900325.67349   1480170.14749  24991203.4294   24991209.8544
  22064985.414     4375445.62949   3405443.70949  22064985.5264   22064990.8174
  21661278.045    -5895979.22049  -4584645.93949  21661277.4984   21661283.4924
  21496623.294     6020309.12249   4681236.49549  21496624.1204   21496630.5484
 96  2 21 17 15  0.0000000  0  6 19 29  4 22 18 14
  23128994.865    -6915952.03149  -5380827.65249  23128995.9014   23129002.7524
  20774246.201     -922674.86549   -716707.48849  20774246.6494   20774251.4184
  24998552.097     1938948.05949   1510265.50249  24998553.0334   24998561.0024
  22078118.413     4444456.82049   3459218.64349  22078117.8154   22078123.1344
  21650481.557    -5952711.82149  -4628853.16449  21650481.6394   21650487.5354
  21512433.511     6103385.94449   4745971.66149  21512433.2114   21512439.4794
 96  2 21 17 15 30.0000000  0  6 19 29  4 22 18 14
  23116627.762    -6980948.84549  -5431474.48649  23116627.5424   23116635.0974
  20774281.937     -922484.63049   -716559.25849  20774282.9424   20774287.7334
  25005976.201     1977971.31649   1540673.13349  25005976.8454   25005985.7774
  22091340.060     4513939.12149   3513360.68549  22091339.9294   22091345.4024
  21639719.439    -6009268.39949  -4672923.22149  21639719.2604   21639725.0604
  21528322.966     6186889.16949   4811039.08649  21528323.2474   21528329.5334
 96  2 21 17 16  0.0000000  0  6 19 29  4 22 18 14
  23104286.813    -7045798.54749  -5482006.68649  23104286.8724   23104294.4384
  20774365.313     -922048.07549   -716219.09149  20774365.8804   20774370.6814
  25013477.917     2017380.17749   1571381.42149  25013478.1474   25013485.2594
  22104649.469     4583876.39649   3567857.24149  22104648.3164   22104653.9344
  21628987.162    -6065667.60549  -4716870.65449  21628986.9754   21628992.4764
  21544291.243     6270803.20249   4876426.61849  21544291.7154   21544298.2204
 96  2 21 17 16 30.0000000  0  6 19 29  4 22 18 14
  23091974.501    -7110494.88849  -5532419.38849  23091976.0004   23091982.7704
  20774495.493     -921366.14549   -715687.72249  20774495.5414   20774500.3034
  25021044.259     2057166.39249   1602383.57749  25021047.9924   25021056.0244
  22118043.099     4654261.00449   3622702.37149  22118042.1884   22118047.4694
  21618285.344    -6121909.08249  -4760695.18249  21618284.5774   21618290.0034
  21560335.833     6355117.56949   4942126.09749  21560335.9194   21560342.6264
 96  2 21 17 17  0.0000000  0  6 19 29  4 22 18 14
  23079697.516    -7175012.24349  -5582692.62749  23079698.3704   23079705.8924
  20774674.449     -920422.37849   -714952.32449  20774675.1604   20774679.7654
  25028693.487     2097348.06449   1633693.95849  25028695.1304   25028701.0514
  22131525.018     4725110.83249   3677910.00949  22131524.3534   22131529.7074
  21607614.969    -6177978.42849  -4804385.58149  21607614.9614   21607620.3294
  21576457.093     6439835.34449   5008139.92449  21576456.9264   21576463.7174
 96  2 21 17 17 30.0000000  0  6 19 29  4 22 18 14
  23067452.580    -7239356.29149  -5632830.80349  23067453.8994   23067461.9744
  20774902.496     -919226.50749   -714020.48349  20774902.8604   20774907.5454
  25036412.705     2137910.43249   1665300.93049  25036413.9264   25036418.8814
  22145095.555     4796426.86949   3733480.93349  22145095.7194   22145101.1614
  21596976.224    -6233880.91949  -4847945.95949  21596976.7764   21596982.4674
  21592654.370     6524953.00249   5074465.34849  21592654.4934   21592661.0944
 96  2 21 17 18  0.0000000  0  6 19 29  4 22 18 14
  23055240.559    -7303535.89049  -5682840.84449  23055241.3444   23055248.4314
  20775179.093     -917772.16049   -712887.23149  20775179.6154   20775184.3454
  25044202.611     2178840.89559   1697194.77849  25044204.2004   25044209.8634
  22158756.052     4868211.00549   3789416.60749  22158755.6794   22158761.1534
  21586373.394    -6289606.12849  -4891368.19649  21586372.9054   21586378.4144
  21608926.698     6610465.37249   5141098.34249  21608927.2904   21608933.8144
 96  2 21 17 18 30.0000000  0  6 19 29  4 22 18 14
  23043058.349    -7367549.90349  -5732721.85249  23043059.4144   23043067.0374
  20775509.831     -916035.67549   -711534.13849  20775510.2044   20775514.8714
  25052056.281     2220118.49749   1729359.10349  25052056.6874   25052064.0504
  22172504.267     4940456.11749   3845711.49149  22172503.4744   22172508.5844
  21575801.584    -6345156.75249  -4934654.38949  21575801.8544   21575807.2894
  21625274.787     6696374.95049   5208040.84649  21625275.3664   21625281.6034
 96  2 21 17 19  0.0000000  0  6 19 29  4 22 18 14
  23030908.124    -7431397.31549  -5782473.04449  23030909.3554   23030916.8934
  20775896.485     -914004.42349   -709951.35249  20775896.6954   20775901.2634
  25059975.408     2261729.79749   1761783.44249  25059976.6934   25059984.0144
  22186339.255     5013164.00149   3902366.97149  22186338.9814   22186344.3444
  21565263.256    -6400534.99249  -4977806.25949  21565263.8394   21565269.2824
  21641700.273     6782693.27749   5275301.85949  21641701.0354   21641707.1994
 96  2 21 17 19 30.0000000  0  6 19 29  4 22 18 14
  23018793.579    -7495060.49349  -5832080.66149  23018794.7854   23018801.9624
  20776341.884     -911658.61449   -708123.45949  20776342.9904   20776347.6544
  25067956.360     2303683.22549   1794474.38249  25067958.6754   25067968.1004
  22200263.919     5086339.08749   3959386.51049  22200263.7814   22200269.0864
  21554762.736    -6455718.37149  -5020806.29349  21554762.7014   21554768.1914
  21658208.680     6869442.49349   5342898.62449  21658208.7574   21658215.2514
 96  2 21 17 20  0.0000000  0  6 19 29  4 22 18 14
  23006713.727    -7558542.57349  -5881547.16349  23006715.0084   23006721.3034
  20776845.285     -909015.09049   -706063.57649  20776846.1844   20776850.7274
  25076006.327     2345967.85349   1827423.46749  25076005.9984   25076013.3784
  22214273.049     5159957.46549   4016751.46549  22214272.8894   22214278.1864
  21544294.292    -6510728.44049  -5063671.27249  21544294.5494   21544299.9114
  21674793.844     6956600.74149   5410814.12449  21674794.4434   21674800.7094
 96  2 21 17 20 30.0000000  0  5 19 29 22 18 14
  22994674.259    -7621816.43949  -5930851.42049  22994674.4594   22994680.6684
  20777406.170     -906068.69349   -703767.68849  20777406.7994   20777411.4514
  22228368.187     5234028.70549   4074469.30249  22228367.8614   22228373.6484
  21533861.225    -6565556.40849  -5106394.35349  21533861.2084   21533866.8144
  21691460.600     7044182.54749   5479059.66449  21691460.7024   21691467.0754
 96  2 21 17 21  0.0000000  0  5 19 29 22 18 14
  22982666.503    -7684910.83749  -5980015.83749  22982667.3294   22982674.2864
  20778016.204     -902863.16349   -701269.88249  20778016.9554   20778021.6444
  22242545.630     5308532.72949   4132524.37749  22242546.0384   22242551.5654
  21523460.822    -6620213.24149  -5148984.08649  21523460.3644   21523465.9014
  21708202.283     7132162.53949   5547615.47549  21708202.7054   21708209.2984
 96  2 21 17 21 30.0000000  0  5 19 29 22 18 14
  22970695.288    -7747822.29649  -6029037.69349  22970696.2134   22970702.7724
  20778675.075     -899402.72449   -698573.44149  20778675.1584   20778679.8814
  22256804.308     5383460.23049   4190909.42749  22256804.3834   22256809.7284
  21513093.277    -6674690.32749  -5191433.74849  21513093.6864   21513099.0694
  21725017.322     7220527.13149   5616470.98149  21725018.1614   21725024.3734
 96  2 21 17 22  0.0000000  0  6 19 29 22 18 28 14
  22958756.123    -7810559.79849  -6077923.99749  22958756.8834   22958764.6794
  20779380.338     -895692.77549   -695682.58049  20779381.2234   20779385.9934
  22271141.854     5458806.59349   4249620.85249  22271141.9834   22271147.7864
  21502759.461    -6728998.39049  -5233751.71849  21502759.3504   21502764.8394
  25047579.930    -3824757.78519  -2966678.05819  25047578.306    25047585.367
  21741902.082     7309254.76849   5685609.37049  21741902.6764   21741908.9604
 96  2 21 17 22 30.0000000  0  6 19 29 22 18 28 14
  22946849.794    -7873128.68549  -6126678.91449  22946851.1824   22946857.6294
  20780136.903     -891719.83949   -692586.79149  20780137.3254   20780141.9074
  22285559.555     5534575.30049   4308661.38949  22285560.3034   22285566.0834
  21492460.449    -6783119.07649  -5275923.67749  21492460.5374   21492466.0624
  25035167.219    -3889981.630 9  -3017501.742 9  25035166.675    25035173.821
  21758856.779     7398353.35449   5755036.81949  21758857.3314   21758864.1334
 96  2 21 17 23  0.0000000  0  6 19 29 22 18 28 14
  22934977.345    -7935518.89849  -6175294.61849  22934978.1444   22934985.3654
  20780947.176     -887456.93749   -689265.05449  20780948.4454   20780953.3394
  22300061.208     5610777.24449   4368039.50349  22300061.4504   22300066.6744
  21482203.775    -6837020.61949  -5317924.87949  21482203.4104   21482209.0244
  25022772.510    -3955105.231 9  -3068247.377 9  25022773.729    25022781.657
  21775885.966     7487840.17949   5824766.78549  21775886.3304   21775892.6214
 96  2 21 17 23 30.0000000  0  6 19 29 22 18 28 14
  22923141.305    -7997720.23449  -6223763.14549  22923141.4094   22923148.7464
  20781820.479     -882875.01249   -685694.72549  20781820.2304   20781825.0584
  22314645.124     5687415.18749   4427757.36149  22314644.5754   22314650.5964
  21471986.228    -6890708.54649  -5359759.62149  21471986.5774   21471992.5634
  25010400.021    -4020129.954 9  -3118916.002 9  25010400.142    25010407.024
  21792987.551     7577710.51549   5894795.59549  21792987.9374   21792994.5854
 96  2 21 17 24  0.0000000  0  6 19 29 22 18 28 14
  22911340.019    -8059735.88649  -6272086.98449  22911340.6694   22911347.3834
  20782754.564     -877955.89949   -681861.65749  20782756.2884   20782761.2404
  22329313.604     5764497.75549   4487821.67949  22329312.8894   22329318.4914
  21461811.902    -6944176.64249  -5401423.06949  21461812.0444   21461817.9824
  24998046.199    -4085050.606 9  -3169503.652 9  24998046.083    24998049.235
  21810165.908     7667983.37249   5965138.06049  21810166.2054   21810172.8564
 96  2 21 17 24 30.0000000  0  6 19 29 22 18 28 14
  22899569.761    -8121590.78049  -6320285.55849  22899569.7194   22899576.6194
  20783753.976     -872711.76849   -677775.32349  20783754.5774   20783759.3324
  22344061.846     5842000.85049   4548213.67949  22344061.3234   22344067.1974
  21451678.131    -6997429.11649  -5442918.49749  21451678.5504   21451684.2454
  24985704.761    -4149875.12719  -3220016.17219  24985707.154    24985717.040
  21827418.046     7758645.74649   6035784.04649  21827418.6504   21827425.3734
 96  2 21 17 25  0.0000000  0  6 19 29 22 18 28 14
  22887828.716    -8183281.06249  -6368355.86149  22887830.4054   22887836.5324
  20784815.160     -867132.61349   -673427.94249  20784816.1144   20784820.5534
  22358893.516     5919940.59749   4608945.91849  22358892.9534   22358898.5814
  21441587.172    -7050461.14349  -5484242.15849  21441586.9844   21441592.9504
  24973394.035    -4214593.39219  -3270445.88019  24973394.393    24973401.751
  21844745.370     7849696.98849   6106733.03649  21844745.4484   21844751.9194
 96  2 21 17 25 30.0010000  0  6 19 29 22 18 28 14
  22876121.958    -8244804.80049  -6416296.39449  22876122.8944   22876129.7394
  20785939.538     -861227.11449   -668826.26049  20785939.7904   20785944.6404
  22373809.903     5998326.83449   4670026.07849  22373809.3854   22373815.1654
  21431536.406    -7103278.44949  -5525398.49849  21431535.9584   21431541.9214
  24961100.609    -4279202.156 9  -3320790.243 9  24961100.000    24961106.873
  21862146.018     7941139.12249   6177986.62349  21862146.4994   21862152.5954
 96  2 21 17 26  0.0010000  0  6 19 29 22 18 28 14
  22864445.267    -8306164.73849  -6464109.30049  22864446.3334   22864453.1604
  20787119.297     -855024.94849   -663993.41149  20787119.9254   20787124.6014
  22388808.306     6077149.96549   4731446.66949  22388809.1724   22388815.2294
  21421526.814    -7155874.52649  -5566382.46249  21421527.1984   21421532.9184
  24948828.725    -4343690.567 9  -3371040.838 9  24948828.326    24948834.633
  21879618.611     8032960.12849   6249535.43849  21879619.3184   21879625.7444
 96  2 21 17 26 30.0010000  0  6 19 29 22 18 28 14
  22852799.197    -8367363.97949  -6511796.98849  22852800.5884   22852807.9154
  20788350.577     -848554.84649   -658951.77749  20788351.2424   20788355.9454
  22403890.506     6156400.51449   4793200.31449  22403890.2764   22403895.9454
  21411555.930    -7208271.89549  -5607211.57949  21411556.3464   21411562.1644
  24936578.190    -4408073.595 9  -3421209.332 9  24936577.158    24936582.089
  21897159.849     8125138.10349   6321362.40849  21897160.4244   21897166.6224
 96  2 21 17 27  0.0010000  0  6 19 29 22 18 28 14
  22841195.515    -8428347.25149  -6559316.40049  22841195.7174   22841203.1424
  20789636.679     -841794.58949   -653684.04449  20789637.8444   20789642.2864
  22419060.122     6236117.87049   4855317.71549  22419060.0274   22419065.6404
  21401627.150    -7260450.85449  -5647870.51549  21401626.7714   21401632.8434
  24924350.332    -4472314.274 9  -3471267.002 9  24924351.841    24924355.460
  21914773.398     8217702.14749   6393490.21349  21914774.4844   21914780.8094
 96  2 21 17 27 30.0010000  0  6 19 29 22 18 28 14
  22829630.361    -8489118.58249  -6606670.66649  22829631.3464   22829638.5734
  20790974.474     -834763.90749   -648205.59349  20790975.6304   20790980.3914
  22434312.965     6316270.93349   4917774.62649  22434312.5814   22434318.0504
  21391737.839    -7312422.30349  -5688367.75449  21391737.0744   21391743.0434
  24912153.232    -4536422.16419  -3521221.14119  24912150.669    24912157.215
  21932457.300     8310628.32149   6465900.19149  21932458.0504   21932464.4434
 96  2 21 17 28  0.0010000  0  6 19 29 22 18 28 14
  22818102.119    -8549701.42449  -6653878.06249  22818102.3574   22818110.4204
  20792364.599     -827460.93349   -642514.96549  20792365.3534   20792370.0404
  22449644.201     6396841.07149   4980556.52149  22449644.3664   22449650.1654
  21381883.052    -7364203.51549  -5728716.75449  21381883.4764   21381889.4944
  24899974.627    -4600410.275 9  -3571081.959 9  24899975.848    24899981.985
  21950204.243     8403888.41449   6538570.36449  21950204.6124   21950210.9654
 96  2 21 17 28 30.0010000  0  6 19 29 22 18 28 14
  22806609.991    -8610092.18449  -6700935.77749  22806610.7244   22806618.1254
  20793811.131     -819859.00149   -636591.38749  20793812.0014   20793816.5214
  22465056.171     6477828.78849   5043663.80449  22465056.0754   22465061.7024
  21372067.915    -7415785.57149  -5768910.56249  21372067.7884   21372073.8444
  24887822.932    -4664274.786 9  -3620846.493 9  24887822.557    24887828.922
  21968017.153     8497496.55349   6611511.74249  21968017.6444   21968024.3754
 96  2 21 17 29  0.0010000  0  6 19 29 22 18 28 14
  22795154.349    -8670293.24249  -6747845.67949  22795154.8534   22795161.6504
  20795319.276     -811933.99349   -630416.05949  20795319.8724   20795324.6464
  22480546.441     6559231.70449   5107094.62349  22480546.1894   22480552.0614
  21362293.808    -7467146.18749  -5808931.80849  21362294.0834   21362299.9084
  24875693.750    -4728008.966 9  -3670509.440 9  24875693.924    24875701.346
  21985895.663     8591451.21349   6684723.14349  21985896.7554   21985903.2064
 96  2 21 17 29 30.0010000  0  6 19 29 22 18 28 14
  22783736.450    -8730298.41149  -6794602.93749  22783736.7644   22783743.3514
  20796894.331     -803656.40949   -623966.00749  20796895.3974   20796899.7524
  22496117.645     6641059.24749   5170856.31649  22496117.5964   22496123.3724
  21352567.035    -7518263.56949  -5848763.52949  21352566.7784   21352572.7404
  24863592.263    -4791601.368 9  -3720061.890 9  24863593.185    24863600.567
  22003844.032     8685768.53649   6758217.12949  22003844.7314   22003850.8964
 96  2 21 17 30  0.0010000  0  6 19 29 22 18 28 14
  22772355.169    -8790103.43949  -6841204.23649  22772356.0034   22772362.8054
  20798536.358     -795030.47149   -617244.51249  20798536.6794   20798541.0594
  22511769.008     6723305.28849   5234944.11749  22511768.5944   22511774.1204
  21342882.970    -7569151.38449  -5888416.36749  21342883.2034   21342889.1264
  24851517.524    -4855054.297 9  -3769505.680 9  24851518.345    24851525.788
  22021862.624     8780457.80349   6832000.95249  22021863.0904   22021869.5824
 96  2 21 17 30 30.0010000  0  6 19 29 22 18 28 14
  22761014.363    -8849700.81049  -6887643.71849  22761014.8414   22761022.1164
  20800240.729     -786076.55749   -610267.44449  20800240.7584   20800245.2824
  22527494.120     6805946.16249   5299339.58449  22527494.6764   22527500.0654
  21333243.249    -7619806.27249  -5927887.70249  21333243.7994   21333249.7114
  24839466.408    -4918372.057 9  -3818844.105 9  24839468.428    24839476.814
  22039952.896     8875519.78449   6906075.19349  22039953.2324   22039959.9094
 96  2 21 17 31  0.0010000  0  6 19 29 22 18 28 14
  22749713.879    -8909081.93349  -6933914.69049  22749715.0944   22749721.9644
  20802003.109     -776807.72749   -603044.99349  20802004.2784   20802009.0474
  22543295.689     6888977.35149   5364039.19049  22543295.0074   22543300.2204
  21323648.494    -7670231.28049  -5967179.91049  21323648.1734   21323654.0824
  24827446.158    -4981550.096 9  -3868073.680 9  24827446.587    24827453.757
  22058109.380     8970933.31249   6980423.37049  22058109.7614   22058116.4304
 96  2 21 17 31 30.0010000  0  6 19 29 22 18 28 14
  22738454.700    -8968250.10749  -6980019.74149  22738455.5114   22738462.8554
  20803822.700     -767250.05049   -595597.46449  20803823.2524   20803827.7524
  22559168.329     6972394.79849   5429039.78149  22559169.0454   22559174.4244
  21314095.276    -7720432.66149  -6006297.86249  21314095.4214   21314100.8574
  24815453.325    -5044586.429 9  -3917192.929 9  24815451.997    24815457.124
  22076332.520     9066696.75149   7055044.20149  22076332.8064   22076339.5454
 96  2 21 17 32  0.0010000  0  6 19 29 22 18 28 14
  22727233.202    -9027213.46149  -7025965.19549  22727234.9284   22727242.3504
  20805695.282     -757410.80649   -587930.53249  20805695.7914   20805700.2094
  22575115.505     7056195.13249   5494338.71949  22575115.4194   22575121.0874
  21304585.966    -7770403.93749  -6045236.51549  21304586.0784   21304591.9404
  24803484.441    -5107474.030 9  -3966196.272 9  24803484.739    24803491.359
  22094621.705     9162803.17149   7129932.29349  22094621.3634   22094628.1394
 96  2 21 17 32 30.0010000  0  6 19 29 22 18 28 14
  22716050.664    -9085988.70949  -7071764.08049  22716051.0434   22716057.9324
  20807624.044     -747270.44249   -580028.96249  20807625.0684   20807629.6634
  22591137.193     7140390.79249   5559945.69849  22591137.3174   22591142.8744
  21295123.027    -7820130.43149  -6083984.43149  21295123.5474   21295129.2184
  24791548.235    -5170203.482 9  -4015076.333 9  24791547.803    24791553.882
  22112972.055     9259240.99849   7205078.62149  22112972.7884   22112979.6354
 96  2 21 17 33  0.0010000  0  6 19 29 22 18 28 14
  22704896.778    -9144596.39849  -7117432.37649  22704898.0504   22704904.9354
  20809610.312     -736833.22449   -571896.07349  20809611.3774   20809616.1084
  22607234.060     7224979.57049   5625859.01249  22607233.9634   22607239.4124
  21285705.054    -7869626.70149  -6122552.94549  21285705.0014   21285710.5154
  24779639.245    -5232781.774 9  -4063838.596 9  24779638.985    24779645.437
  22131384.040     9355996.36749   7280472.39449  22131385.1224   22131391.9164
 96  2 21 17 33 30.0010000  0  6 19 29 22 18 28 14
  22693774.461    -9203052.22449  -7162982.35049  22693774.3624   22693781.0184
  20811656.761     -726083.19049   -563519.43349  20811657.0444   20811661.8744
  22623405.621     7309958.31449   5692076.19049  22623405.0884   22623410.5644
  21276330.346    -7918888.66249  -6160938.88249  21276330.6374   21276336.1854
  24767758.290    -5295203.538 9  -4112478.849 9  24767759.731    24767767.014
  22149859.611     9453087.30649   7356127.64749  22149860.5944   22149867.6964
 96  2 21 17 34  0.0010000  0  6 19 29 22 18 28 14
  22682681.627    -9261339.86849  -7208401.25749  22682682.6064   22682688.9494
  20813771.594     -714969.41349   -554859.35549  20813771.8124   20813776.5644
  22639653.658     7395344.62649   5758610.95349  22639653.5914   22639659.0314
  21267003.889    -7967898.29649  -6199128.20249  21267004.4984   21267009.9964
  24755917.265    -5357441.302 9  -4160975.675 9  24755915.790    24755923.952
  22168404.838     9550541.12249   7432065.65649  22168405.1664   22168412.7194
 96  2 21 17 34 30.0010000  0  6 19 29 22 18 28 14
  22671620.984    -9319470.49249  -7253697.81749  22671620.9984   22671627.5314
  20815954.747     -703492.48249   -545916.29849  20815956.0064   20815960.7324
  22655977.363     7481124.29249   5825452.22549  22655976.9884   22655982.4664
  21257725.503    -8016661.68649  -6237125.63749  21257724.9014   21257730.6004
  24744106.721    -5419504.177 9  -4209336.297 9  24744106.768    24744113.370
  22187016.421     9648345.16149   7508276.57249  22187016.8604   22187024.2534
 96  2 21 17 35  0.0010000  0  6 19 29 22 18 28 14
  22660588.302    -9377442.80649  -7298871.00749  22660588.7054   22660595.4554
  20818202.312     -691682.74849   -536713.91449  20818203.2464   20818208.0024
  22672370.497     7567274.62649   5892582.32949  22672370.7314   22672376.2624
  21248489.287    -8065191.71949  -6274941.23549  21248489.8564   21248495.5574
  24732327.570    -5481406.470 9  -4257571.855 9  24732327.430    24732333.437
  22205689.849     9746476.23949   7584742.31749  22205691.0834   22205697.8124
 96  2 21 17 35 30.0010000  0  6 19 29 22 18 28 14
  22649590.516    -9435236.64949  -7343905.14549  22649591.2034   22649598.0744
  20820516.073     -679523.60349   -527239.26049  20820517.2184   20820521.8694
  22688835.501     7653803.44249   5960007.34849  22688836.5764   22688842.2494
  21239302.317    -8113470.90349  -6312561.37149  21239302.6594   21239308.6474
  24720582.535    -5543128.604 9  -4305667.005 9  24720581.946    24720588.667
  22224424.662     9844932.91349   7661461.76949  22224426.1514   22224433.2924
 96  2 21 17 36  0.0010000  0  6 19 29 22 18 28 14
  22638627.425    -9492844.87649  -7388794.62049  22638628.3134   22638635.5564
  20822891.617     -667041.65549   -517513.07049  20822892.1164   20822896.9574
  22705372.074     7740700.40249   6027719.24249  22705372.4354   22705378.3964
  21230162.841    -8161502.02949  -6349988.21349  21230162.9374   21230168.8264
  24708868.834    -5604676.818 9  -4353626.548 9  24708869.139    24708877.082
  22243218.246     9943686.23049   7738412.38049  22243218.5364   22243225.6034
 96  2 21 17 36 30.0010000  0  6 19 29 22 18 28 14
  22627703.302    -9550249.81149  -7433525.70649  22627704.3094   22627711.7354
  20825324.070     -654256.67949   -507550.75649  20825325.1774   20825330.1014
  22721980.956     7827977.27749   6095727.17249  22721980.7684   22721987.1144
  21221070.876    -8209277.57249  -6387215.90249  21221071.3504   21221077.2144
  24697191.438    -5666043.820 9  -4401444.888 9  24697191.613    24697199.143
  22262065.866    10042730.24849   7815589.51349  22262066.1084   22262072.8644
 96  2 21 17 37  0.0010000  0  6 19 29 22 18 28 14
  22616819.450    -9607444.89849  -7478093.27149  22616820.5024   22616827.3344
  20827810.160     -641189.31049   -497368.39649  20827811.6234   20827816.4944
  22738657.977     7915617.04249   6164017.87049  22738657.8984   22738663.4234
  21212023.672    -8256817.88249  -6424260.28749  21212024.6034   21212030.2844
  24685546.273    -5727230.810 9  -4449122.959 9  24685547.873    24685555.638
  22280968.956    10142068.13649   7892995.62749  22280969.4244   22280976.6444
 96  2 21 17 37 30.0010000  0  6 19 29 22 18 28 14
  22605973.940    -9664439.13749  -7522504.32849  22605974.5994   22605981.5184
  20830352.368     -627832.25549   -486960.31149  20830353.4264   20830358.2854
  22755403.975     8003619.08549   6232590.86849  22755404.3034   22755409.6574
  21203021.794    -8304124.81949  -6461122.82349  21203022.3544   21203028.1564
  24673940.578    -5788234.040 9  -4496657.884 9  24673939.348    24673946.934
  22299930.819    10241712.02449   7970640.19649  22299930.8944   22299938.2474
 96  2 21 17 38  0.0010000  0  6 19 29 22 18 28 14
  22595164.091    -9721244.03849  -7566767.85649  22595165.3234   22595171.9454
  20832950.838     -614177.31749   -476320.10849  20832952.0164   20832956.8804
  22772218.782     8091983.91049   6301446.55449  22772219.4014   22772225.0574
  21194063.722    -8351201.02149  -6497805.57249  21194064.1664   21194069.9904
  24662364.003    -5849055.429 9  -4544051.128 9  24662365.073    24662371.677
  22318951.183    10341670.45449   8048529.84949  22318952.5514   22318959.9574
 96  2 21 17 38 30.0010000  0  6 19 29 22 18 28 14
  22584388.619    -9777868.21549  -7610890.55349  22584390.2114   22584396.9684
  20835609.401     -600205.17349   -465432.73249  20835610.7134   20835615.6674
  22789101.951     8180703.16049   6370578.41249  22789102.2914   22789107.5764
  21185148.675    -8398048.58449  -6534310.15749  21185148.9464   21185154.9644
  24650825.942    -5909694.042 9  -4591301.975 9  24650826.057    24650831.543
  22338034.468    10441948.69749   8126668.71349  22338034.3614   22338042.2704
 96  2 21 17 39  0.0010000  0  6 19 29 22 18 28 14
  22573649.427    -9834306.50549  -7654868.41249  22573650.4664   22573656.9784
  20838336.114     -585876.79849   -454267.77649  20838337.4204   20838342.4584
  22806052.620     8269780.44249   6439989.25349  22806053.1124   22806058.6904
  21176284.322    -8444631.13849  -6570608.24549  21176285.0004   21176290.7144
  24639324.775    -5970133.712 9  -4638397.788 9  24639323.628    24639330.766
  22357179.189    10542556.98949   8205064.74749  22357179.9794   22357187.2864
 96  2 21 17 39 30.0010000  0  6 19 29 22 18 28 14
  22562940.215    -9890582.01149  -7698719.44049  22562941.4674   22562948.0234
  20841131.071     -571190.15349   -442823.64949  20841131.9464   20841136.9564
  22823070.910     8359211.60649   6509675.84449  22823071.2934   22823077.2154
  21167471.598    -8490944.14049  -6606696.29249  21167471.9624   21167477.5634
  24627858.782    -6030387.817 9  -4685348.972 9  24627858.631    24627865.014
  22376382.229    10643470.18849   8283698.37849  22376382.5774   22376390.4644
 96  2 21 17 40  0.0010000  0  6 19 29 22 18 28 14
  22552263.874    -9946682.46449  -7742434.06249  22552265.5154   22552272.5854
  20843994.865     -556138.52049   -431095.11349  20843996.4484   20844001.3844
  22840159.124     8449003.46149   6579643.49149  22840158.5794   22840163.8484
  21158712.908    -8536969.49849  -6642560.20049  21158713.5014   21158719.5324
  24616431.615    -6090444.149 9  -4732146.083 9  24616430.676    24616437.204
  22395644.950    10744695.63049   8362575.31049  22395646.0094   22395652.7014
 96  2 21 17 40 30.0010000  0  6 19 29 22 18 28 14
  22541626.077   -10002587.86149  -7785996.70249  22541627.1124   22541634.0554
  20846928.440     -540724.00749   -419083.81949  20846929.7244   20846934.7804
  22857315.260     8539166.54149   6649900.40649  22857315.4754   22857321.2684
  21150011.442    -8582696.64349  -6678191.73849  21150011.8834   21150017.6354
  24605041.519    -6150288.827 9  -4778778.249 9  24605042.613    24605049.263
  22414969.954    10846248.16249   8441707.12449  22414970.8004   22414977.3814
 96  2 21 17 41  0.0010000  0  6 19 29 22 18 28 14
  22531025.103   -10058296.63549  -7829406.12149  22531026.3834   22531033.1374
  20849927.636     -524964.73049   -406803.87949  20849928.3924   20849933.4164
  22874542.540     8629696.66449   6720443.33649  22874543.1284   22874548.8034
  21141364.174    -8628140.44849  -6713602.49349  21141364.3514   21141370.0514
  24593692.823    -6209929.087 9  -4825251.134 9  24593693.238    24593699.473
  22434354.165    10948113.61549   8521082.76849  22434354.8494   22434362.2964
 96  2 21 17 41 30.0010000  0  6 19 29 22 18 28 14
  22520464.124   -10113795.74549  -7872652.17449  22520465.1694   22520471.9964
  20852990.140     -508868.56249   -394261.42149  20852991.6264   20852996.6374
  22891840.096     8720596.70749   6791274.50849  22891840.8514   22891846.3354
  21132767.942    -8673308.77549  -6748798.59049  21132768.9534   21132774.6774
  24582381.781    -6269356.300 9  -4871557.980 9  24582383.679    24582389.948
  22453800.688    11050301.31649   8600709.51349  22453800.1544   22453808.0554
 96  2 21 17 42  0.0010000  0  6 19 29 22 18 28 14
  22509941.924   -10169090.40649  -7915738.91449  22509943.1004   22509949.6664
  20856113.980     -492448.89849   -381466.88849  20856116.1114   20856121.1274
  22909206.102     8811855.08449   6862384.90649  22909207.0154   22909212.4824
  21124223.261    -8718216.06649  -6783791.28349  21124223.4964   21124229.0964
  24571114.643    -6328573.429 9  -4917701.140 9  24571115.107    24571121.431
  22473303.853    11152796.12549   8680575.55549  22473304.7154   22473311.4624
 96  2 21 17 42 30.0010000  0  6 19 29 22 18 28 14
  22499462.898   -10224157.85049  -7958648.60949  22499463.7964   22499470.8754
  20859303.515     -475690.10249   -368408.09549  20859305.2634   20859310.3954
  22926641.326     8903476.68149   6933778.33149  22926641.8674   22926647.1504
  21115727.123    -8762862.24649  -6818580.51949  21115727.5684   21115733.3224
  24559888.591    -6387564.798 9  -4963668.459 9  24559890.141    24559896.518
  22492867.360    11255598.29849   8760681.10149  22492867.5314   22492874.2444
 96  2 21 17 43  0.0010000  0  6 19 29 22 18 28 14
  22489023.407   -10279014.24249  -8001393.84649  22489025.0544   22489032.0404
  20862554.988     -458609.54449   -355098.57449  20862555.5404   20862560.7534
  22944139.375     8995432.47649   7005432.17149  22944140.2284   22944145.6234
  21107278.645    -8807255.99649  -6853173.05649  21107279.7804   21107285.5874
  24548703.116    -6446345.448 9  -5009471.535 9  24548704.478    24548711.331
  22512481.519    11358679.33749   8841003.95549  22512482.8544   22512490.1144
 96  2 21 17 43 30.0010000  0  6 19 29 22 18 28 14
  22478620.430   -10333683.02849  -8043992.88149  22478621.8774   22478628.5884
  20865864.228     -441214.99149   -341544.38549  20865865.5934   20865870.5644
  22961699.319     9087702.68449   7077331.00949  22961699.2454   22961704.4854
  21098878.943    -8851400.74349  -6887571.56549  21098879.2984   21098885.2244
  24537557.927    -6504916.817 9  -5055111.521 9  24537558.340    24537565.700
  22532149.255    11462031.60149   8921538.14849  22532150.3544   22532157.5834
 96  2 21 17 44  0.0010000  0  6 19 29 22 18 28 14
  22468255.306   -10388153.82849  -8086437.65049  22468256.5654   22468262.8254
  20869237.853     -423484.96949   -327728.79149  20869239.4554   20869244.6804
  22979317.851     9180299.51749   7149484.35049  22979319.3054   22979325.1124
  21090526.799    -8895286.23949  -6921768.05949  21090527.9714   21090533.5664
  24526454.525    -6563259.689 9  -5100573.392 9  24526455.451    24526463.427
  22551869.926    11565661.92549   9002289.01449  22551870.5564   22551877.7134
 96  2 21 17 44 30.0010000  0  6 19 29 22 18 28 14
  22457924.071   -10442441.26149  -8128739.53549  22457925.6684   22457932.6584
  20872674.694     -405428.71649   -313658.99649  20872675.5044   20872680.7794
  22996997.966     9273202.31349   7221876.11649  22996998.3614   22997004.2374
  21082222.868    -8938923.34349  -6955771.00349  21082224.2624   21082229.7544
  24515395.029    -6621381.126 9  -5145862.721 9  24515395.572    24515403.075
  22571641.056    11669559.25949   9083247.93449  22571641.9064   22571648.7784
 96  2 21 17 45  0.0010000  0  6 19 29 22 18 28 14
  22447626.561   -10496563.31249  -8170912.53749  22447626.9114   22447633.4644
  20876172.038     -387046.47149   -299335.17849  20876173.8264   20876178.6044
  23014734.304     9366403.88649   7294500.68449  23014733.7924   23014739.5214
  21073967.654    -8982308.60549  -6989577.70249  21073968.3714   21073974.0094
  24504379.296    -6679279.504 9  -5190978.322 9  24504378.932    24504383.997
  22591460.003    11773711.11249   9164405.17549  22591460.9414   22591467.9214
 96  2 21 17 45 30.0010000  0  6 19 29 22 18 28 14
  22437358.063   -10550518.79849  -8212955.74349  22437359.4894   22437366.3164
  20879735.208     -368323.77849   -284746.07549  20879736.5584   20879741.4714
  23032528.244     9459914.46149   7367366.04449  23032529.1084   23032534.6044
  21065762.222    -9025428.84049  -7023177.88049  21065762.5704   21065768.4994
  24493406.594    -6736942.486 9  -5235910.582 9  24493406.065    24493410.008
  22611326.964    11878113.27949   9245757.48149  22611328.2014   22611335.0484
 96  2 21 17 46  0.0010000  0  6 19 29 22 18 28 14
  22427124.563   -10604295.45449  -8254859.59349  22427126.4914   22427133.0574
  20883364.437     -349252.57349   -269885.40449  20883365.6484   20883370.6084
  23050385.102     9553751.97549   7440486.15749  23050385.0354   23050390.4574
  21057607.794    -9068277.39049  -7056566.35749  21057608.7384   21057614.6934
  24482478.162    -6794365.765 9  -5280656.016 9  24482478.548    24482484.218
  22631240.920    11982763.14049   9327302.78549  22631242.1074   22631249.1144
 96  2 21 17 46 30.0010000  0  6 19 29 22 18 28 14
  22416925.526   -10657889.17149  -8296620.90049  22416927.4194   22416934.4854
  20887059.585     -329834.53749   -254754.47949  20887060.8614   20887065.8674
  23068303.699     9647915.23549   7513860.09249  23068304.0964   23068309.5974
  21049507.240    -9110845.17549  -7089736.06049  21049508.2934   21049514.1114
  24471596.214    -6851546.023 9  -5325211.979 9  24471596.653    24471603.610
  22651204.688    12087665.16749   9409044.58749  22651204.3274   22651211.4944
 96  2 21 17 47  0.0010000  0  8 19 29 31 22 18 28 27 14
  22406762.664   -10711301.70649  -8338241.01049  22406763.2484   22406770.2784
  20890819.444     -310076.00949   -239358.23549  20890820.7234   20890825.7524
  24872559.064    -4196184.51959  -3249292.01059  24872558.8644   24872567.4184
  23086283.665     9742405.94149   7587489.17949  23086284.7304   23086290.5004
  21041463.685    -9153118.13949  -7122676.02749  21041464.2304   21041469.9384
  24460761.172    -6908483.233 9  -5369578.513 9  24460761.819    24460769.217
  25329016.264    -3140074.72959  -2434189.73459  25329017.0154   25329025.8854
  22671212.954    12192816.78449   9490980.87549  22671214.3814   22671221.4624
 96  2 21 17 47 30.0010000  0  8 19 29 31 22 18 28 27 14
  22396634.210   -10764524.04649  -8379712.92449  22396635.5234   22396642.4774
  20894645.060     -289971.83349   -223692.65349  20894646.4684   20894651.4344
  24856872.559    -4278615.22549  -3313523.53249  24856873.2284   24856882.3694
  23104329.545     9837235.45449   7661382.27649  23104330.5134   23104336.6074
  21033478.307    -9195082.96249  -7155375.88249  21033478.6204   21033484.2684
  24449975.679    -6965168.587 9  -5413748.842 9  24449976.056    24449982.107
  25314678.719    -3215409.59249  -2492892.20649  25314681.0054   25314690.4664
  22691274.157    12298241.62149   9573130.05749  22691276.2374   22691283.0314
 96  2 21 17 48  0.0010000  0  8 19 29 31 22 18 28 27 14
  22386542.674   -10817555.81349  -8421036.33249  22386543.8044   22386550.6484
  20898536.518     -269521.00849   -207756.95649  20898537.9604   20898543.1224
  24841180.976    -4361085.10049  -3377785.56249  24841179.6044   24841187.3564
  23122437.643     9932387.88749   7735527.00549  23122437.4754   23122443.3674
  21025547.813    -9236757.11149  -7187849.23549  21025548.3584   21025554.0124
  24439236.631    -7021603.633 9  -5457724.173 9  24439236.823    24439241.535
  25300361.031    -3290670.37049  -2551536.97149  25300360.7834   25300367.7434
  22711389.486    12403940.76949   9655492.98049  22711390.1034   22711396.8104
 96  2 21 17 48 30.0010000  0  8 19 29 31 22 18 28 27 14
  22376489.707   -10870385.36249  -8462202.16949  22376490.6454   22376497.7634
  20902496.647     -248713.02049   -191542.95449  20902497.7564   20902502.7984
  24825479.411    -4443578.84649  -3442066.20349  24825479.5984   24825487.4564
  23140604.331    10027852.66849   7809915.11749  23140604.1194   23140609.8734
  21017677.359    -9278118.62549  -7220078.97849  21017677.4574   21017683.0854
  24428546.815    -7077776.421 9  -5501495.202 9  24428546.604    24428551.915
  25286052.157    -3365854.39749  -2610121.91349  25286053.7184   25286061.7754
  22731556.141    12509920.32649   9738074.40749  22731556.9574   22731564.3694
 96  2 21 17 49  0.0010000  0  8 19 29 31 22 18 28 27 14
  22366474.779   -10923013.80549  -8503211.30349  22366475.8034   22366482.6594
  20906525.703     -227542.35149   -175046.34549  20906526.5864   20906531.3234
  24809780.006    -4526085.96549  -3506357.36249  24809780.5324   24809788.5664
  23158828.815    10123626.15549   7884543.78349  23158829.2974   23158834.8894
  21009867.166    -9319160.49549  -7252059.65249  21009867.4814   21009873.1734
  24417907.924    -7133686.325 9  -5545061.326 9  24417907.313    24417913.596
  25271758.625    -3440966.64249  -2668650.95349  25271759.8924   25271767.7624
  22751776.208    12616172.30649   9820868.11449  22751776.3134   22751783.1984
 96  2 21 17 49 30.0010000  0  8 19 29 31 22 18 28 27 14
  22356499.505   -10975435.19549  -8544059.09749  22356500.4344   22356506.9974
  20910626.043     -205991.71449   -158253.65849  20910627.4844   20910632.2184
  24794080.307    -4608595.71049  -3570650.50549  24794080.8544   24794087.9224
  23177109.499    10219696.91949   7959404.07649  23177110.4344   23177116.4754
  21002115.316    -9359896.60149  -7283802.07349  21002115.7104   21002121.2624
  24407318.932    -7189331.213 9  -5588420.889 9  24407318.561    24407325.118
  25257479.793    -3516005.53649  -2727122.89049  25257480.0964   25257488.4204
  22772046.288    12722695.96349   9903873.51249  22772047.7214   22772054.0994
 96  2 21 17 50  0.0010000  0  8 19 29 31 22 18 28 27 14
  22346563.881   -11027648.53749  -8584744.78849  22346564.9974   22346571.2424
  20914801.025     -184055.35349   -141160.40749  20914801.8944   20914806.5814
  24778375.676    -4691111.47449  -3634948.33449  24778376.8564   24778385.5894
  23195447.446    10316055.58049   8034488.71649  23195447.4044   23195453.0324
  20994420.918    -9400331.32249  -7315309.64449  20994421.3754   20994426.7664
  24396780.225    -7244711.917 9  -5631574.630 9  24396780.416    24396786.974
  25243210.772    -3590989.53849  -2785551.95049  25243212.4224   25243218.7124
  22792365.877    12829478.31249   9987080.49149  22792366.8894   22792373.9524
 96  2 21 17 50 30.0010000  0  8 19 29 31 22 18 28 27 14
  22336666.834   -11079656.92849  -8625270.77049  22336668.0194   22336674.4834
  20919048.514     -161733.78249   -123766.98949  20919049.4794   20919054.3634
  24762670.901    -4773630.57449  -3699248.68849  24762670.6354   24762681.0784
  23213839.746    10412712.48749   8109805.75949  23213840.4844   23213846.0514
  20986787.462    -9440445.11449  -7346567.14449  20986787.8804   20986793.5204
  24386292.951    -7299823.885 9  -5674518.986 9  24386292.923    24386299.088
  25228953.139    -3665918.72549  -2843938.35349  25228953.0524   25228959.4074
  22812737.483    12936530.18149  10070497.48449  22812738.4314   22812745.3434
 96  2 21 17 51  0.0010000  0  8 19 29 31 22 18 28 27 14
  22326805.490   -11131471.24849  -8665645.53549  22326807.5134   22326814.3324
  20923368.272     -139030.74249   -106076.32949  20923369.6904   20923374.5614
  24746970.828    -4856153.53849  -3763552.38449  24746970.7994   24746976.4524
  23232291.737    10509671.24349   8185357.99849  23232290.8744   23232296.6674
  20979212.860    -9480249.43049  -7377583.49349  20979213.4424   20979218.9164
  24375856.656    -7354662.362 9  -5717250.244 9  24375856.883    24375862.517
  25214706.678    -3740784.16949  -2902275.09849  25214707.3584   25214715.0684
  22833160.656    13043855.44049  10154127.49649  22833161.8694   22833169.6394
 96  2 21 17 51 30.0010000  0  8 19 29 31 22 18 28 27 14
  22316981.245   -11183102.80449  -8705877.88549  22316982.4974   22316989.4664
  20927759.333     -115959.22849    -88098.54249  20927760.0264   20927765.1264
  24731263.620    -4938687.18049  -3827864.26849  24731264.9964   24731273.4634
  23250797.044    10606926.46849   8261141.26349  23250798.2004   23250803.0314
  20971693.921    -9519760.40849  -7408371.26649  20971694.4774   20971699.9774
  24365471.457    -7409230.651 9  -5759770.950 9  24365473.141    24365478.963
  25200470.806    -3815581.93949  -2960559.05249  25200472.2584   25200480.8174
  22853633.553    13151436.56749  10237956.91349  22853634.2254   22853641.1464
 96  2 21 17 52  0.0010000  0  8 19 29 31 22 18 28 27 14
  22307192.601   -11234544.10749  -8745961.98649  22307193.7814   22307200.4584
  20932220.121      -92514.89749    -69830.24849  20932221.4784   20932226.0574
  24715561.239    -5021218.29949  -3892174.06149  24715559.2704   24715567.4194
  23269365.816    10704509.27949   8337179.79349  23269367.2754   23269373.4254
  20964237.148    -9558946.12549  -7438905.59049  20964237.8494   20964243.3364
  24355144.053    -7463505.340 9  -5802062.872 9  24355145.403    24355151.679
  25186255.326    -3890285.95949  -3018769.99649  25186256.3624   25186265.1754
  22874154.815    13259280.89549  10321991.40749  22874156.1174   22874163.0964
 96  2 21 17 52 30.0010000  0  8 19 29 31 22 18 28 27 14
  22297436.007   -11285813.77349  -8785912.34149  22297436.9144   22297444.0404
  20936744.686      -68738.54649    -51303.23649  20936745.9924   20936750.3984
  24699850.549    -5103777.48849  -3956505.85649  24699849.4604   24699857.2234
  23287994.794    10802399.05249   8413457.51049  23287995.2804   23288001.0654
  20956840.583    -9597815.64449  -7469193.52349  20956841.0174   20956846.6164
  24344867.683    -7517508.019 9  -5844142.825 9  24344868.801    24344875.173
  25172051.880    -3964926.12749  -3076931.08049  25172052.9304   25172062.0234
  22894719.696    13367349.27249  10406200.48549  22894721.1174   22894727.7944
 96  2 21 17 53  0.0010000  0  8 19 29 31 22 18 28 27 14
  22287715.620   -11336895.01849  -8825715.87449  22287716.7304   22287723.4414
  20941331.132      -44636.50749    -32522.43549  20941332.3904   20941337.3014
  24684129.554    -5186364.31049  -4020859.24349  24684133.0204   24684141.1334
  23306681.548    10900596.60949   8489975.06649  23306682.1234   23306687.8864
  20949503.088    -9636372.72549  -7499237.99749  20949504.2794   20949509.5904
  24334645.334    -7571232.966 9  -5886006.330 9  24334645.100    24334651.787
  25157860.387    -4039513.77249  -3135051.30949  25157860.4784   25157867.0714
  22915324.864    13475627.64449  10490573.19149  22915325.9624   22915332.7334
 96  2 21 17 53 30.0010000  0  8 19 29 31 22 18 28 27 14
  22278034.596   -11387764.58049  -8865354.45949  22278036.0914   22278043.4184
  20945981.672      -20199.17149    -13480.36749  20945982.7864   20945987.4074
  24668412.933    -5268972.76849  -4085229.44449  24668412.6964   24668421.4374
  23325428.182    10999114.52449   8566742.24049  23325429.0974   23325435.3904
  20942227.450    -9674606.27049  -7529030.36749  20942228.7124   20942234.3934
  24324475.526    -7624667.431 9  -5927643.462 9  24324475.727    24324482.531
  25143677.873    -4114040.07549  -3193123.65249  25143678.5914   25143686.9344
  22935970.901    13584120.13349  10575112.73549  22935971.2834   22935978.3764
 96  2 21 17 54  0.0010000  0  8 19 29 31 22 18 28 27 14
  22268396.556   -11438416.40749  -8904823.37949  22268397.9654   22268404.5184
  20950694.282        4567.79249      5818.55749  20950695.6684   20950700.4804
  24652691.241    -5351593.15149  -4149608.90549  24652691.6754   24652699.4014
  23344235.380    11097938.72649   8643748.08349  23344235.0484   23344240.9784
  20935014.943    -9712510.76449  -7558566.33249  20935015.5384   20935020.9984
  24314365.401    -7677806.010 9  -5969050.100 9  24314364.707    24314369.898
  25129505.222    -4188514.98849  -3251155.99349  25129507.0504   25129514.0084
  22956658.722    13692839.73749  10659829.25349  22956660.0314   22956666.9214
 96  2 21 17 54 30.0010000  0  8 19 29 31 22 18 28 27 14
  22258799.502   -11488849.71849  -8944122.03649  22258800.8314   22258806.8634
  20955469.890       29660.97449     25371.67449  20955470.7384   20955475.7304
  24636969.525    -5434208.34249  -4213984.31049  24636970.7104   24636979.1434
  23363091.504    11197038.65449   8720968.76849  23363092.6614   23363098.9324
  20927858.817    -9750116.50549  -7587869.50149  20927859.2394   20927864.7054
  24304307.659    -7730658.139 9  -6010233.585 9  24304307.775    24304312.946
  25115342.124    -4262947.03649  -3309154.94349  25115342.7734   25115349.9644
  22977390.299    13801784.84949  10744721.50649  22977391.3854   22977398.1104
 96  2 21 17 55  0.0010000  0  8 19 29 31 22 18 28 27 14
  22249242.275   -11539073.85749  -8983257.70149  22249243.0504   22249249.9004
  20960310.448       55100.10449     45194.36149  20960311.4534   20960316.6994
  24621253.184    -5516792.26549  -4278335.35149  24621255.1624   24621262.2594
  23382002.168    11296408.32249   8798399.66549  23382002.2084   23382008.6124
  20920755.943    -9787440.32349  -7616952.99049  20920756.9064   20920762.3754
  24294305.753    -7783215.133 9  -6051187.055 9  24294306.174    24294312.145
  25101190.125    -4337309.76549  -3367099.85549  25101191.5194   25101199.4594
  22998167.742    13910965.48549  10829797.27149  22998168.0994   22998175.5224
 96  2 21 17 55 30.0010000  0  8 19 29 31 22 18 28 27 14
  22239723.895   -11589093.19449  -9022233.77549  22239724.8194   22239731.2624
  20965222.849       80913.87049     65308.97449  20965223.9514   20965228.9944
  24605554.063    -5599304.43649  -4342630.44949  24605553.3814   24605560.6034
  23400963.633    11396052.87249   8876044.73249  23400964.2124   23400970.5634
  20913710.505    -9824465.64649  -7645803.88549  20913711.1924   20913716.8334
  24284362.551    -7835463.823 9  -6091900.230 9  24284362.383    24284370.070
  25087055.499    -4411588.54349  -3424979.41349  25087056.1824   25087065.0354
  23018988.971    14020384.62849  10915058.88349  23018989.6034   23018997.1614
 96  2 21 17 56  0.0010000  0  8 19 29 31 22 18 28 27 14
  22230241.933   -11638923.78049  -9061062.76849  22230242.5594   22230248.8924
  20970206.411      107106.66349     85718.93249  20970208.1024   20970213.1044
  24589868.471    -5681727.18249  -4406855.82349  24589869.1884   24589876.4344
  23419973.530    11495951.68549   8953887.94149  23419973.9124   23419980.6094
  20906722.824    -9861187.02249  -7674417.93949  20906723.3934   20906728.9984
  24274477.041    -7887413.981 9  -6132380.749 9  24274477.249    24274484.500
  25072933.601    -4485800.17349  -3482806.56149  25072934.1314   25072943.1234
  23039851.850    14130024.32449  11000492.35249  23039853.8454   23039860.3474
 96  2 21 17 56 30.0010000  0  8 19 29 31 22 18 28 27 14
  22220795.760   -11688559.71349  -9099740.08749  22220796.8044   22220803.4744
  20975269.816      133709.43549    106448.35249  20975270.5894   20975275.4074
  24574201.178    -5764058.72049  -4471010.05849  24574201.7774   24574210.1174
  23439036.168    11596124.45149   9031944.60649  23439036.5634   23439042.6574
  20899797.009    -9897583.65249  -7702778.94649  20899797.6704   20899803.1814
  24264651.770    -7939051.098 9  -6172617.436 9  24264651.445    24264657.025
  25058829.457    -4559921.63849  -3540563.52149  25058829.2174   25058838.1474
  23060758.295    14239886.59649  11086099.27449  23060759.2994   23060766.6064
 96  2 21 17 57  0.0010000  0  8 19 29 31 22 18 28 27 14
  22211385.150   -11738016.22649  -9138277.59349  22211385.6094   22211392.2464
  20980405.044      160696.40049    127477.14549  20980406.0284   20980411.2064
  24558543.798    -5846336.52949  -4535122.48149  24558544.5224   24558550.6074
  23458148.132    11696563.00549   9110208.37549  23458149.2634   23458155.1194
  20892934.592    -9933644.63849  -7730878.41549  20892935.1684   20892940.8374
  24254882.437    -7990383.558 9  -6212616.777 9  24254883.283    24254887.948
  25044737.638    -4633969.20549  -3598262.81449  25044739.5544   25044746.7904
  23081702.842    14349947.27549  11171860.78449  23081703.3214   23081710.8464
 96  2 21 17 57 30.0010000  0  8 19 29 31 22 18 28 27 14
  22202007.900   -11787294.40749  -9176676.14649  22202008.0424   22202014.8144
  20985611.958      188061.53249    148800.61749  20985613.5034   20985618.5384
  24542894.287    -5928576.84149  -4599205.74849  24542895.0574   24542901.7094
  23477310.808    11797257.03049   9188671.22649  23477310.1704   23477316.9374
  20886139.227    -9969354.47349  -7758704.25849  20886139.6564   20886145.1914
  24245173.003    -8041410.330 9  -6252377.911 9  24245172.636    24245178.303
  25030657.422    -4707956.99049  -3655915.62049  25030658.1874   25030666.7584
  23102685.285    14460208.93149  11257778.90649  23102685.4384   23102693.0144
 96  2 21 17 58  0.0010000  0  8 19 29 31 22 18 28 27 14
  22192666.166   -11836382.40649  -9214926.50349  22192667.1104   22192673.9614
  20990892.455      215808.04649    170421.26649  20990893.4674   20990898.3814
  24527244.186    -6010802.41949  -4663277.38149  24527247.0844   24527255.9344
  23496521.710    11898214.73349   9267339.52449  23496522.6544   23496528.4274
  20879411.954   -10004709.54849  -7786253.67049  20879411.9374   20879417.5634
  24235521.928    -8092119.550 9  -6291891.573 9  24235522.561    24235529.705
  25016593.439    -4781866.99749  -3713507.76249  25016594.5664   25016603.1494
  23123708.917    14570690.04749  11343868.03449  23123709.7414   23123717.2104
 96  2 21 17 58 30.0010000  0  8 19 29 31 22 18 28 27 14
  22183361.182   -11885278.51349  -9253027.34249  22183362.4274   22183369.3984
  20996241.518      243918.14449    192325.23049  20996242.6704   20996247.7914
  24511597.891    -6093034.45349  -4727354.07949  24511599.4274   24511606.6804
  23515783.320    11999432.18249   9346210.23549  23515783.3174   23515789.1904
  20872748.471   -10039722.78749  -7813536.71849  20872749.1564   20872754.8524
  24225936.068    -8142507.219 9  -6331154.663 9  24225934.441    24225941.471
  25002544.732    -4855697.14049  -3771037.68149  25002545.1724   25002553.7514
  23144774.100    14681391.47849  11430128.82349  23144775.8864   23144783.1154
 96  2 21 17 59  0.0010000  0  8 19 29 31 22 18 28 27 14
  22174093.692   -11933979.89049  -9290976.43549  22174095.0844   22174101.4714
  21001657.552      272382.36249    214505.13049  21001659.2864   21001664.4474
  24495950.277    -6175264.29649  -4791429.16849  24495950.7854   24495958.4714
  23535093.174    12100912.63749   9425285.87249  23535094.1154   23535100.9824
  20866150.536   -10074393.68949  -7840553.00549  20866151.5774   20866157.1724
  24216407.882    -8192572.130 9  -6370166.260 9  24216407.715    24216414.366
  24988506.682    -4929462.98649  -3828517.42849  24988507.6924   24988517.0364
  23165880.217    14792299.85249  11516550.87949  23165880.5004   23165887.5684
 96  2 21 17 59 30.0010000  0  8 19 29 31 22 18 28 27 14
  22164865.649   -11982475.49349  -9328765.19649  22164866.5934   22164872.8054
  21007148.774      301234.05549    236986.95349  21007149.2154   21007154.5444
  24480307.523    -6257462.30049  -4855479.46049  24480309.7534   24480315.4924
  23554458.173    12202674.35949   9504580.68549  23554458.6244   23554464.6754
  20859618.855   -10108717.15149  -7867298.56149  20859620.0254   20859625.8154
  24206944.070    -8242300.077 9  -6408915.291 9  24206944.462    24206950.960
  24974483.100    -5003154.11749  -3885939.04449  24974485.6444   24974493.5184
  23187027.563    14903427.72649  11603143.96649  23187027.8984   23187035.4004
 96  2 21 18  0  0.0010000  0  8 19 29 31 22 18 28 27 14
  22155674.745   -12030772.62849  -9366399.29449  22155675.8774   22155682.4694
  21012709.510      330458.62649    259759.33349  21012710.8134   21012715.7294
  24464669.016    -6339642.38449  -4919515.75749  24464668.1734   24464678.6384
  23573873.073    12304696.92349   9584078.74749  23573873.3424   23573879.8314
  20853149.599   -10142717.31649  -7893792.19649  20853150.0834   20853155.5674
  24197541.168    -8291711.611 9  -6447417.779 9  24197542.247    24197547.999
  24960473.374    -5076785.45349  -3943314.02749  24960473.3224   24960480.7394
  23208206.524    15014739.09849  11689880.02349  23208209.3454   23208216.9744
 96  2 21 18  0 30.0010000  0  8 19 29 31 22 18 28 27 14
  22146524.713   -12078855.58249  -9403866.50449  22146526.2194   22146532.3454
  21018343.650      360067.71049    282831.33149  21018345.1734   21018350.0354
  24449041.628    -6421769.25449  -4983510.53449  24449043.0944   24449050.1474
  23593338.906    12406992.41049   9663789.48049  23593339.2814   23593346.1634
  20846747.459   -10176364.34449  -7920010.66649  20846747.1564   20846752.7954
  24188202.026    -8340789.517 9  -6485660.311 9  24188202.891    24188208.657
  24946474.152    -5150351.82249  -4000638.46949  24946473.6834   24946481.8094
  23229424.855    15126235.45249  11776760.24849  23229426.5634   23229433.9884
 96  2 21 18  1  0.0010000  0  8 19 29 31 22 18 28 27 14
  22137415.410   -12126726.30249  -9441168.32649  22137416.5444   22137422.7954
  21024054.074      390075.50049    306214.01349  21024055.5034   21024060.7504
  24433425.006    -6503835.01049  -5047457.75349  24433424.4754   24433433.2234
  23612857.590    12509561.47449   9743713.38749  23612857.9864   23612864.4444
  20840412.433   -10209650.24849  -7945947.73049  20840413.1254   20840418.8414
  24178927.148    -8389532.382 9  -6523641.770 9  24178927.214    24178932.592
  24932485.616    -5223853.69649  -4057912.58749  24932488.8884   24932493.7334
  23250678.684    15237917.71049  11863785.32149  23250679.5544   23250685.7534
 96  2 21 18  1 30.0010000  0  8 19 29 31 22 18 28 27 14
  22128349.631   -12174368.91849  -9478292.40949  22128350.5604   22128357.0324
  21029843.484      420499.18349    329920.76149  21029844.9444   21029850.0234
  24417823.961    -6585820.49049  -5111342.44649  24417824.9504   24417831.4564
  23632426.127    12612395.00849   9823843.36749  23632425.4824   23632432.7634
  20834147.142   -10242576.60649  -7971604.63449  20834147.2584   20834152.9164
  24169718.304    -8437925.531 9  -6561350.713 9  24169718.179    24169723.725
  24918515.584    -5297269.16649  -4115119.42749  24918516.5544   24918525.7434
  23271971.450    15349816.34249  11950978.99949  23271972.6114   23271979.9134
 96  2 21 18  2  0.0010000  0  8 19 29 31 22 18 28 27 14
  22119321.295   -12221810.20249  -9515259.60449  22119322.6104   22119329.0384
  21035705.236      451301.01949    353922.18149  21035706.1404   21035711.5194
  24402233.308    -6667749.77749  -5175183.34649  24402233.8374   24402240.4404
  23652037.649    12715459.57249   9904153.38249  23652038.5344   23652045.0754
  20827944.891   -10275168.55049  -7997000.95349  20827945.2674   20827950.7914
  24160571.333    -8485989.898 9  -6598803.450 9  24160572.327    24160578.355
  24904556.423    -5370628.34849  -4172282.33949  24904557.3404   24904563.2074
  23293301.360    15461912.71649  12038326.76649  23293304.2194   23293311.5234
 96  2 21 18  2 30.0010000  0  8 19 29 31 22 18 28 27 14
  22110331.536   -12269053.62449  -9552072.63249  22110332.6704   22110338.8814
  21041637.306      482473.40649    378212.33649  21041638.3524   21041643.3204
  24386656.457    -6749602.45049  -5238964.53449  24386657.0014   24386661.0984
  23671695.920    12818760.67049   9984647.70749  23671696.3714   23671702.3204
  20821807.399   -10307421.36549  -8022133.02049  20821807.9654   20821813.5004
  24151491.057    -8533713.308 9  -6635990.505 9  24151490.902    24151497.127
  24890606.273    -5443931.48249  -4229401.67049  24890607.3574   24890615.9174
  23314675.486    15574224.86749  12125842.67149  23314677.0164   23314684.1034
 96  2 21 18  3  0.0010000  0  8 19 29 31 22 18 28 27 14
  22101380.232   -12316091.10149  -9588725.17749  22101381.6864   22101388.4464
  21047639.676      514015.02949    402790.21149  21047640.4214   21047645.4844
  24371092.528    -6831381.70449  -5302688.64249  24371095.4434   24371100.7054
  23691397.746    12922290.00149  10065319.88649  23691397.5804   23691402.3014
  20815731.223   -10339351.53749  -8047013.67349  20815731.7194   20815737.2654
  24142473.704    -8581091.758 9  -6672908.726 9  24142474.429    24142480.957
  24876670.482    -5517168.07349  -4286469.09949  24876670.5574   24876677.6294
  23336088.588    15686755.08849  12213528.50849  23336090.5754   23336096.8954
 96  2 21 18  3 30.0010000  0  8 19 29 31 22 18 28 27 14
  22092468.699   -12362926.62449  -9625220.36549  22092469.4194   22092475.7854
  21053710.000      545915.26249    427647.51949  21053710.9014   21053715.8864
  24355548.044    -6913079.06149  -5366348.83449  24355549.4744   24355556.3684
  23711141.788    13026047.74549  10146170.04849  23711141.8224   23711147.9754
  20809716.783   -10370955.73149  -8071640.32449  20809717.4474   20809723.2494
  24133524.601    -8628123.806 9  -6709557.035 9  24133524.582    24133530.257
  24862746.143    -5590336.11249  -4343483.11549  24862745.5124   24862755.1044
  23357541.614    15799481.46349  12301367.18049  23357541.7814   23357549.5904
 96  2 21 18  4  0.0010000  0  8 19 29 31 22 18 28 27 14
  22083591.205   -12409574.81849  -9661569.58149  22083592.2444   22083598.8374
  21059846.209      578161.08849    452774.12249  21059847.0424   21059852.2174
  24340015.785    -6994706.17449  -5429954.29449  24340015.2224   24340023.3484
  23730929.573    13130034.19349  10227198.41249  23730930.1854   23730935.5554
  20803769.321   -10402210.89049  -8095994.99649  20803770.0104   20803775.6484
  24124638.507    -8674811.956 9  -6745937.397 9  24124640.236    24124645.619
  24848836.942    -5663436.45749  -4400444.46349  24848836.2864   24848844.5374
  23379020.977    15912375.35449  12389336.39049  23379024.3854   23379031.0094
 96  2 21 18  4 30.0010000  0  8 19 29 31 22 18 28 27 14
  22074753.157   -12456018.80049  -9697759.67149  22074753.9254   22074760.8414
  21066050.932      610766.77149    478181.13249  21066051.6044   21066056.7684
  24324495.917    -7076252.74449  -5493496.98049  24324497.8834   24324503.6084
  23750761.639    13234251.54949  10308406.71549  23750762.1584   23750767.6614
  20797892.896   -10433093.50649  -8120059.37649  20797893.2944   20797898.9254
  24115821.903    -8721146.378 9  -6782042.139 9  24115823.250    24115829.090
  24834941.727    -5736450.08149  -4457338.16249  24834943.2354   24834950.6404
  23400535.520    16025419.52549  12477422.70249  23400536.0534   23400544.2414
 96  2 21 18  5  0.0010000  0  8 19 29 31 22 18 28 27 14
  22065953.878   -12502258.38349  -9733790.49949  22065955.0604   22065961.4464
  21072327.569      643749.77549    503882.16049  21072328.3354   21072333.4504
  24308994.575    -7157728.68549  -5556984.81949  24308993.5184   24308999.6394
  23770637.824    13338700.27949  10389795.28949  23770637.6454   23770643.8334
  20792090.008   -10463585.86449  -8143819.65649  20792090.7924   20792096.2504
  24107073.410    -8767126.867 9  -6817871.082 9  24107073.960    24107079.274
  24821065.832    -5809374.00349  -4514161.99449  24821066.6844   24821073.4624
  23422072.044    16138598.98249  12565614.41549  23422074.0544   23422080.6704
 96  2 21 18  5 30.0010000  0  8 19 29 31 22 18 28 27 14
  22057190.575   -12548309.25949  -9769674.28149  22057192.0654   22057198.4154
  21078676.225      677115.71249    529881.58149  21078677.4024   21078682.8144
  24293502.623    -7239125.85049  -5620411.12349  24293502.9414   24293511.4704
  23790556.615    13443381.28249  10471364.86949  23790557.7614   23790563.6684
  20786365.063   -10493672.41149  -8167263.71949  20786365.6274   20786371.3604
  24098390.553    -8812749.429 9  -6853421.102 9  24098391.497    24098398.037
  24807205.070    -5882209.29849  -4570916.76449  24807205.0924   24807214.2984
  23443636.943    16251921.37249  12653917.52249  23443638.9854   23443646.5424
 96  2 21 18  6  0.0010000  0  8 19 29 31 22 18 28 27 14
  22048463.468   -12594172.29949  -9805411.70149  22048464.4694   22048470.6124
  21085098.500      710864.29749    556179.15849  21085099.5834   21085104.7474
  24278029.138    -7320445.27649  -5683776.82549  24278028.9074   24278037.7074
  23810517.497    13548275.08949  10553100.27449  23810519.2584   23810524.0344
  20780714.942   -10523361.18449  -8190397.82549  20780715.9834   20780721.8164
  24089775.087    -8858016.068 9  -6888693.770 9  24089777.158    24089783.729
  24793358.803    -5954962.41149  -4627607.47749  24793359.9964   24793368.2864
  23465231.057    16365390.67849  12742335.10449  23465230.3384   23465238.3104
 96  2 21 18  6 30.0010000  0  8 19 29 31 22 18 28 27 14
  22039773.337   -12639839.10049  -9840996.20249  22039773.9274   22039780.2954
  21091593.810      744999.52049    582778.01949  21091595.1894   21091600.4754
  24262573.986    -7401669.29549  -5747068.25849  24262573.1874   24262578.5314
  23830520.943    13653386.09249  10635004.92449  23830520.2554   23830526.8804
  20775138.709   -10552668.27049  -8213234.51249  20775138.7804   20775144.5944
  24081232.792    -8902922.801 9  -6923686.008 9  24081231.932    24081238.196
  24779527.190    -6027646.58649  -4684244.44849  24779529.8424   24779538.6054
  23486851.568    16479017.59949  12830875.49249  23486853.0294   23486860.4674
 96  2 21 18  7  0.0010000  0  8 19 29 31 22 18 28 27 14
  22031118.392   -12685319.29249  -9876435.29949  22031119.8654   22031125.8824
  21098164.563      779529.02349    609684.11249  21098165.9574   21098171.1274
  24247134.675    -7482792.97849  -5810281.50449  24247135.2794   24247142.6384
  23850563.697    13758720.18349  10717083.38949  23850565.3984   23850570.5564
  20769630.255   -10581613.30749  -8235789.08649  20769631.0174   20769636.7854
  24072754.942    -8947462.437 9  -6958392.192 9  24072756.771    24072762.406
  24765708.997    -6100267.84949  -4740832.40849  24765711.5524   24765718.0454
  23508510.409    16592826.11749  12919557.41149  23508510.4424   23508518.4524
 96  2 21 18  7 30.0010000  0  8 19 29 31 22 18 28 27 14
  22022501.873   -12730600.34349  -9911719.21449  22022502.8564   22022509.1094
  21104809.325      814445.10949    636891.43449  21104810.4474   21104815.5824
  24231721.353    -7563791.23749  -5873396.93349  24231722.1514   24231729.5364
  23870649.940    13864272.79849  10799332.14849  23870651.2234   23870657.3114
  20764189.235   -10610209.46849  -8258071.80449  20764189.3664   20764195.0894
  24064351.993    -8991627.605 9  -6992806.630 9  24064352.837    24064358.001
  24751903.242    -6172823.18849  -4797368.98849  24751903.9074   24751911.0604
  23530202.135    16706818.90449  13008382.89949  23530201.6024   23530210.5344
 96  2 21 18  8  0.0010000  0  8 19 29 31 22 18 28 27 14
  22013926.383   -12775664.20349  -9946833.88549  22013927.6474   22013933.4474
  21111526.108      849743.88749    664396.95949  21111527.4954   21111532.7974
  24216333.191    -7644656.26349  -5936408.62849  24216335.6074   24216339.9064
  23890778.191    13970037.53149  10881746.17149  23890777.1374   23890782.6414
  20758811.279   -10638466.95349  -8280090.62249  20758811.8304   20758817.6654
  24056017.653    -9035422.726 9  -7026932.696 9  24056018.306    24056024.694
  24738106.820    -6245326.70749  -4853865.16749  24738107.3294   24738114.6854
  23551926.146    16820987.75549  13097345.59449  23551927.8154   23551935.5614
 96  2 21 18  8 30.0010000  0  8 19 29 31 22 18 28 27 14
  22005394.470   -12820502.30749  -9981772.64949  22005395.0754   22005401.1984
  21118318.911      885438.42949    692210.87249  21118320.0204   21118325.2824
  24200971.160    -7725387.75249  -5999316.23849  24200971.6134   24200978.3404
  23910945.958    14076023.30449  10964332.45949  23910945.0824   23910951.8764
  20753497.879   -10666389.87849  -8301848.74549  20753498.4094   20753503.8884
  24047755.364    -9078837.229 9  -7060762.140 9  24047756.166    24047762.965
  24724319.583    -6317773.62549  -4910317.24549  24724320.5854   24724327.6404
  23573688.553    16935340.09549  13186451.25049  23573688.2644   23573695.5724
 96  2 21 18  9  0.0010000  0  8 19 29 31 22 18 28 27 14
  21996904.071   -12865117.39749 -10016537.62649  21996905.2554   21996911.3404
  21125184.900      921517.93149    720324.75749  21125185.9074   21125190.9644
  24185632.237    -7805990.97649  -6062123.87449  24185634.0504   24185641.1284
  23931153.857    14182217.23549  11047080.94549  23931154.1354   23931160.3084
  20748247.737   -10693977.63849  -8323345.69749  20748248.7334   20748254.2404
  24039567.515    -9121872.547 9  -7094296.128 9  24039567.165    24039573.795
  24710543.840    -6390158.22649  -4966720.74449  24710545.3354   24710553.4274
  23595478.983    17049854.58749  13275683.25249  23595479.8804   23595488.0974
 96  2 21 18  9 30.0010000  0  8 19 29 31 22 18 28 27 14
  21988457.392   -12909505.52949 -10051125.75049  21988458.2854   21988464.4964
  21132122.264      957977.00049    748734.40749  21132123.6734   21132128.8754
  24170320.051    -7886462.69649  -6124829.02449  24170320.3264   24170327.2114
  23951401.021    14288614.19449  11129987.61649  23951400.4904   23951407.6504
  20743065.715   -10721213.82849  -8344568.69849  20743065.9044   20743071.5464
  24031450.140    -9164527.986 9  -7127534.111 9  24031450.232    24031456.137
  24696784.994    -6462470.57549  -5023067.94349  24696785.1974   24696793.4164
  23617296.822    17164509.91549  13365025.00349  23617298.6114   23617305.7614
 96  2 21 18 10  0.0010000  0  8 19 29 31 22 18 28 27 14
  21980049.469   -12953686.99249 -10085552.83749  21980050.9514   21980057.2134
  21139134.588      994827.38049    777448.97349  21139136.1094   21139141.2704
  24155025.066    -7966832.70849  -6187454.94349  24155025.5824   24155030.8054
  23971686.781    14395217.75449  11213055.28449  23971687.0974   23971693.1804
  20737950.648   -10748090.74149  -8365511.74249  20737951.1764   20737956.8684
  24023405.876    -9206805.822 9  -7160477.894 9  24023405.345    24023410.315
  24683037.336    -6534710.71149  -5079358.88449  24683039.4624   24683045.9694
  23639138.346    17279295.28049  13454468.08549  23639140.4254   23639149.0654
 96  2 21 18 10 30.0010000  0  8 19 29 31 22 18 28 27 14
  21971675.759   -12997693.19149 -10119843.35349  21971676.6754   21971682.8804
  21146220.208     1032062.65549    806463.45449  21146221.7624   21146226.8744
  24139745.472    -8047120.05649  -6250016.50349  24139747.7824   24139754.1954
  23992010.312    14502030.43949  11296285.90349  23992012.5484   23992018.4584
  20732907.534   -10774593.90449  -8386163.55449  20732908.2824   20732913.8874
  24015432.532    -9248705.666 9  -7193127.136 9  24015432.085    24015437.037
  24669305.762    -6606873.04549  -5135589.20049  24669306.6874   24669313.1334
  23661004.710    17394188.80849  13543995.43349  23661005.0724   23661013.4554
 96  2 21 18 11  0.0010000  0  8 19 29 31 22 18 28 27 14
  21963336.150   -13041515.06349 -10153990.22949  21963337.7024   21963344.0964
  21153380.917     1069691.12749    835784.32849  21153382.1994   21153387.4504
  24124486.748    -8127311.70349  -6312503.39149  24124487.2294   24124495.3324
  24012380.534    14609062.90949  11379687.78749  24012380.4414   24012386.8114
  20727942.548   -10800684.60449  -8406493.96849  20727943.2464   20727948.5854
  24007531.554    -9290215.240 9  -7225472.269 9  24007532.887    24007538.706
  24655591.775    -6678938.05449  -5191743.67749  24655592.1384   24655600.9324
  23682887.900    17509198.40449  13633613.24149  23682890.1994   23682896.7734
 96  2 21 18 11 30.0010000  0  8 19 29 31 22 18 28 27 14
  21955028.349   -13085176.51949 -10188012.11549  21955029.0964   21955035.4174
  21160615.684     1107711.29349    865410.41549  21160617.1594   21160622.5414
  24109241.055    -8207428.47749  -6374931.98649  24109241.5074   24109249.0914
  24032787.195    14716306.75549  11463254.37949  24032787.6674   24032794.1844
  20723054.780   -10826370.73749  -8426509.13349  20723055.2024   20723060.6704
  23999705.246    -9331344.374 9  -7257520.922 9  23999706.159    23999712.431
  24641897.373    -6750910.50949  -5247826.03849  24641897.2314   24641905.1814
  23704796.850    17624325.46649  13723322.56049  23704798.2324   23704806.3924
 96  2 21 18 12  0.0010000  0  8 19 29 31 22 18 28 27 14
  21946750.843   -13128671.11649 -10221903.98949  21946752.3804   21946758.2974
  21167925.831     1146125.72749    895343.72849  21167927.4204   21167932.3064
  24094010.926    -8287463.57549  -6437296.95649  24094011.7474   24094018.0744
  24053235.866    14823764.78549  11546987.85649  24053235.8704   24053242.6674
  20718244.337   -10851645.65649  -8446203.87249  20718245.4174   20718251.2284
  23991953.312    -9372084.129 9  -7289266.162 9  23991953.388    23991959.615
  24628218.808    -6822788.89149  -5303835.12949  24628217.5204   24628225.8394
  23726729.114    17739577.89649  13813129.58849  23726730.4094   23726739.6194
 96  2 21 18 12 30.0010000  0  8 19 29 31 22 18 28 27 14
  21938509.226   -13171982.29549 -10255652.93949  21938510.6364   21938516.5904
  21175307.541     1184915.07549    925569.18049  21175308.7064   21175313.8754
  24078799.567    -8367394.12149  -6499580.43149  24078800.7604   24078808.2224
  24073721.685    14931417.29149  11630872.88349  24073722.0604   24073728.3144
  20713511.169   -10876520.01149  -8465586.48049  20713512.0154   20713517.7084
  23984275.767    -9412432.135 9  -7320706.149 9  23984275.772    23984281.987
  24614556.076    -6894583.26849  -5359778.74749  24614556.6914   24614563.6444
  23748685.986    17854954.32949  13903033.22749  23748685.1344   23748692.7754
 96  2 21 18 13  0.0010000  0  8 19 29 31 22 18 28 27 14
  21930303.699   -13215100.95849 -10289251.87149  21930305.0774   21930311.3634
  21182760.848     1224080.83949    956087.94149  21182761.5804   21182766.9264
  24063614.002    -8447207.22149  -6561772.38549  24063613.9924   24063620.8424
  24094240.896    15039250.30349  11714898.55649  24094241.3644   24094248.7254
  20708851.293   -10901009.52549  -8484669.21649  20708851.7824   20708857.3244
  23976673.140    -9452385.887 9  -7351838.938 9  23976672.578    23976678.638
  24600909.305    -6966295.11549  -5415658.07349  24600910.6614   24600918.0234
  23770665.728    17970466.83949  13993042.90149  23770666.9014   23770674.9684
 96  2 21 18 13 30.0010000  0  8 19 29 31 22 18 28 27 14
  21922133.700   -13258034.11349 -10322706.24849  21922135.3524   21922141.6454
  21190284.294     1263619.64349    986897.38449  21190285.6004   21190290.7684
  24048449.313    -8526889.04349  -6623862.07349  24048451.2304   24048456.0554
  24114795.963    15147258.39849  11799060.66049  24114795.4114   24114802.4364
  20704260.631   -10925132.99249  -8503466.71749  20704261.3414   20704266.9054
  23969144.048    -9491943.637 9  -7382663.157 9  23969144.811    23969150.892
  24587275.219    -7037939.23749  -5471484.64449  24587276.4304   24587285.0044
  23792671.062    18086102.00049  14083148.16649  23792671.0314   23792679.5324
 96  2 21 18 14  0.0010000  0  8 19 29 31 22 18 28 27 14
  21914003.144   -13300764.54749 -10356002.66849  21914004.0524   21914010.3084
  21197879.051     1303531.25349   1017997.32249  21197880.5514   21197885.9624
  24033315.059    -8606416.77349  -6685831.68249  24033315.6844   24033323.9184
  24135378.677    15255427.67349  11883348.35149  24135379.6704   24135385.8124
  20699739.483   -10948890.52749  -8521979.07749  20699740.4114   20699746.1544
  23961693.748    -9531104.819 9  -7413178.367 9  23961693.261    23961698.835
  24573651.358    -7109533.78449  -5527272.53249  24573652.8184   24573660.1354
  23814698.200    18201853.51949  14173344.07949  23814699.1254   23814706.5204
 96  2 21 18 14 30.0010000  0  8 19 29 31 22 18 28 27 14
  21905910.471   -13343291.87249 -10389140.82349  21905911.2784   21905917.5654
  21205545.407     1343817.43449   1049389.13049  21205546.7754   21205552.0224
  24018216.490    -8685772.64349  -6747667.33149  24018216.2794   24018222.2894
  24155992.114    15363748.53649  11967754.17949  24155992.0384   24155998.4914
  20695289.355   -10972275.80649  -8540201.36149  20695290.3984   20695296.1044
  23954315.901    -9569868.315 9  -7443383.682 9  23954316.059    23954322.678
  24560036.730    -7181085.28849  -5583026.90449  24560036.8944   24560044.0694
  23836747.726    18317735.67349  14263641.77549  23836750.8784   23836758.2854
 96  2 21 18 15  0.0010000  0  8 19 29 31 22 18 28 27 14
  21897853.956   -13385626.34249 -10422128.71049  21897855.4984   21897861.2054
  21213286.671     1384495.32349   1081086.17349  21213287.5584   21213292.9894
  24003148.560    -8764942.71449  -6809358.25349  24003150.6644   24003157.5534
  24176635.386    15472229.09849  12052284.43249  24176635.8994   24176642.8124
  20690913.609   -10995275.54449  -8558123.23049  20690913.6224   20690919.0214
  23947015.671    -9608229.004 9  -7473275.105 9  23947016.809    23947022.642
  24546429.106    -7252588.70449  -5638743.78749  24546430.0854   24546437.9724
  23858824.803    18433748.19449  14354041.08549  23858825.9884   23858834.7274
 96  2 21 18 15 30.0010000  0  8 19 29 31 22 18 28 27 14
  21889840.188   -13427739.25449 -10454943.95749  21889841.5124   21889847.7554
  21221103.990     1425577.38949   1113098.15849  21221105.2354   21221110.6804
  23988124.559    -8843901.11749  -6870884.26549  23988124.5134   23988130.2184
  24197310.414    15580878.67349  12136946.37449  24197310.5834   24197317.7604
  20686612.522   -11017873.24249  -8575731.82049  20686613.3814   20686619.1384
  23939794.545    -9646174.037 9  -7502842.667 9  23939795.979    23939801.926
  24532833.681    -7324038.12749  -5694418.59949  24532833.4184   24532842.1064
  23880928.269    18549892.66649  14444543.19149  23880928.5884   23880936.2114
 96  2 21 18 16  0.0010000  0  8 19 29 31 22 18 28 27 14
  21881867.525   -13469636.48949 -10487591.13949  21881868.9954   21881874.8424
  21228995.479     1467046.52449   1145411.75549  21228996.6474   21229001.9294
  23973137.406    -8922658.47049  -6932253.51449  23973138.1844   23973145.5804
  24218013.886    15689674.63949  12221722.40949  24218014.2554   24218020.4384
  20682388.194   -11040072.14349  -8593029.66349  20682389.0204   20682394.8804
  23932651.123    -9683712.058 9  -7532093.066 9  23932652.498    23932659.259
  24519247.434    -7395430.99649  -5750049.35749  24519249.0514   24519255.3104
  23903052.715    18666160.95549  14535141.78749  23903052.4394   23903060.7714
 96  2 21 18 16 30.0010000  0  8 19 29 31 22 18 28 27 14
  21873932.007   -13511337.87049 -10520085.70249  21873933.2474   21873939.0824
  21236959.094     1508896.73549   1178022.29549  21236960.2964   21236965.5194
  23958182.252    -9001234.30549  -6993481.37149  23958184.2504   23958191.1034
  24238745.539    15798616.03649  12306611.77649  24238744.7974   24238750.5064
  20678238.672   -11061877.79949  -8610021.07849  20678239.4694   20678245.2394
  23925588.956    -9720841.008 9  -7561024.714 9  23925587.795    23925593.153
  24505674.019    -7466763.52949  -5805633.10149  24505673.7204   24505681.0954
  23925197.002    18782531.36249  14625819.94349  23925198.4604   23925204.7354
 96  2 21 18 17  0.0010000  0  8 19 29 31 22 18 28 27 14
  21866034.360   -13552842.26849 -10552426.76849  21866035.2144   21866041.0374
  21244997.686     1551139.31549   1210938.58049  21244998.7414   21245004.1064
  23943262.792    -9079646.66549  -7054581.89549  23943263.8564   23943270.0324
  24259503.018    15907716.78449  12391625.29449  24259505.9064   24259512.7054
  20674163.263   -11083294.22549  -8626709.20149  20674164.2544   20674169.7104
  23918599.743    -9757555.126 9  -7589633.110 9  23918600.643    23918607.004
  24492113.011    -7538023.03549  -5861159.92849  24492113.3714   24492121.1454
  23947355.516    18898977.81049  14716557.35949  23947357.4324   23947366.0794
 96  2 21 18 17 30.0010000  0  8 19 29 31 22 18 28 27 14
  21858174.062   -13594145.02949 -10584610.72149  21858175.4464   21858181.5284
  21253106.860     1593754.54849   1244145.24549  21253108.3004   21253113.4774
  23928366.654    -9157926.30749  -7115578.96249  23928367.4934   23928374.4404
  24280295.239    16016967.24349  12476755.49049  24280295.4814   24280302.3054
  20670160.148   -11104329.95949  -8643100.68049  20670160.9544   20670166.6034
  23911692.151    -9793861.252 9  -7617923.599 9  23911692.238    23911697.916
  24478565.517    -7609215.25649  -5916634.30949  24478566.5504   24478574.6374
  23969528.874    19015484.99649  14807342.10149  23969528.4454   23969536.3384
 96  2 21 18 18  0.0010000  0  8 19 29 31 22 18 28 27 14
  21850350.136   -13635262.25849 -10616650.11349  21850351.2444   21850357.6264
  21261286.909     1636739.53549   1277640.02049  21261288.1494   21261293.2224
  23913492.459    -9236093.57249  -7176488.46349  23913492.7804   23913499.1354
  24301114.964    16126373.28249  12562006.90049  24301115.2224   24301121.0354
  20666231.042   -11124979.88449  -8659191.53149  20666231.6794   20666237.0544
  23904861.442    -9829757.796 9  -7645894.938 9  23904861.376    23904867.102
  24465029.172    -7680345.18949  -5972060.16249  24465031.3284   24465040.3194
  23991709.835    19132051.41449  14898172.96049  23991709.6964   23991717.7024
 96  2 21 18 18 30.0010000  0  8 19 29 31 22 18 28 27 14
  21842564.062   -13676178.97849 -10648533.26049  21842565.1944   21842571.2224
  21269542.802     1680125.12849   1311446.96049  21269543.9894   21269549.3244
  23898642.993    -9314133.17049  -7237298.48749  23898642.6004   23898649.0904
  24321969.888    16235966.03449  12647403.80949  24321969.6774   24321977.1244
  20662377.467   -11145229.02049  -8674970.07449  20662378.2624   20662383.7974
  23898110.582    -9865227.274 9  -7673533.476 9  23898111.356    23898117.783
  24451507.296    -7751406.58049  -6027432.58649  24451508.3304   24451515.7344
  24013907.488    19248703.90949  14989070.93049  24013909.0614   24013916.7794
 96  2 21 18 19  0.0010000  0  8 19 29 31 22 18 28 27 14
  21834817.577   -13716883.92149 -10680251.38649  21834818.8264   21834825.1324
  21277874.330     1723909.68149   1345564.78249  21277876.0904   21277881.3464
  23883818.978    -9392024.60249  -7297993.09749  23883819.4264   23883827.1274
  24342859.015    16345746.79149  12732947.20849  24342860.1184   24342867.0554
  20658601.202   -11165072.30849  -8690432.37849  20658602.3884   20658607.6524
  23891440.852    -9900268.080 9  -7700837.974 9  23891443.144    23891449.572
  24437999.896    -7822389.57849  -6082743.97049  24438001.0744   24438008.5064
  24036123.726    19365460.63049  15080050.12549  24036127.0124   24036132.6174
 96  2 21 18 19 30.0010000  0  8 19 29 31 22 18 28 27 14
  21827108.964   -13757394.31549 -10711817.91849  21827109.9254   21827116.2834
  21286276.491     1768062.38249   1379969.46749  21286277.9004   21286283.0194
  23869025.604    -9469770.68449  -7358574.39349  23869025.2114   23869031.4404
  24363779.202    16455682.20449  12818611.13649  24363781.6514   24363787.6524
  20654900.925   -11184520.69249  -8705586.96249  20654901.3154   20654906.7124
  23884854.523    -9934894.048 9  -7727819.241 9  23884854.630    23884860.299
  24424504.534    -7893309.18349  -6138005.93149  24424505.5794   24424512.8284
  24058363.221    19482324.61149  15171112.85649  24058365.0314   24058372.0234
 96  2 21 18 20  0.0010000  0  8 19 29 31 22 18 28 27 14
  21819434.381   -13797722.51849 -10743242.47749  21819435.9774   21819442.0594
  21294750.571     1812594.15249   1414669.53149  21294752.0354   21294757.1484
  23854261.308    -9547351.39249  -7419026.87849  23854262.5284   23854269.7224
  24384725.193    16565763.09949  12904388.40449  24384727.5324   24384735.0634
  20651276.085   -11203566.94749  -8720428.20349  20651276.8374   20651282.4874
  23878343.194    -9969100.588 9  -7754473.674 9  23878345.041    23878351.108
  24411023.890    -7964148.48249  -6193205.34049  24411024.8294   24411032.1244
  24080622.686    19599302.09449  15262264.06249  24080625.2914   24080632.5784
 96  2 21 18 20 30.0010000  0  8 19 29 31 22 18 28 27 14
  21811796.688   -13837858.52449 -10774517.27049  21811798.3104   21811804.5044
  21303298.301     1857511.02449   1449669.67649  21303299.7094   21303305.0574
  23839530.809    -9624749.46649  -7479337.02249  23839533.2394   23839540.1994
  24405703.032    16675980.57549  12990272.11249  24405701.3474   24405709.4584
  20647728.653   -11222209.07249  -8734954.53449  20647729.5994   20647735.2184
  23871918.268   -10002878.175 9  -7780793.850 9  23871917.684    23871923.040
  24397564.937    -8034877.32649  -6248318.67649  24397565.3264   24397572.4074
  24102906.554    19716391.04349  15353502.12949  24102907.2904   24102913.1794
 96  2 21 18 21  0.0010000  0  8 19 29 31 22 18 28 27 14
  21804195.520   -13877801.86349 -10805641.93149  21804197.0594   21804203.5524
  21311915.266     1902794.52549   1484955.50749  21311916.6434   21311922.1114
  23824839.378    -9701968.58349  -7539507.74049  23824839.5904   23824846.0484
  24426695.766    16786314.38549  13076246.45649  24426696.9844   24426704.4054
  20644259.258   -11240438.92849  -8749159.62549  20644260.3444   20644265.7934
  23865569.336   -10036228.716 9  -7806781.266 9  23865570.869    23865576.732
  24384125.662    -8105496.78649  -6303346.75149  24384126.4534   24384134.4664
  24125200.994    19833556.63949  15444799.88649  24125201.1384   24125213.1924
 96  2 21 18 21 30.0010000  0  8 19 29 31 22 18 28 27 14
  21796633.064   -13917545.22049 -10836610.76349  21796634.1734   21796640.2964
  21320603.604     1948452.02849   1520532.76949  21320605.1484   21320610.5244
  23810176.850    -9779008.67049  -7599538.94049  23810178.4494   23810185.6864
  24447717.241    16896763.37849  13162310.55349  24447715.6684   24447722.2744
  20640869.910   -11258249.51249  -8763038.00349  20640871.0984   20640876.3934
  23859306.759   -10069143.560 9  -7832429.168 9  23859307.170    23859313.162
  24370707.334    -8176012.94849  -6358294.35949  24370708.6304   24370715.3494
  24147509.145    19950790.37049  15536150.74849  24147509.5324   24147518.4234
 96  2 21 18 22  0.0010000  0  8 19 29 31 22 18 28 27 14
  21789107.688   -13957090.64249 -10867425.36749  21789109.0814   21789115.1894
  21329365.978     1994498.90349   1556413.43549  21329367.6234   21329372.8954
  23795553.542    -9855865.06849  -7659427.04349  23795553.7884   23795561.9334
  24468755.774    17007336.39149  13248471.28449  24468756.4104   24468763.6954
  20637559.339   -11275645.87649  -8776593.61549  20637560.9334   20637566.2144
  23853126.910   -10101625.184 9  -7857739.508 9  23853126.196    23853132.435
  24357305.348    -8246440.30149  -6413172.77149  24357306.0734   24357314.6174
  24169830.253    20068074.65349  15627541.00249  24169831.2494   24169839.6074
 96  2 21 18 22 30.0010000  0  8 19 29 31 22 18 28 27 14
  21781621.968   -13996428.23449 -10898078.01349  21781623.4474   21781629.5584
  21338205.883     2040953.38349   1592611.71949  21338207.3454   21338212.8244
  23780966.167    -9932522.54149  -7719160.10749  23780966.2774   23780972.1464
  24489826.751    17118054.29949  13334744.93649  24489825.1324   24489832.8444
  20634329.236   -11292624.69349  -8789823.86649  20634329.5354   20634335.2124
  23847027.354   -10133668.448 9  -7882708.269 9  23847028.435    23847034.405
  24343914.314    -8316806.46149  -6468003.48949  24343916.0604   24343922.6544
  24192157.819    20185403.03649  15718965.66049  24192156.0874   24192165.5094
 96  2 21 18 23  0.0010000  0  8 19 29 31 22 18 28 27 14
  21774175.695   -14035559.03849 -10928569.53749  21774176.8804   21774183.0514
  21347126.479     2087830.96549   1629139.68649  21347128.0814   21347133.5684
  23766417.963   -10008962.22249  -7778723.45749  23766420.1144   23766427.6354
  24510925.583    17228932.32349  13421143.34649  24510925.6804   24510931.6854
  20631179.182   -11309175.69849  -8802720.75549  20631180.3794   20631186.1354
  23841015.212   -10165265.404 9  -7907329.253 9  23841015.990    23841022.160
  24330532.955    -8387128.96949  -6522800.20049  24330533.9074   24330541.1334
  24214487.869    20302779.98149  15810428.09049  24214492.7744   24214501.0574
 96  2 21 18 23 30.0010000  0  8 19 29 31 22 18 28 27 14
  21766762.796   -14074516.00649 -10958925.59749  21766763.5194   21766769.9034
  21356126.852     2135129.84249   1665995.93549  21356128.7914   21356134.3334
  23751915.393   -10085185.42349  -7838118.13649  23751914.5034   23751921.4884
  24532053.562    17339965.39249  13507662.55949  24532053.9284   24532060.6404
  20628108.010   -11325317.81549  -8815299.03249  20628108.8994   20628114.1384
  23835085.806   -10196426.852 9  -7931610.890 9  23835086.491    23835092.460
  24317157.917    -8457417.56149  -6577570.48649  24317158.9614   24317165.8314
  24236836.378    20420209.28549  15901931.37149  24236839.7674   24236846.3184
 96  2 21 18 24  0.0010000  0  8 19 29 31 22 18 28 27 14
  21759383.157   -14113294.92249 -10989142.92049  21759384.3634   21759390.4644
  21365212.641     2182873.14649   1703198.48949  21365214.0084   21365219.4174
  23737456.194   -10161168.22949  -7897325.48549  23737456.9504   23737462.5034
  24553214.664    17451171.84549  13594316.87949  24553216.1074   24553223.9364
  20625119.140   -11341022.26049  -8827536.26749  20625119.9934   20625125.7284
  23829241.220   -10227134.335 9  -7955538.785 9  23829242.405    23829248.949
  24303793.389    -8527645.48549  -6632293.50749  24303794.5034   24303801.2074
  24259199.173    20537712.54749  15993492.26149  24259199.0544   24259208.3834
 96  2 21 18 24 30.0010000  0  8 19 29 31 22 18 28 27 14
  21752032.133   -14151921.73549 -11019241.71349  21752033.5514   21752039.9504
  21374373.352     2231013.43649   1740710.38349  21374374.7234   21374380.4384
  23723036.867   -10236935.66249  -7956365.02649  23723038.0564   23723045.3514
  24574404.112    17562514.02849  13681076.94849  24574404.4724   24574411.6284
  20622209.947   -11356310.53049  -8839449.20749  20622210.9614   20622216.5634
  23823480.387   -10257407.582 9  -7979128.322 9  23823481.555    23823488.036
  24290439.884    -8597822.03549  -6686976.49549  24290440.5104   24290448.7504
  24281565.245    20655259.22649  16085086.94749  24281569.2854   24281576.1144
 96  2 21 18 25  0.0010000  0  8 19 29 31 22 18 28 27 14
  21744711.824   -14190388.57149 -11049215.84649  21744713.7854   21744719.9964
  21383605.899     2279530.91949   1778516.19449  21383607.3064   21383612.9674
  23708660.498   -10312488.58949  -8015237.36149  23708661.2714   23708667.7474
  24595615.197    17673975.63549  13767930.09349  24595614.0774   24595622.1934
  20619381.275   -11371176.54849  -8851033.12249  20619382.2274   20619387.5234
  23817804.327   -10287234.038 9  -8002369.729 9  23817805.686    23817812.241
  24277099.301    -8667917.70449  -6741596.43449  24277101.0994   24277108.9154
  24303945.888    20772873.12049  16176734.03949  24303948.2304   24303955.8964
 96  2 21 18 25 30.0010000  0  8 19 29 31 22 18 28 27 14
  21737426.635   -14228676.95049 -11079050.92749  21737427.5894   21737434.1564
  21392908.525     2328414.87749   1816607.56749  21392909.7534   21392915.1674
  23694323.814   -10387827.84249  -8073943.24249  23694323.8584   23694331.1204
  24616845.933    17785548.27649  13854869.76249  24616846.7054   24616853.1094
  20616633.034   -11385616.08249  -8862284.70749  20616634.0024   20616639.6264
  23812215.631   -10316607.312 9  -8025257.987 9  23812216.100    23812222.520
  24263779.111    -8737918.96549  -6796142.83449  24263780.6504   24263789.1804
  24326344.714    20890568.39749  16268444.59549  24326345.8994   24326354.1264
 96  2 21 18 26  0.0010000  0  8 19 29 31 22 18 28 27 14
  21730180.529   -14266751.63849 -11108719.49149  21730182.0914   21730188.7114
  21402279.648     2377664.05049   1854983.52349  21402281.7074   21402287.0744
  23680027.641   -10462946.18449  -8132476.98249  23680029.9944   23680036.4524
  24638095.297    17897220.92249  13941887.32549  24638096.5824   24638103.9744
  20613965.646   -11399634.61649  -8873208.23949  20613966.6114   20613972.2724
  23806712.446   -10345523.526 9  -8047790.106 9  23806713.478    23806719.683
  24250474.020    -8807840.78549  -6850627.32849  24250475.4044   24250481.7574
  24348754.829    21008331.52349  16360207.94349  24348757.0274   24348763.6184
 96  2 21 18 26 30.0010000  0  8 19 29 31 22 18 28 27 14
  21722975.431   -14304618.20849 -11138225.89349  21722976.2304   21722982.8914
  21411715.435     2427247.27449   1893619.78049  21411716.9064   21411722.4794
  23665775.122   -10537855.81149  -8190848.06449  23665774.9594   23665781.9234
  24659360.154    18008955.42149  14028953.12849  24659359.7284   24659366.1744
  20611371.258   -11413264.94549  -8883829.27149  20611372.8234   20611378.2194
  23801293.679   -10374001.764 9  -8069980.951 9  23801294.759    23801300.871
  24237177.441    -8877717.98949  -6905077.08349  24237178.1584   24237185.6674
  24371171.207    21126131.41549  16451999.95349  24371169.9224   24371180.4414
 96  2 21 18 27  0.0010000  0  8 19 29 31 22 18 28 27 14
  21715813.615   -14342253.46149 -11167552.05249  21715814.7494   21715821.0464
  21421221.699     2477205.17249   1932547.98849  21421223.4944   21421228.9574
  23651563.083   -10612535.38249  -8249039.90249  23651563.6054   23651570.2794
  24680634.650    18120767.48449  14116079.35549  24680636.4604   24680643.3334
  20608855.979   -11426483.54649  -8894129.47749  20608857.2684   20608862.7714
  23795960.180   -10402023.848 9  -8091816.353 9  23795962.132    23795968.110
  24223888.759    -8947547.62649  -6959489.75449  24223889.7354   24223897.0074
  24393598.375    21243990.58849  16543838.18249  24393599.6174   24393608.5194
 96  2 21 18 27 30.0010000  0  8 19 29 31 22 18 28 27 14
  21708695.203   -14379658.06149 -11196698.48149  21708696.8384   21708703.0934
  21430803.593     2527559.32449   1971784.97149  21430805.6874   21430811.1564
  23637399.548   -10686964.97749  -8307036.93249  23637400.7304   23637407.7284
  24701928.823    18232674.12149  14203279.25949  24701931.3594   24701939.5124
  20606421.710   -11439279.79849  -8904100.57949  20606422.4744   20606427.9964
  23790717.994   -10429581.799 9  -8113290.089 9  23790718.270    23790724.302
  24210610.056    -9017329.36349  -7013865.11049  24210610.1804   24210617.3754
  24416033.906    21361889.93349  16635707.66249  24416035.9194   24416044.6214
 96  2 21 18 28  0.0010000  0  8 19 29 31 22 18 28 27 14
  21701615.154   -14416866.16049 -11225691.79749  21701616.3254   21701622.8634
  21440459.903     2578299.03449   2011322.38949  21440461.1494   21440466.4114
  23623280.288   -10761154.33649  -8364846.78149  23623281.4474   23623288.9644
  24723242.731    18344670.45049  14290549.04549  24723243.8184   24723250.9394
  20604064.561   -11451662.02549  -8913749.06349  20604065.9194   20604071.8674
  23785560.126   -10456686.206 9  -8134410.404 9  23785560.514    23785566.727
  24197337.806    -9087071.39549  -7068209.49749  24197339.2594   24197345.8884
  24438469.630    21479799.72049  16727585.38649  24438472.5204   24438483.5854
 96  2 21 18 28 30.0010000  0  8 19 29 31 22 18 28 27 14
  21694570.025   -14453890.28849 -11254541.75749  21694571.1014   21694577.0664
  21450191.914     2629440.85249   2051173.13749  21450193.0644   21450198.4594
  23609210.400   -10835104.29849  -8422470.12849  23609210.4004   23609216.3754
  24744578.431    18456778.59349  14377905.99149  24744577.2524   24744584.9034
  20601791.423   -11463607.09649  -8923056.90449  20601793.0284   20601798.5934
  23780490.902   -10483317.940 9  -8155162.411 9  23780492.335    23780498.596
  24184082.285    -9156729.65749  -7122488.63849  24184084.1284   24184090.4614
  24460913.595    21597740.73449  16819487.33549  24460916.4414   24460925.8044
 96  2 21 18 29  0.0010000  0  8 19 29 31 22 18 28 27 14
  21687556.179   -14490744.11049 -11283259.02149  21687557.8444   21687564.1044
  21459999.781     2680981.15849   2091334.39649  21460000.9104   21460006.3414
  23595179.207   -10908828.94149  -8479917.83149  23595180.5514   23595188.3274
  24765931.623    18569009.95949  14465358.94149  24765934.5584   24765940.9464
  20599599.860   -11475126.94149  -8932033.40849  20599600.8684   20599606.6364
  23775514.037   -10509477.732 9  -8175546.669 9  23775514.211    23775520.755
  24170845.175    -9226294.86849  -7176695.28049  24170846.1684   24170852.2834
  24483367.939    21715712.82849  16911413.55949  24483365.9594   24483375.8564
 96  2 21 18 29 30.0010000  0  8 19 29 31 22 18 28 27 14
  21680572.408   -14527444.78249 -11311856.93349  21680574.0284   21680579.9544
  21469877.349     2732893.55949   2131785.59649  21469879.4734   21469884.9554
  23581193.178   -10982338.03549  -8537197.64649  23581193.4774   23581199.1344
  24787314.488    18681362.14149  14552906.03649  24787313.2004   24787321.9994
  20597488.154   -11486225.17049  -8940681.37649  20597488.7884   20597494.7734
  23770623.849   -10535172.035 9  -8195568.203 9  23770624.825    23770631.364
  24157626.612    -9295757.01149  -7230821.58649  24157627.4954   24157634.8904
  24505814.344    21833699.70349  17003351.23449  24505819.4664   24505823.4304
 96  2 21 18 30  0.0010000  0  8 19 29 31 22 18 28 27 14
  21673620.639   -14563978.40149 -11340324.67749  21673622.0384   21673627.9684
  21479828.010     2785178.92749   2172527.42749  21479829.0724   21479834.5434
  23567240.185   -11055647.69749  -8594322.04149  23567242.0364   23567249.3254
  24808713.805    18793817.13949  14640533.24049  24808713.4554   24808720.7934
  20595458.846   -11496887.87749  -8948989.97849  20595459.8954   20595465.6724
  23765821.180   -10560402.549 9  -8215228.333 9  23765823.826    23765830.064
  24144430.083    -9365107.57749  -7284860.93749  24144430.2184   24144437.1254
  24528273.640    21951701.63049  17095300.68149  24528273.2534   24528279.8524
 96  2 21 18 30 30.0010000  0  8 19 29 31 22 18 28 27 14
  21666706.122   -14600315.37449 -11368639.18649  21666707.1614   21666713.5404
  21489851.885     2837858.23049   2213576.21549  21489853.6564   21489859.1474
  23553334.443   -11128732.66149  -8651271.34049  23553335.2454   23553342.0614
  24830131.129    18906371.96049  14728238.27049  24830132.9854   24830140.1434
  20593514.813   -11507103.88949  -8956950.51249  20593515.6084   20593521.3064
  23761112.073   -10585155.842 9  -8234516.582 9  23761113.243    23761119.606
  24131254.859    -9434340.14049  -7338808.34949  24131255.5454   24131263.6704
  24550733.561    22069732.34649  17187272.53849  24550733.8054   24550742.7254
 96  2 21 18 31  0.0010000  0  8 19 29 31 22 18 28 27 14
  21659829.273   -14636451.34749 -11396797.07849  21659830.7484   21659837.1164
  21499950.561     2890927.72449   2254929.04149  21499952.5254   21499957.8924
  23539471.532   -11201569.30349  -8708027.16849  23539473.2494   23539480.2874
  24851568.016    19019022.80949  14816018.15049  24851568.3144   24851573.3454
  20591658.374   -11516857.10949  -8964550.43049  20591659.8194   20591665.3964
  23756492.601   -10609433.680 9  -8253434.359 9  23756493.411    23756499.552
  24118098.665    -9503473.08149  -7392678.11849  24118100.6954   24118107.0834
  24573196.167    22187787.89949  17279263.76049  24573200.2524   24573208.0344
 96  2 21 18 31 30.0010000  0  8 19 29 31 22 18 28 27 14
  21652988.925   -14672395.93049 -11424805.83449  21652990.6774   21652996.9604
  21510124.199     2944385.05149   2296584.08349  21510125.0574   21510130.5354
  23525660.084   -11274163.12849  -8764593.75849  23525661.3104   23525666.7574
  24873021.866    19131755.39549  14903861.71249  24873020.6044   24873027.7834
  20589892.168   -11526140.58749  -8971784.30749  20589893.3204   20589898.9364
  23751961.387   -10633248.438 9  -8271991.282 9  23751961.273    23751967.711
  24104960.545    -9572523.99749  -7446483.98749  24104959.8164   24104966.7744
  24595661.848    22305843.36149  17371254.95549  24595664.8164   24595671.6604
 96  2 21 18 32  0.0010000  0  8 19 29 31 22 18 28 27 14
  21646189.740   -14708124.98149 -11452646.65149  21646191.6064   21646198.0854
  21520375.084     2998258.28449   2338563.20249  21520376.8814   21520382.2624
  23511895.718   -11346487.15949  -8820950.10649  23511897.6904   23511903.5394
  24894491.545    19244574.38559  14991772.58749  24894490.7594   24894496.5364
  20588213.002   -11534964.28049  -8978659.91649  20588214.0674   20588219.7604
  23747520.342   -10656583.885 9  -8290174.719 9  23747521.027    23747527.050
  24091832.028    -9641507.20949  -7500237.08349  24091832.7174   24091840.7204
  24618132.603    22423922.97849  17463264.93049  24618134.6814   24618142.9764
 96  2 21 18 32 30.0010000  0  8 19 29 31 22 18 28 27 14
  21639428.832   -14743656.51949 -11480333.55849  21639430.0654   21639436.9524
  21530702.624     3052531.27949   2380853.82849  21530704.8874   21530710.0284
  23498186.672   -11418537.42549  -8877093.17949  23498187.4684   23498193.3744
  24915977.688    19357490.29049  15079758.96649  24915977.4704   24915984.7344
  20586615.345   -11543360.52349  -8985202.44049  20586616.5854   20586622.0874
  23743170.005   -10679444.488 9  -8307988.138 9  23743170.815    23743176.902
  24078713.551    -9710448.02649  -7553957.14549  24078713.9084   24078722.0234
  24640607.743    22542029.24749  17555295.68349  24640608.6594   24640617.2044
 96  2 21 18 33  0.0010000  0  8 19 29 31 22 18 28 27 14
  21632705.215   -14778984.37849 -11507861.75049  21632707.4834   21632713.8604
  21541107.859     3107207.22449   2423458.44049  21541109.4074   21541114.5124
  23484526.647   -11490318.40749  -8933026.36849  23484526.8274   23484534.8524
  24937486.177    19470525.50349  15167838.31049  24937486.6534   24937493.8854
  20585100.922   -11551318.70049  -8991403.62349  20585102.2064   20585107.4454
  23738913.235   -10701817.334 9  -8325421.482 9  23738913.699    23738919.501
  24065603.973    -9779333.84149  -7607634.34949  24065605.4974   24065612.9874
  24663089.020    22660173.31249  17647355.87849  24663089.7024   24663099.8124
 96  2 21 18 33 30.0010000  0  8 19 29 31 22 18 28 27 14
  21626018.889   -14814122.54149 -11535242.13649  21626021.0884   21626027.5234
  21551586.129     3162269.20049   2466363.85749  21551587.3774   21551592.5734
  23470912.131   -11561859.98649  -8988773.03249  23470913.6964   23470919.0494
  24959012.479    19583640.47349  15255979.83049  24959013.1894   24959018.5264
  20583664.002   -11558870.61049  -8997288.22949  20583664.8884   20583670.5694
  23734744.868   -10723717.473 9  -8342486.485 9  23734745.971    23734751.966
  24052503.044    -9848180.36349  -7661280.93849  24052503.8824   24052511.4904
  24685578.467    22778331.68649  17739427.16649  24685575.8584   24685583.9664
 96  2 21 18 34  0.0010000  0  8 19 29 31 22 18 28 27 14
  21619369.903   -14849066.48149 -11562471.18149  21619371.3734   21619377.7854
  21562137.412     3217717.26949   2509570.12749  21562138.5734   21562143.7424
  23457350.108   -11633132.77949  -9044310.28349  23457349.4514   23457356.9134
  24980552.540    19696833.93349  15344182.50349  24980552.2874   24980559.7544
  20582307.828   -11566000.10949  -9002843.68849  20582308.5454   20582313.8384
  23730669.936   -10745129.275 9  -8359170.956 9  23730671.431    23730677.382
  24039412.818    -9916972.29749  -7714884.98949  24039413.3014   24039421.2174
  24708065.925    22896514.92949  17831517.87249  24708066.3614   24708075.1714
 96  2 21 18 34 30.0010000  0  8 19 29 31 22 18 28 27 14
  21612757.133   -14883819.22649 -11589551.23849  21612758.0834   21612764.3734
  21572760.024     3273543.03149   2553070.70649  21572761.8704   21572767.3164
  23443840.885   -11704130.33349  -9099632.99349  23443840.9474   23443846.7984
  25002108.377    19810113.14949  15432451.97949  25002109.1434   25002115.6944
  20581037.042   -11572673.67349  -9008043.87449  20581038.5304   20581043.8884
  23726689.991   -10766048.266 9  -8375471.421 9  23726690.337    23726696.946
  24026337.686    -9985676.12649  -7768420.38949  24026339.6544   24026347.1274
  24730555.081    23014701.96649  17923611.56449  24730555.9014   24730562.8644
 96  2 21 18 35  0.0010000  0  8 19 29 31 22 18 28 27 14
  21606178.933   -14918387.02649 -11616487.18249  21606180.1704   21606186.4854
  21583454.785     3329743.04149   2596862.90649  21583456.2364   21583461.7094
  23430381.217   -11774849.09649  -9154738.52749  23430382.4284   23430388.0494
  25023674.118    19923439.56749  15520758.22849  25023673.9894   25023681.5404
  20579856.391   -11578883.63249  -9012882.80749  20579856.8674   20579862.5014
  23722801.210   -10786485.924 9  -8391396.828 9  23722801.152    23722807.505
  24013280.376   -10054296.78549  -7821890.99549  24013281.8814   24013289.1614
  24753041.198    23132861.30649  18015683.60449  24753041.3944   24753049.4784
 96  2 21 18 35 30.0010000  0  8 19 29 31 22 18 28 27 14
  21599637.749   -14952760.03549 -11643271.34349  21599639.3404   21599645.4804
  21594221.564     3386322.60449   2640950.85249  21594222.8404   21594228.5654
  23416984.485   -11845254.58349  -9209599.90049  23416985.5714   23416992.6354
  25045246.779    20036800.92449  15609091.67849  25045245.7184   25045253.3214
  20578761.645   -11584632.21749  -9017362.22749  20578762.6934   20578768.2094
  23719003.562   -10806437.970 9  -8406943.831 9  23719004.683    23719010.781
  24000237.251   -10122837.30349  -7875299.15149  24000238.6754   24000246.5664
  24775517.626    23250989.92149  18107731.74449  24775521.4884   24775529.3174
 96  2 21 18 36  0.0010000  0  8 19 29 31 22 18 28 27 14
  21593137.210   -14986920.28849 -11669889.71649  21593138.4924   21593145.0084
  21605062.642     3443291.60949   2685342.27049  21605063.8624   21605069.6054
  23403650.688   -11915326.65049  -9264201.48249  23403651.2644   23403657.2694
  25066829.570    20150230.37749  15697478.22049  25066830.3474   25066837.8924
  20577757.227   -11589915.53449  -9021479.10049  20577757.4604   20577762.7414
  23715302.011   -10825895.209 9  -8422105.277 9  23715301.746    23715307.981
  23987211.858   -10191291.85449  -7928640.31549  23987211.9354   23987219.4404
  24797996.693    23369100.71249  18199765.94649  24797996.8484   24798003.8844
 96  2 21 18 36 30.0010000  0  8 19 29 31 22 18 28 27 14
  21586679.078   -15020856.30149 -11696333.36249  21586680.7274   21586686.9284
  21615978.897     3500659.40449   2730044.42749  21615980.7344   21615986.3364
  23390375.607   -11985077.77449  -9318553.00049  23390377.0104   23390383.2214
  25088428.331    20263720.19449  15785911.78649  25088428.0824   25088434.7484
  20576836.190   -11594747.88749  -9025244.57449  20576837.7924   20576843.5394
  23711693.436   -10844856.912 9  -8436880.602 9  23711693.501    23711699.725
  23974198.461   -10259681.71449  -7981931.07849  23974198.4444   23974204.3684
  24820469.201    23487201.39849  18291792.31749  24820471.1834   24820477.5744
 96  2 21 18 37  0.0010000  0  8 19 29 31 22 18 28 27 14
  21580262.004   -15054579.63049 -11722611.27249  21580263.5834   21580269.9304
  21626970.133     3558419.05249   2775051.93049  21626971.9084   21626977.6304
  23377164.149   -12054515.67249  -9372660.41949  23377164.2614   23377171.1194
  25110031.998    20377253.95249  15874379.60849  25110032.8744   25110040.0944
  20575999.408   -11599147.01349  -9028672.46449  20576000.7124   20576006.2144
  23708177.289   -10863328.138 9  -8451273.735 9  23708178.372    23708184.438
  23961190.246   -10328033.42349  -8035192.12649  23961191.2844   23961198.4814
  24842941.330    23605294.75249  18383812.98349  24842943.1544   24842952.2004
 96  2 21 18 37 30.0010000  0  8 19 29 31 22 18 28 27 14
  21573883.655   -15088094.62849 -11748726.84149  21573885.9224   21573892.1264
  21638036.631     3616572.45149   2820366.24949  21638038.2934   21638043.9844
  23364007.868   -12123646.11449  -9426528.25949  23364008.5614   23364015.7954
  25131646.147    20490855.05649  15962899.85349  25131649.9434   25131656.4324
  20575245.394   -11603110.27349  -9031760.72449  20575246.4814   20575251.9764
  23704757.830   -10881302.300 9  -8465279.565 9  23704758.231    23704764.509
  23948189.951   -10396346.37749  -8088422.98249  23948191.3964   23948198.9114
  24865412.982    23723388.80849  18475834.15949  24865414.7884   24865425.6074
 96  2 21 18 38  0.0010000  0  8 19 29 31 22 18 28 27 14
  21567546.409   -15121404.18549 -11774682.32949  21567547.3724   21567553.3994
  21649179.066     3675125.06249   2865991.63949  21649180.4574   21649186.1914
  23350909.386   -12192481.33349  -9480166.09449  23350910.0684   23350916.6974
  25153282.295    20604541.54949  16051486.68749  25153284.0494   25153291.1574
  20574577.948   -11606616.29149  -9034492.69049  20574579.2244   20574584.8684
  23701433.232   -10898768.761 9  -8478889.786 9  23701434.667    23701440.583
  23935200.290   -10464607.04349  -8141613.06949  23935202.2234   23935208.6264
  24887886.122    23841478.80549  18567852.17449  24887886.3234   24887895.4064
 96  2 21 18 38 30.0010000  0  7 19 29 31 18 28 27 14
  21561238.304   -15154551.05549 -11800511.04849  21561239.6794   21561245.9004
  21660389.706     3734039.40849   2911898.90549  21660391.5644   21660397.0954
  23337859.126   -12261053.99549  -9533599.31449  23337860.6154   23337868.1214
  20573993.962   -11609687.33349  -9036885.71349  20573995.2214   20574000.5524
  23698201.316   -10915753.384 9  -8492124.553 9  23698202.062    23698208.436
  23922217.666   -10532827.82649  -8194772.09749  23922220.0354   23922227.2224
  24910349.560    23959524.00149  18659835.27049  24910351.5724   24910358.0544
 96  2 21 18 39  0.0010000  0  7 19 29 31 18 28 27 14
  21554960.957   -15187538.44749 -11826215.50249  21554962.6154   21554968.8674
  21671670.361     3793316.85949   2958089.11049  21671671.6774   21671677.3304
  23324863.269   -12329361.26249  -9586825.74449  23324863.5584   23324868.6454
  20573495.387   -11612309.37049  -9038928.86549  20573496.2084   20573501.4444
  23695061.749   -10932251.111 9  -8504979.921 9  23695062.585    23695069.310
  23909251.909   -10600971.37049  -8247870.94849  23909252.8224   23909259.0924
  24932802.616    24077524.90549  18751783.81249  24932805.9954   24932812.9734
 96  2 21 18 39 30.0010000  0  7 19 29 31 18 28 27 14
  21548717.006   -15220350.43849 -11851783.27449  21548718.5624   21548724.9304
  21683020.767     3852967.05049   3004569.76249  21683022.5824   21683028.5724
  23311913.477   -12397400.91649  -9639843.64649  23311914.4054   23311922.2224
  20573083.780   -11614469.14649  -9040611.81049  20573085.0534   20573090.6284
  23692017.481   -10948249.537 9  -8517446.218 9  23692018.471    23692024.614
  23896304.356   -10669013.35149  -8300890.64249  23896305.0494   23896312.4054
  24955255.215    24195498.14149  18843710.83049  24955255.2604   24955264.7554
 96  2 21 18 40  0.0010000  0  7 19 29 31 18 28 27 14
  21542507.074   -15252982.29549 -11877210.69149  21542508.5874   21542515.1394
  21694442.639     3912988.38849   3051339.61549  21694444.3434   21694450.3494
  23299015.992   -12465178.69049  -9692657.48749  23299018.0744   23299023.6554
  20572759.943   -11616169.01749  -9041936.39049  20572761.2914   20572766.8584
  23689069.344   -10963745.971 9  -8529521.348 9  23689069.585    23689075.854
  23883377.694   -10736940.91049  -8353821.18149  23883378.4604   23883385.2194
  24977699.767    24313447.76949  18935619.42649  24977699.9954   24977707.3234
 96  2 21 18 40 30.0010000  0  7 19 29 31 18 28 27 14
  21536332.806   -15285430.70149 -11902495.16549  21536334.0214   21536340.6634
  21705935.659     3973387.21849   3098403.61249  21705937.6734   21705943.2844
  23286169.789   -12532686.76449  -9745261.20049  23286170.7844   23286177.1294
  20572526.119   -11617400.51749  -9042896.01149  20572527.0624   20572532.6244
  23686214.288   -10978739.376 9  -8541204.523 9  23686216.433    23686222.369
  23870472.909   -10804754.19349  -8406662.67849  23870473.7834   23870480.5744
  25000143.819    24431389.04949  19027521.55049  25000143.8124   25000153.7344
 96  2 21 18 41  0.0010000  0  7 19 29 31 18 28 27 14
  21530194.088   -15317688.43749 -11927631.05949  21530195.5784   21530202.0004
  21717503.193     4034170.96349   3145767.55049  21717504.6684   21717510.4174
  23273377.695   -12599911.44649  -9797644.06449  23273379.3124   23273385.3064
  20572382.222   -11618155.64449  -9043484.42449  20572383.5944   20572389.0374
  23683458.488   -10993228.282 9  -8552494.562 9  23683459.110    23683465.346
  23857586.273   -10872470.70049  -8459428.75849  23857588.2214   23857594.9724
  25022584.796    24549317.52049  19119413.63749  25022586.9134   25022595.4114
 96  2 21 18 41 30.0010000  0  7 19 29 31 18 28 27 14
  21524094.143   -15349741.91449 -11952607.78949  21524095.9364   21524102.4474
  21729143.843     4095342.44149   3193433.61849  21729145.2004   21729150.9344
  23260640.735   -12666837.67749  -9849794.33349  23260642.2014   23260649.5384
  20572328.285   -11618440.87149  -9043706.68449  20572329.4904   20572334.7084
  23680799.011   -11007210.671 9  -8563389.917 9  23680798.651    23680804.562
  23844715.937   -10940110.65949  -8512135.18449  23844717.5724   23844723.1974
  25045019.164    24667214.62049  19211281.24649  25045020.8454   25045031.1464
 96  2 21 18 42  0.0010000  0  7 19 29 31 18 28 27 14
  21518032.919   -15381594.29349 -11977427.82349  21518034.5004   21518040.9904
  21740857.026     4156897.61649   3241398.66649  21740859.0304   21740864.6224
  23247968.431   -12733440.07149  -9901692.31749  23247968.9164   23247974.8384
  20572361.564   -11618263.27549  -9043568.30449  20572363.1144   20572368.4234
  23678232.511   -11020690.335 9  -8573893.527 9  23678233.352    23678239.319
  23831855.530   -11007690.03849  -8564794.40749  23831856.7784   23831863.4984
  25067444.567    24785056.65349  19303106.05649  25067446.4804   25067456.3644
 96  2 21 18 42 30.0010000  0  7 19 29 31 18 28 27 14
  21512011.380   -15413238.77049 -12002085.85449  21512013.0144   21512019.2984
  21752642.788     4218828.61149   3289656.55949  21752643.9764   21752649.6594
  23235360.198   -12799688.85649  -9953314.70949  23235361.3344   23235368.0164
  20572484.121   -11617620.54149  -9043067.47449  20572485.5104   20572491.0814
  23675764.997   -11033661.853 9  -8584001.174 9  23675764.821    23675770.837
  23819007.995   -11075204.70849  -8617403.18949  23819009.1054   23819016.2864
  25089859.705    24902840.66749  19394885.52449  25089859.8634   25089865.1074
 96  2 21 18 43  0.0010000  0  7 19 29 31 18 28 27 14
  21506026.683   -15444685.26749 -12026589.61249  21506028.7534   21506035.2094
  21764496.038     4281120.89949   3338195.98249  21764497.7094   21764503.3424
  23222822.987   -12865585.62649 -10004662.79649  23222823.0054   23222828.5954
  20572689.734   -11616538.12449  -9042224.03949  20572691.2974   20572696.8774
  23673391.138   -11046134.382 9  -8593719.997 9  23673391.579    23673397.522
  23806168.863   -11142673.60649  -8669976.30549  23806169.7794   23806176.9834
  25112257.242    25020551.47849  19486607.99249  25112257.0614   25112268.7934
 96  2 21 18 43 30.0010000  0  7 19 29 31 18 28 27 14
  21500083.824   -15475918.01249 -12050926.81849  21500085.4214   21500091.7884
  21776425.216     4343804.21549   3387040.10749  21776426.2764   21776431.5814
  23210354.199   -12931102.57749 -10055714.91749  23210354.7874   23210360.6044
  20572985.537   -11614987.87649  -9041016.06049  20572986.5504   20572991.8964
  23671117.470   -11058077.394 9  -8603026.216 9  23671119.008    23671124.731
  23793345.896   -11210056.64449  -8722482.52549  23793347.5114   23793354.7274
  25134653.412    25138234.27749  19578308.67949  25134654.0294   25134663.8324
 96  2 21 18 44  0.0010000  0  6 19 29 31 18 28 27
  21494174.494   -15506976.89149 -12075128.53849  21494175.1854   21494181.2264
  21788422.835     4406856.47649   3436171.71249  21788424.4214   21788430.3074
  23197954.855   -12996262.68949 -10106488.99049  23197955.8514   23197961.9864
  20573369.356   -11612973.83049  -9039446.68449  20573370.0624   20573375.2014
  23668944.179   -11069504.631 9  -8611930.522 9  23668944.296    23668950.217
  23780539.088   -11277359.21049  -8774926.04249  23780540.5764   23780547.9904
 96  2 21 18 44 30.0010000  0  6 19 29 31 18 28 27
  21488296.392   -15537862.67049 -12099195.38149  21488297.7654   21488303.8694
  21800494.736     4470294.14549   3485603.63449  21800496.7674   21800502.2014
  23185617.780   -13061083.54949 -10156998.70849  23185620.0234   23185626.0994
  20573842.878   -11610480.21549  -9037503.61649  20573844.3834   20573849.8924
  23666867.784   -11080408.703 9  -8620427.161 9  23666869.359    23666874.995
  23767748.523   -11344572.34349  -8827299.87249  23767749.8744   23767756.7354
 96  2 21 18 45  0.0010000  0  6 19 29 31 18 28 27
  21482449.918   -15568586.54249 -12123136.05749  21482451.3554   21482457.4514
  21812643.292     4534133.77049   3535348.76649  21812644.8514   21812650.5874
  23173347.829   -13125578.12249 -10207254.16149  23173347.5094   23173353.9594
  20574408.900   -11607507.04449  -9035186.86949  20574410.4214   20574415.7144
  23664892.366   -11090792.888 9  -8628518.695 9  23664893.460    23664899.297
  23754973.063   -11411709.05849  -8879614.14549  23754974.0874   23754981.3684
 96  2 21 18 45 30.0010000  0  6 19 29 31 18 28 27
  21476636.886   -15599134.73849 -12146939.84649  21476638.1304   21476644.2474
  21824869.939     4598385.20149   3585414.79149  21824871.5614   21824876.8854
  23161136.459   -13189737.37949 -10257248.34149  23161137.7664   23161144.3474
  20575066.886   -11604049.38649  -9032492.60449  20575068.2204   20575073.6694
  23663017.486   -11100645.371 9  -8636195.913 9  23663018.437    23663024.075
  23742216.753   -11478746.92949  -8931851.42049  23742217.2884   23742224.5834
 96  2 21 18 46  0.0010000  0  6 19 29 31 18 28 27
  21470859.686   -15629490.73049 -12170593.86349  21470861.5284   21470867.7164
  21837173.616     4663040.93649   3635795.85649  21837174.9624   21837180.3864
  23148993.004   -13253559.32849 -10306979.70649  23148992.6784   23149000.2794
  20575816.296   -11600113.24149  -9029425.48849  20575817.2224   20575822.6144
  23661244.128   -11109968.259 9  -8643460.476 9  23661244.287    23661250.007
  23729475.210   -11545702.84849  -8984024.83149  23729475.5114   23729483.0794
 96  2 21 18 46 30.0010000  0  6 19 29 31 18 28 27
  21465123.717   -15659637.63249 -12194084.95149  21465124.8844   21465130.8554
  21849553.441     4728100.62649   3686491.69949  21849555.5964   21849561.0314
  23136913.619   -13317032.66849 -10356439.40549  23136914.4424   23136921.0624
  20576653.393   -11595713.12449  -9025996.83649  20576654.4934   20576660.0184
  23659567.841   -11118769.375 9  -8650318.447 9  23659569.321    23659575.385
  23716747.009   -11612588.31249  -9036143.33649  23716748.4394   23716755.3014
 96  2 21 18 47  0.0010000  0  6 19 29 31 18 28 27
  21459427.592   -15689567.99049 -12217407.30649  21459429.2674   21459435.3854
  21862009.412     4793552.46049   3737493.10149  21862010.4234   21862015.7974
  23124906.036   -13380140.46649 -10405614.30749  23124905.6534   23124912.2674
  20577576.550   -11590861.28749  -9022216.19549  20577577.7984   20577583.5074
  23657992.279   -11127049.909 9  -8656770.784 9  23657993.572    23657999.639
  23704031.425   -11679408.16949  -9088210.73849  23704033.1234   23704039.4704
 96  2 21 18 47 30.0010000  0  6 19 29 31 18 28 27
  21453774.843   -15719271.91249 -12240553.21649  21453776.7904   21453782.8864
  21874536.692     4859387.19249   3788792.87149  21874538.2904   21874544.2264
  23112965.106   -13442878.74749 -10454501.22149  23112967.2494   23112973.5284
  20578587.849   -11585543.75949  -9018072.67749  20578589.4964   20578595.1644
  23656516.888   -11134805.387 9  -8662813.981 9  23656517.681    23656523.729
  23691329.199   -11746158.62649  -9140224.05849  23691330.4404   23691337.0954
 96  2 21 18 48  0.0010000  0  6 19 29 31 18 28 27
  21448165.989   -15748747.73149 -12263521.38549  21448167.8734   21448173.7894
  21887138.425     4925606.28349   3840392.14349  21887139.6264   21887145.1994
  23101100.673   -13505241.10249 -10503095.27649  23101101.1234   23101105.8044
  20579692.865   -11579740.68249  -9013550.80849  20579694.0194   20579699.5004
  23655140.904   -11142034.378 9  -8668446.941 9  23655142.213    23655147.826
  23678641.268   -11812836.90149  -9192181.12449  23678642.3964   23678648.9094
 96  2 21 18 48 30.0010000  0  6 19 29 31 18 28 27
  21442595.728   -15778020.49049 -12286331.33049  21442597.1494   21442603.3104
  21899811.744     4992206.53149   3892288.41849  21899813.2394   21899818.7914
  23089301.136   -13567240.74949 -10551406.67749  23089301.8674   23089309.1134
  20580888.878   -11573454.10649  -9008652.19149  20580890.1494   20580895.8224
  23653864.794   -11148743.560 9  -8673674.863 9  23653865.543    23653871.280
  23665966.024   -11879442.11049  -9244081.26149  23665967.6384   23665974.0084
 96  2 21 18 49  0.0010000  0  7 19 29  2 31 18 28 27
  21437060.521   -15807108.51649 -12308997.32449  21437061.9784   21437067.9284
  21912556.393     5059181.79649   3944476.91649  21912557.9694   21912563.7574
  25448365.793    -2318807.71059  -1792838.25559  25448366.3144   25448375.0404
  23077569.341   -13628889.01649 -10599444.27849  23077570.2484   23077576.6244
  20582179.505   -11566671.19549  -9003366.81249  20582180.9154   20582186.4054
  23652687.869   -11154926.794 9  -8678492.945 9  23652688.769    23652694.961
  23653304.696   -11945979.83649  -9295928.80849  23653305.8064   23653312.8904
 96  2 21 18 49 30.0010000  0  7 19 29  2 31 18 28 27
  21431560.483   -15836011.89449 -12331519.44249  21431562.0814   21431567.9124
  21925372.304     5126529.41549   3996955.55649  21925374.0344   21925379.6664
  25431130.422    -2409384.09349  -1863417.30349  25431129.1984   25431139.5324
  23065904.108   -13690191.23049 -10647212.23049  23065905.2734   23065911.5334
  20583566.467   -11559383.41449  -8997688.02949  20583567.6664   20583572.9794
  23651610.750   -11160584.983 9  -8682901.908 9  23651611.809    23651617.932
  23640657.064   -12012442.65149  -9347717.98949  23640658.0134   23640665.2544
 96  2 21 18 50  0.0010000  0  7 19 29  2 31 18 28 27
  21426097.692   -15864717.73049 -12353887.62349  21426099.2534   21426105.5854
  21938263.489     5194273.71249   4049743.30349  21938265.1944   21938271.2644
  25413910.391    -2499854.76049  -1933913.65749  25413913.7364   25413924.0424
  23054309.215   -13751124.88749 -10694692.99449  23054309.8964   23054316.2074
  20585049.298   -11551587.71449  -8991613.46449  20585051.1624   20585056.7004
  23650637.650   -11165702.737 9  -8686889.765 9  23650638.355    23650643.881
  23628027.402   -12078806.03749  -9399429.69449  23628030.0944   23628036.6644
 96  2 21 18 50 30.0010000  0  7 19 29  2 31 18 28 27
  21420669.379   -15893245.31449 -12376116.90949  21420670.7454   21420676.8804
  21951223.902     5262383.17149   4102815.58649  21951226.1114   21951232.0114
  25396714.607    -2590232.15549  -2004337.51949  25396715.8104   25396725.4384
  23042781.283   -13811706.04149 -10741899.06549  23042781.8804   23042787.7754
  20586625.995   -11543309.40949  -8985162.84649  20586626.2894   20586632.1574
  23649763.357   -11170296.101 9  -8690469.008 9  23649764.061    23649769.672
  23615414.156   -12145097.69749  -9451085.50849  23615415.0564   23615422.1554
 96  2 21 18 51  0.0010000  0  7 19 29  2 31 18 28 27
  21415280.343   -15921567.03849 -12398185.78049  21415281.4524   21415287.7074
  21964253.759     5330849.31449   4156165.80349  21964255.0474   21964260.5204
  25379537.973    -2680492.72849  -2074670.27949  25379539.9364   25379549.4314
  23031324.935   -13871905.42449 -10788807.65049  23031325.6854   23031333.2644
  20588293.423   -11534541.71449  -8978330.89149  20588294.8124   20588300.3854
  23648990.469   -11174353.679 9  -8693630.771 9  23648991.904    23648997.898
  23602815.597   -12211301.88849  -9502673.15149  23602816.7404   23602823.9574
 96  2 21 18 51 30.0010000  0  7 19 29  2 31 18 28 27
  21409932.760   -15949666.41149 -12420081.39349  21409934.1124   21409940.3424
  21977350.402     5399675.45449   4209796.53749  21977352.2724   21977357.8274
  25362387.556    -2770624.06749  -2144902.30649  25362386.5944   25362398.2854
  23019946.763   -13931696.82149 -10835398.31249  23019948.2444   23019953.7134
  20590053.796   -11525294.11849  -8971124.98149  20590054.6304   20590060.2744
  23648321.934   -11177872.641 9  -8696372.826 9  23648322.356    23648328.452
  23590238.073   -12277398.21849  -9554176.76149  23590239.0594   23590245.3984
 96  2 21 18 52  0.0010000  0  7 19 29  2 31 18 28 27
  21404626.928   -15977548.40149 -12441807.61449  21404628.3964   21404634.5454
  21990515.785     5468857.96849   4263704.96749  21990517.1794   21990522.6684
  25345267.003    -2860601.303 9
  23008648.956   -13991058.88649 -10881654.43149  23008650.9254   23008657.6604
  20591903.716   -11515569.37449  -8963547.27049  20591905.3604   20591910.8574
  23647755.841   -11180845.617 9  -8698689.447 9  23647756.585    23647762.561
  23577680.962   -12343388.18049  -9605597.49849  23577681.3914   23577688.7814
 96  2 21 18 52 30.0010000  0  7 19 29  2 31 18 28 27
  21399359.114   -16005228.19249 -12463376.28049  21399361.2274   21399367.0444
  22003743.355     5538371.50349   4317871.33249  22003744.9604   22003750.9154
  25328170.281    -2950436.15459  -2285015.38059  25328169.8904   25328180.6294
  22997434.269   -14050000.65649 -10927583.02749  22997435.6734   22997441.3604
  20593844.261   -11505377.98849  -8955605.94249  20593844.9594   20593850.4214
  23647292.372   -11183282.783 9  -8700588.549 9  23647292.784    23647298.680
  23565138.063   -12409296.28149  -9656954.41649  23565139.0404   23565146.1364
 96  2 21 18 53  0.0010000  0  7 19 29  2 31 18 28 27
  21394127.455   -16032721.42149 -12484799.57249  21394129.2904   21394135.5504
  22017038.116     5608235.10749   4372310.47849  22017039.9474   22017045.4044
  25311098.263    -3040141.30549  -2354915.26249  25311099.9664   25311107.0324
  22986296.301   -14108527.12649 -10973188.00949  22986298.0094   22986304.6374
  20595871.241   -11494721.20149  -8947301.95949  20595872.7624   20595878.1454
  23646929.801   -11185186.786 9  -8702072.204 9  23646930.344    23646936.299
  23552612.199   -12475122.70649  -9708247.71449  23552613.0384   23552619.4724
 96  2 21 18 53 30.0010000  0  7 19 29  2 31 18 28 27
  21388929.733   -16060040.27049 -12506086.98349  21388930.6354   21388936.8674
  22030403.004     5678469.67149   4427038.68049  22030404.9974   22030410.9094
  25294052.377    -3129722.36349  -2424718.54849  25294053.0414   25294063.9104
  22975236.157   -14166648.23849 -11018477.11349  22975238.0684   22975244.0424
  20597989.054   -11483592.12049  -8938629.95349  20597990.1694   20597995.9384
  23646670.917   -11186550.698 9  -8703134.998 9  23646670.845    23646677.137
  23540097.903   -12540880.95149  -9759487.88449  23540099.2644   23540106.1114
 96  2 21 18 54  0.0010000  0  7 19 29  2 31 18 28 27
  21383762.897   -16087188.50249 -12527241.44649  21383764.5164   21383770.8294
  22043841.611     5749087.51749   4482065.54849  22043843.1234   22043848.5004
  25277026.349    -3219189.83849  -2494433.29449  25277028.5914   25277036.3224
  22964250.912   -14224382.05349 -11063464.45449  22964251.8844   22964257.1104
  20600200.523   -11471969.48549  -8929573.35949  20600201.9824   20600207.7134
  23646513.406   -11187371.662 9  -8703774.719 9  23646514.863    23646520.544
  23527595.924   -12606582.33449  -9810683.73449  23527597.0084   23527604.0274
 96  2 21 18 54 30.0010000  0  7 19 29  2 31 18 28 27
  21378628.898   -16114169.58349 -12548265.66649  21378630.1194   21378636.2874
  22057353.966     5820098.09249   4537398.42949  22057355.9584   22057361.6264
  25260018.784    -3308561.42249  -2564073.47049  25260020.0994   25260030.6274
  22953336.355   -14281738.14349 -11108157.45649  22953336.4924   22953342.8574
  20602509.455   -11459838.64049  -8920120.76349  20602510.5174   20602516.0874
  23646461.149   -11187649.043 9  -8703990.859 9  23646461.972    23646467.811
  23515104.200   -12672227.45249  -9861835.75249  23515105.5914   23515111.9494
 96  2 21 18 55  0.0010000  0  7 19 29  2 31 18 28 27
  21373527.810   -16140975.22049 -12569153.17349  21373529.4504   21373535.3924
  22070942.722     5891504.58749   4593039.82749  22070944.0234   22070949.8324
  25243034.461    -3397836.29849  -2633638.12749  25243032.7124   25243042.2804
  22942494.921   -14338705.54949 -11152547.57349  22942495.8794   22942502.4484
  20604915.949   -11447191.30349  -8910265.70549  20604917.0094   20604922.6764
  23646513.753   -11187377.775 9  -8703779.482 9  23646513.677    23646519.350
  23502624.788   -12737807.70349  -9912937.24049  23502626.1824   23502632.5294
 96  2 21 18 55 30.0010000  0  7 19 29  2 31 18 28 27
  21368458.784   -16167612.57949 -12589909.55549  21368460.2734   21368466.1004
  22084600.944     5963279.69249   4648968.45349  22084602.8684   22084608.0324
  25226062.531    -3487018.82549  -2703130.90349  25226062.9184   25226071.8524
  22931726.033   -14395297.28249 -11196644.97849  22931727.4934   22931733.4354
  20607416.949   -11434049.83349  -8900025.60549  20607417.8464   20607423.5424
  23646665.774   -11186575.544 9  -8703154.368 9  23646666.400    23646672.062
  23490155.451   -12803330.72849  -9963994.11449  23490156.9294   23490164.1754
 96  2 21 18 56  0.0010000  0  7 19 29  2 31 18 28 27
  21363426.440   -16194058.04149 -12610516.40849  21363427.8614   21363434.1874
  22098329.476     6035424.28349   4705184.99249  22098331.2914   22098336.7194
  25209110.330    -3576090.89049  -2772537.57349  25209112.0984   25209120.9244
  22921033.463   -14451482.55049 -11240425.67249  22921035.1264   22921041.6984
  20610011.712   -11420413.03449  -8889399.54149  20610012.8554   20610018.7464
  23646920.179   -11185233.123 9  -8702108.326 9  23646921.748    23646927.360
  23477703.695   -12868763.51849 -10014980.67849  23477705.8244   23477712.9144
 96  2 21 18 56 30.0010000  0  7 19 29  2 31 18 28 27
  21358434.711   -16220287.27149 -12630954.76749  21358436.6464   21358442.7654
  22112130.794     6107947.25049   4761696.37249  22112131.7534   22112137.4794
  25192190.030    -3665013.30049  -2841827.76549  25192189.9664   25192199.7264
  22910426.164   -14507231.74849 -11283866.55749  22910426.6814   22910433.5214
  20612701.083   -11406279.15049  -8878386.13849  20612702.4994   20612708.3024
  23647282.745   -11183330.912 9  -8700626.076 9  23647283.853    23647289.441
  23465274.908   -12934079.51149 -10065876.22849  23465276.2594   23465283.2334
 96  2 21 18 57  0.0010000  0  7 19 29  2 31 18 28 27
  21353485.660   -16246297.05449 -12651222.13449  21353487.0514   21353493.3814
  22125999.288     6180835.39749   4818492.30249  22126002.0134   22126007.6854
  25175297.249    -3753786.89649  -2911001.88249  25175297.1174   25175305.7084
  22899895.774   -14562566.67049 -11326984.65649  22899897.0554   22899903.2874
  20615480.870   -11391671.35849  -8867003.45449  20615482.4044   20615487.7564
  23647747.264   -11180885.523 9  -8698720.571 9  23647748.998    23647754.702
  23452866.471   -12999285.97449 -10116686.43249  23452868.0654   23452874.8954
 96  2 21 18 57 30.0010000  0  7 19 29  2 31 18 28 27
  21348578.640   -16272082.16849 -12671314.43349  21348580.3204   21348586.8454
  22139941.420     6254096.04349   4875578.49049  22139943.0164   22139948.8454
  25158431.805    -3842410.13749  -2980058.94249  25158432.2644   25158442.3914
  22889444.457   -14617485.21449 -11369778.31049  22889445.2044   22889451.8614
  20618351.106   -11376588.99849  -8855250.97849  20618352.4574   20618357.8584
  23648317.093   -11177894.802 9  -8696390.128 9  23648317.814    23648323.955
  23440480.792   -13064372.94349 -10167403.52449  23440482.3224   23440489.3144
 96  2 21 18 58  0.0010000  0  7 19 29  2 31 18 28 27
  21343712.820   -16297653.38949 -12691240.06549  21343714.3314   21343720.4664
  22153952.116     6327721.58349   4932949.01149  22153953.4484   22153959.2204
  25141591.107    -3930897.84849  -3049010.35149  25141594.1154   25141603.1704
  22879073.276   -14671992.18249 -11412251.26049  22879073.8604   22879080.3714
  20621312.256   -11361027.94549  -8843125.49649  20621313.4534   20621319.1404
  23648989.401   -11174364.579 9  -8693639.296 9  23648989.746    23648995.609
  23428115.003   -13129357.63349 -10218040.90949  23428116.0804   23428123.4114
 96  2 21 18 58 30.0010000  0  7 19 29  2 31 18 28 27
  21338885.782   -16323019.15749 -12711005.60049  21338887.2654   21338893.5614
  22168032.769     6401720.50049   4990610.47449  22168035.0244   22168040.8874
  25124779.889    -4019249.20449  -3117855.52749  25124780.9574   25124790.7274
  22868775.460   -14726101.79449 -11454414.58249  22868777.1984   22868783.3984
  20624367.894   -11344971.50649  -8830613.99649  20624369.1264   20624374.5154
  23649763.872   -11170291.160 9  -8690465.185 9  23649765.064    23649770.783
  23415766.358   -13194243.19549 -10268601.06049  23415768.7654   23415775.9594
 96  2 21 18 59  0.0010000  0  7 19 29  2 31 18 28 27
  21334095.633   -16348189.49149 -12730618.84649  21334097.4834   21334103.8534
  22182184.913     6476085.65449   5048557.30849  22182186.2054   22182192.3404
  25107990.192    -4107477.13249  -3186604.62149  25107990.6334   25107999.1594
  22858555.794   -14779804.62549 -11496260.92749  22858557.2844   22858563.7984
  20627520.374   -11328404.81349  -8817704.89749  20627521.5534   20627527.1334
  23650643.316   -11165672.522 9  -8686866.235 9  23650643.745    23650649.753
  23403437.179   -13259037.80249 -10319090.32749  23403438.4774   23403446.0464
 96  2 21 18 59 30.0010000  0  7 19 29  2 31 18 28 27
  21329342.430   -16373167.66649 -12750082.35949  21329344.3754   21329350.8044
  22196403.797     6550809.49849   5106783.64949  22196405.7594   22196411.7034
  25091228.048    -4195571.42349  -3255249.48249  25091228.6444   25091236.7104
  22848421.372   -14833068.70649 -11537765.39049  22848421.8584   22848427.7874
  20630770.312   -11311322.95249  -8804394.36349  20630771.8424   20630777.5874
  23651627.273   -11160496.650 9  -8682833.071 9  23651628.343    23651634.515
  23391124.273   -13323743.79449 -10369510.54449  23391125.5624   23391132.6564
 96  2 21 19  0  0.0010000  0  7 19 29  2 31 18 28 27
  21324622.213   -16397973.73149 -12769411.75849  21324623.7704   21324630.1064
  22210687.683     6625871.24949   5165273.29249  22210689.5864   22210695.4294
  25074489.326    -4283535.80549  -3323793.12849  25074489.4364   25074497.2124
  22838365.756   -14885909.20049 -11578939.78849  22838366.6824   22838372.9194
  20634117.083   -11293737.52749  -8790691.44649  20634118.1064   20634123.8644
  23652715.348   -11154779.411 9  -8678378.066 9  23652716.571    23652722.763
  23378823.007   -13388386.34549 -10419881.33349  23378824.2334   23378831.3684
 96  2 21 19  0 30.0010000  0  7 19 29  2 31 18 28 27
  21319936.073   -16422598.26849 -12788599.71549  21319937.8914   21319944.4704
  22225033.444     6701259.75349   5224017.54749  22225035.6014   22225041.2354
  25057771.793    -4371376.60249  -3392240.45649  25057773.6344   25057783.0574
  22828393.248   -14938315.47249 -11619775.82749  22828393.4554   22828400.5604
  20637556.330   -11275665.23449  -8776609.15049  20637557.4904   20637563.2004
  23653904.226   -11148526.434 9  -8673505.610 9  23653906.353    23653912.562
  23366530.357   -13452984.76449 -10470217.73949  23366531.5274   23366538.2104
 96  2 21 19  1  0.0010000  0  7 19 29  2 31 18 28 27
  21315286.601   -16447032.64349 -12807639.49649  21315288.4234   21315294.4654
  22239442.815     6776980.71049   5283020.85749  22239444.6064   22239450.6854
  25041081.998    -4459092.31449  -3460590.37649  25041082.3544   25041090.3354
  22818506.992   -14990261.37449 -11660253.11549  22818508.6914   22818515.0604
  20641086.664   -11257112.80449  -8762152.72249  20641087.8554   20641093.4124
  23655197.371   -11141734.299 9  -8668213.028 9  23655198.547    23655205.177
  23354244.078   -13517549.94249 -10520528.24449  23354245.7644   23354252.5094
 96  2 21 19  1 30.0010000  0  8 19 29  2 31 18 28 16 27
  21310675.641   -16471264.00349 -12826521.07949  21310677.1274   21310683.2364
  22253919.535     6853056.00649   5342300.27649  22253921.6284   22253927.3714
  25024415.941    -4546673.31449  -3528835.24749  25024416.5944   25024423.5644
  22808712.805   -15041737.20449 -11700364.13149  22808713.4204   22808719.5764
  20644707.572   -11238083.40649  -8747324.63049  20644709.0954   20644714.7554
  23656593.731   -11134400.720 9  -8662498.535 9  23656594.465    23656600.652
  25269308.539    -4060210.91759  -3143268.66659  25269310.2794   25269314.6414
  23341966.557   -13582066.45649 -10570800.83149  23341968.3134   23341975.2164
 96  2 21 19  2  0.0010000  0  8 19 29  2 31 18 28 16 27
  21306103.912   -16495286.54749 -12845239.94349  21306105.6994   21306111.9614
  22268469.657     6929513.84949   5401877.78549  22268471.1334   22268476.7684
  25007774.301    -4634122.70049  -3596977.59549  25007774.7414   25007783.3404
  22799006.319   -15092742.53749 -11740108.50449  22799007.3404   22799014.4304
  20648421.402   -11218568.75049  -8732118.41349  20648422.6574   20648428.4644
  23658092.675   -11126521.781 9  -8656359.089 9  23658093.756    23658099.771
  25256629.062    -4126836.79749  -3195184.92049  25256629.5824   25256636.4144
  23329700.963   -13646520.79549 -10621024.97149  23329703.0564   23329710.0774
 96  2 21 19  2 30.0010000  0  8 19 29  2 31 18 28 16 27
  21301569.820   -16519115.24249 -12863807.75949  21301571.4684   21301577.5534
  22283091.002     7006353.57049   5461752.86049  22283092.8504   22283099.1494
  24991158.647    -4721445.22149  -3665021.02149  24991158.5494   24991167.2014
  22789388.491   -15143283.31949 -11779490.86949  22789389.8044   22789396.2864
  20652226.389   -11198571.27549  -8716535.97349  20652228.1894   20652234.0044
  23659695.723   -11118099.098 9  -8649795.942 9  23659696.519    23659702.746
  25244021.264    -4193096.31949  -3246815.69349  25244022.0094   25244028.3194
  23317447.679   -13710911.99549 -10671199.91349  23317449.7094   23317456.3604
 96  2 21 19  3  0.0010000  0  8 19 29  2 31 18 28 16 27
  21297069.596   -16542762.56349 -12882234.24549  21297071.7174   21297077.5964
  22297786.106     7083574.78749   5521925.20049  22297787.7414   22297794.1034
  24974565.486    -4808627.45049  -3732955.13749  24974568.6344   24974576.5714
  22779856.286   -15193373.57449 -11818522.19849  22779857.7154   22779863.9724
  20656127.529   -11178070.93849  -8700561.69949  20656129.0264   20656134.8314
  23661403.634   -11109125.163 9  -8642803.259 9  23661404.162    23661410.414
  25231486.521    -4258963.14249  -3298140.49349  25231487.8814   25231496.4864
  23305213.096   -13775208.72649 -10721301.23249  23305214.7184   23305221.2184
 96  2 21 19  3 30.0010000  0  8 19 29  2 31 18 28 16 27
  21292603.762   -16566231.23149 -12900521.51849  21292605.5504   21292611.7624
  22312550.535     7161161.71449   5582382.50849  22312552.2884   22312558.1404
  24958001.797    -4895661.92149  -3800774.08649  24958005.2834   24958013.3744
  22770406.516   -15243032.26349 -11857217.24549  22770408.1634   22770413.7924
  20660124.187   -11157070.02649  -8684197.36249  20660125.3614   20660131.0984
  23663215.513   -11099604.895 9  -8635384.853 9  23663215.692    23663222.074
  25219027.676    -4324434.65549  -3349157.26949  25219027.3424   25219036.3374
  23292998.071   -13839402.37749 -10771322.24549  23292999.0114   23293005.7014
 96  2 21 19  4  0.0010000  0  8 19 29  2 31 18 28 16 27
  21288173.139   -16589516.46749 -12918665.86349  21288174.6404   21288180.8594
  22327381.294     7239101.40449   5643114.69749  22327383.7404   22327389.8514
  24941471.570    -4982539.07149  -3868470.41049  24941472.9154   24941482.7944
  22761036.393   -15292271.34349 -11895585.31649  22761038.4414   22761044.6514
  20664215.653   -11135567.09149  -8667441.84049  20664217.3804   20664222.6264
  23665131.686   -11089531.419 9  -8627535.385 9  23665132.658    23665138.947
  25206646.443    -4389499.09949  -3399856.82549  25206647.9274   25206656.2044
  23280798.762   -13903503.88749 -10821271.45649  23280800.2084   23280807.6994
 96  2 21 19  4 30.0010000  0  8 19 29  2 31 18 28 16 27
  21283774.557   -16612629.76949 -12936676.22749  21283776.2444   21283782.2814
  22342273.171     7317354.79449   5704091.33149  22342274.9934   22342280.5394
  24924969.214    -5069265.63449  -3936049.47349  24924968.4634   24924979.0504
  22751743.844   -15341109.48649 -11933640.97349  22751744.6224   22751750.9944
  20668401.149   -11113572.97349  -8650303.57849  20668402.7734   20668408.2894
  23667150.085   -11078923.879 9  -8619269.765 9  23667151.036    23667157.659
  25194340.851    -4454164.64949  -3450245.56349  25194340.4244   25194350.2034
  23268612.892   -13967542.91649 -10871171.98049  23268614.5064   23268621.3394
 96  2 21 19  5  0.0010000  0  8 19 29  2 31 18 28 16 27
  21279414.156   -16635542.93049 -12954530.63749  21279416.0404   21279422.1764
  22357226.834     7395935.15649   5765322.74249  22357228.2604   22357234.3844
  24908495.450    -5155825.14449  -4003498.30949  24908498.0544   24908506.9374
  22742531.960   -15389518.72449 -11971362.43549  22742533.1844   22742538.8274
  20672681.618   -11091081.41849  -8632777.70449  20672682.7844   20672688.3174
  23669274.305   -11067768.753 9  -8610577.445 9  23669274.102    23669280.186
  25182113.174    -4518418.61749  -3500313.55149  25182114.7204   25182123.8124
  23256441.832   -14031501.37849 -10921009.71749  23256443.4824   23256449.9034
 96  2 21 19  5 30.0010000  0  8 19 29  2 31 18 28 16 27
  21275094.859   -16658241.27349 -12972217.65549  21275096.6304   21275102.9924
  22372244.552     7474852.54449   5826816.77749  22372245.8284   22372251.6924
  24892058.554    -5242213.13849  -4070813.55249  24892059.0904   24892065.3264
  22733405.388   -15437479.00749 -12008734.05749  22733406.7054   22733413.0144
  20677054.313   -11068099.70349  -8614869.89049  20677055.8394   20677061.6674
  23671501.797   -11056060.219 9  -8601453.909 9  23671502.187    23671508.379
  25169965.773    -4582268.31549  -3550066.58449  25169966.2564   25169972.3404
  23244286.668   -14095381.25849 -10970786.22949  23244287.8234   23244294.6424
 96  2 21 19  6  0.0010000  0  8 19 29  2 31 18 28 16 27
  21270814.577   -16680735.80249 -12989745.85649  21270816.1724   21270822.4334
  22387324.168     7554101.40549   5888569.10149  22387325.8764   22387332.3704
  24875645.450    -5328453.66949  -4138013.82249  24875647.2034   24875655.9124
  22724362.607   -15484994.56149 -12045759.14549  22724364.5084   22724370.5734
  20681519.649   -11044632.84849  -8596584.03949  20681521.7444   20681527.2484
  23673832.641   -11043805.567 9  -8591904.825 9  23673834.244    23673840.182
  25157886.983    -4645726.79749  -3599514.74349  25157889.0804   25157895.9134
  23232144.558   -14159188.29649 -11020505.97149  23232145.5804   23232152.6474
 96  2 21 19  6 30.0010000  0  8 19 29  2 31 18 28 16 27
  21266574.944   -16703013.87649 -13007105.38949  21266576.4774   21266583.0044
  22402470.747     7633696.41149   5950591.15149  22402472.6364   22402478.8334
  24859263.210    -5414542.07049  -4205095.61349  24859263.9334   24859274.7254
  22715410.576   -15532032.66049 -12082412.19149  22715412.8944   22715419.3154
  20686081.849   -11020661.53649  -8577905.10949  20686083.0564   20686088.9494
  23676272.264   -11030991.206 9  -8581919.603 9  23676272.777    23676278.531
  25145887.690    -4708789.00849  -3648654.10749  25145889.0114   25145896.4404
  23220022.187   -14222888.89149 -11070142.77049  23220023.4684   23220030.8904
 96  2 21 19  7  0.0010000  0  8 19 29  2 31 18 28 16 27
  21262375.836   -16725081.74949 -13024301.12849  21262377.3724   21262383.7004
  22417683.163     7713634.41849   6012880.47049  22417684.4554   22417690.5334
  24842909.514    -5500492.15049  -4272069.66449  24842908.6824   24842918.2244
  22706551.170   -15578597.24149 -12118696.25949  22706552.2794   22706558.4574
  20690735.336   -10996204.28449  -8558847.52249  20690737.1244   20690742.8304
  23678815.101   -11017626.171 9  -8571505.281 9  23678815.994    23678822.455
  25133959.498    -4771471.25349  -3697497.42449  25133960.3854   25133967.9264
  23207921.941   -14286478.70449 -11119693.24249  23207922.7524   23207929.5914
 96  2 21 19  7 30.0010000  0  8 19 29  2 31 18 28 16 27
  21258219.321   -16746923.00349 -13041320.28149  21258221.2154   21258227.4574
  22432961.506     7793924.24349   6075443.93949  22432963.0494   22432969.0984
  24826580.582    -5586300.18549  -4338933.01449  24826580.0924   24826588.2864
  22697780.598   -15624684.77549 -12154608.61049  22697782.1374   22697788.2124
  20695485.374   -10971244.53049  -8539398.37749  20695486.7524   20695492.6714
  23681463.957   -11003701.888 9  -8560655.198 9  23681465.680    23681471.754
  25122104.996    -4833765.00849  -3746037.97649  25122106.4694   25122113.8934
  23195842.600   -14349954.32149 -11169154.73349  23195843.7994   23195851.0064
 96  2 21 19  8  0.0010000  0  8 19 29  2 31 18 28 16 27
  21254107.276   -16768534.36249 -13058160.29449  21254108.6844   21254115.0404
  22448307.993     7874571.59149   6138285.99549  22448309.8844   22448316.1204
  24810278.621    -5671962.47849  -4405682.73049  24810279.8684   24810288.8534
  22689103.265   -15670284.00349 -12190140.45949  22689104.6604   22689110.8034
  20700333.164   -10945767.98349  -8519546.53649  20700334.8964   20700340.5874
  23684219.851   -10989217.219 9  -8549368.436 9  23684222.088    23684228.344
  25110329.307    -4895653.79449  -3794263.01849  25110329.0614   25110337.6324
  23183784.668   -14413319.80349 -11218530.40149  23183785.8794   23183792.4574
 96  2 21 19  8 30.0010000  0  8 19 29  2 31 18 28 16 27
  21250040.283   -16789904.86549 -13074812.62849  21250041.8564   21250048.4354
  22463723.346     7955581.42649   6201410.50849  22463725.4244   22463731.4764
  24794009.855    -5757453.42249  -4472298.95549  24794010.0024   24794020.5884
  22680522.834   -15715373.91949 -12225275.44449  22680524.2764   22680530.3814
  20705281.789   -10919765.87549  -8499285.17149  20705283.0654   20705288.8104
  23687085.986   -10974162.793 9  -8537637.713 9  23687086.621    23687092.884
  25098631.336    -4957120.24349  -3842158.91249  25098633.1004   25098640.8724
  23171747.051   -14476578.45849 -11267822.83149  23171748.2544   23171755.1634
 96  2 21 19  9  0.0010000  0  8 19 29  2 31 18 28 16 27
  21246015.656   -16811056.30549 -13091294.26349  21246017.0444   21246023.3694
  22479209.513     8036959.72349   6264822.14349  22479211.1794   22479217.5304
  24777775.652    -5842768.43949  -4538778.13549  24777777.0494   24777786.2284
  22672037.984   -15759966.03149 -12260022.53249  22672038.4944   22672044.9104
  20710328.880   -10893244.04649  -8478618.82949  20710329.9154   20710335.7804
  23690057.519   -10958544.975 9  -8525467.983 9  23690059.072    23690064.518
  25087017.835    -5018158.77449  -3889721.39149  25087019.0804   25087025.6764
  23159725.286   -14539747.68049 -11317045.56849  23159727.5574   23159733.7224
 96  2 21 19  9 30.0010000  0  8 19 29  2 31 18 28 16 27
  21242025.467   -16832023.08749 -13107632.01349  21242026.8504   21242033.3224
  22494762.063     8118693.31449   6328510.62249  22494764.4504   22494770.6604
  24761569.887    -5927923.66749  -4605132.80249  24761570.6104   24761580.9824
  22663643.403   -15804075.27649 -12294393.34649  22663644.6954   22663650.9224
  20715471.627   -10866216.47149  -8457558.39849  20715473.2454   20715478.8254
  23693135.470   -10942375.765 9  -8512868.603 9  23693135.841    23693141.547
  25075481.794    -5078776.82149  -3936956.19749  25075482.3534   25075490.5394
  23147717.540   -14602844.87249 -11366212.17649  23147720.2164   23147726.3664
 96  2 21 19 10  0.0010000  0  8 19 29  2 31 18 28 16 27
  21238067.734   -16852821.79349 -13123838.79949  21238069.0594   21238075.4424
  22510382.402     8200773.85449   6392469.46049  22510384.0244   22510390.2154
  24745398.192    -6012911.51549  -4671357.06149  24745399.4984   24745406.6964
  22655343.004   -15847697.62049 -12328384.76149  22655344.3094   22655350.3874
  20720709.049   -10838692.59249  -8436111.23749  20720710.8824   20720716.8554
  23696317.080   -10925654.254 9  -8499838.863 9  23696317.680    23696323.725
  25064025.772    -5138975.50449  -3983864.24849  25064027.8544   25064034.9964
  23135727.127   -14665863.57149 -11415317.62649  23135727.8634   23135735.2914
 96  2 21 19 10 30.0010000  0  8 19 29  2 31 18 28 16 27
  21234139.535   -16873463.69749 -13139923.39849  21234141.0634   21234147.3834
  22526069.029     8283209.11249   6456704.70149  22526071.1224   22526077.0684
  24729257.394    -6097729.73049  -4737449.11049  24729258.6234   24729266.1934
  22647134.422   -15890831.80449 -12361995.78449  22647135.5324   22647141.6524
  20726040.567   -10810675.65649  -8414279.87649  20726042.3174   20726048.0344
  23699604.387   -10908377.436 9  -8486376.400 9  23699605.487    23699611.181
  25052648.774    -5198757.22849  -4030447.40249  25052652.0744   25052658.8054
  23123752.170   -14728792.87749 -11464353.41149  23123752.9594   23123759.6524
 96  2 21 19 11  0.0010000  0  8 19 29  2 31 18 28 16 27
  21230243.412   -16893936.90249 -13155876.53949  21230245.1304   21230251.2004
  22541825.747     8366009.59649   6521224.53349  22541827.2344   22541833.8544
  24713152.297    -6182363.92349  -4803397.81749  24713154.1704   24713161.8684
  22639020.575   -15933470.34549 -12395220.59149  22639021.9094   22639027.7254
  20731467.916   -10782155.83649  -8392056.65549  20731469.5824   20731475.2454
  23702998.728   -10890536.275 9  -8472474.197 9  23703000.511    23703006.251
  25041356.744    -5258107.00549  -4076693.97249  25041357.7024   25041364.8384
  23111797.042   -14791611.28749 -11513302.79449  23111799.1844   23111805.9454
 96  2 21 19 11 30.0010000  0  8 19 29  2 31 18 28 16 27
  21226386.546   -16914205.81149 -13171670.49349  21226388.1124   21226394.1474
  22557649.607     8449169.12249   6586024.12949  22557652.1674   22557658.5094
  24697082.721    -6266808.11649  -4869198.42049  24697083.7904   24697093.3524
  22631003.131   -15975601.91149 -12428050.34449  22631004.2884   22631010.5804
  20736992.200   -10753127.59549  -8369437.25749  20736993.4254   20736998.7014
  23706504.058   -10872122.472 9  -8458125.777 9  23706504.836    23706510.239
  25030150.035    -5317002.76549  -4122586.78449  25030148.7094   25030157.2674
  23099866.168   -14854313.40849 -11562161.55749  23099867.0994   23099874.0184
 96  2 21 19 12  0.0010000  0  8 19 29  2 31 18 28 16 27
  21222575.575   -16934232.12849 -13187275.42049  21222577.5764   21222583.6524
  22573548.927     8532716.67549   6651126.08549  22573550.9584   22573557.2004
  24681055.151    -6351029.21449  -4934825.18249  24681057.7504   24681065.1074
  22623089.673   -16017189.47449 -12460456.21549  22623090.5874   22623097.1514
  20742620.666   -10723547.27449  -8346387.67849  20742622.1364   20742628.1194
  23710121.164   -10853107.883 9  -8443309.227 9  23710122.909    23710128.623
  25019033.670    -5375403.28349  -4168093.68349  25019036.7044   25019044.3694
  23087958.466   -14916883.35749 -11610917.34949  23087960.6754   23087967.4224
 96  2 21 19 12 30.0010000  0  8 19 29  2 31 18 28 16 27
  21218800.711   -16954071.26249 -13202734.48449  21218802.1624   21218808.2054
  22589511.760     8616602.06849   6716491.29349  22589513.6764   22589519.6984
  24665060.944    -6435091.63949  -5000328.31549  24665061.2334   24665069.0974
  22615266.740   -16058296.70249 -12492487.78649  22615268.2494   22615274.5634
  20748345.053   -10693468.22549  -8322949.47449  20748346.0514   20748351.8354
  23713842.833   -10833552.253 9  -8428071.078 9  23713844.122    23713850.176
  25008007.866    -5433352.74749  -4213249.10149  25008008.3134   25008017.4314
  23076063.895   -14979392.68649 -11659625.90149  23076065.4624   23076072.0024
 96  2 21 19 13  0.0010000  0  8 19 29  2 31 18 28 16 27
  21215044.528   -16973808.53149 -13218114.16449  21215046.2464   21215052.6434
  22605516.034     8700711.25949   6782030.89349  22605519.4404   22605525.4264
  24649074.895    -6519087.46049  -5065779.52449  24649077.8044   24649084.5994
  22607516.220   -16099021.87749 -12524221.63849  22607518.1894   22607524.5934
  20754145.907   -10662981.91649  -8299193.91549  20754147.4944   20754153.2304
  23717648.939   -10813550.470 9  -8412485.266 9  23717650.218    23717656.063
  24997046.751    -5490953.85849  -4258133.07149  24997047.7904   24997055.1974
  23064162.621   -15041938.70749 -11708363.03249  23064163.6104   23064170.1884
 96  2 21 19 13 30.0010000  0  8 19 29  2 31 18 28 16 27
  21211318.215   -16993391.05549 -13233373.26849  21211319.7244   21211326.0134
  22621577.077     8785103.94049   6847791.40549  22621578.5314   22621584.7754
  24633111.463    -6602974.31249  -5131145.83149  24633112.7014   24633121.5294
  22599853.353   -16139296.00749 -12555604.03149  22599854.3294   22599860.7854
  20760036.950   -10632021.64849  -8275069.04349  20760039.0654   20760044.7814
  23721552.995   -10793036.151 9  -8396500.069 9  23721553.633    23721559.592
  24986163.064    -5548148.05449  -4302699.97149  24986164.4064   24986172.5544
  23052263.089   -15104462.16749 -11757082.59049  23052265.2324   23052272.3444
 96  2 21 19 14  0.0010000  0  8 19 29  2 31 18 28 16 27
  21207627.336   -17012784.29149 -13248484.87449  21207629.1824   21207635.7374
  22637698.749     8869824.74949   6913807.59349  22637700.4434   22637706.6234
  24617179.096    -6686706.49249  -5196391.63049  24617178.6674   24617187.6884
  22592285.427   -16179061.97549 -12586590.45249  22592287.4164   22592293.0364
  20766030.172   -10600528.98649  -8250529.31749  20766031.7154   20766037.6614
  23725564.760   -10771959.730 9  -8380076.877 9  23725564.756    23725570.350
  24975361.751    -5604905.27549  -4346926.37149  24975364.1994   24975371.1524
  23040380.008   -15166908.04549 -11805741.69349  23040382.5214   23040389.2904
 96  2 21 19 14 30.0010000  0  8 19 29  2 31 18 28 16 27
  21203974.028   -17031984.17749 -13263445.82149  21203975.4514   21203981.9964
  22653878.985     8954854.35449   6980064.40149  22653881.1684   22653887.2694
  24601273.807    -6770282.20149  -5261515.45249  24601276.8994   24601283.6964
  22584814.595   -16218324.56849 -12617184.63649  22584815.9194   22584821.8174
  20772120.987   -10568523.09949  -8225589.67349  20772122.4164   20772128.0824
  23729679.680   -10750332.082 9  -8363224.160 9  23729680.365    23729685.967
  24964641.129    -5661245.31249  -4390827.70749  24964642.3654   24964651.3244
  23028514.694   -15229266.13849 -11854332.40149  23028516.2874   23028523.0844
 96  2 21 19 15  0.0010000  0  8 19 29  2 31 18 28 16 27
  21200359.271   -17050978.18449 -13278246.34549  21200361.1294   21200367.6634
  22670115.761     9040180.20649   7046552.04749  22670117.7094   22670123.9444
  24585400.506    -6853696.20549  -5326513.33249  24585402.8384   24585409.5174
  22577441.510   -16257072.98449 -12647378.16949  22577442.0164   22577448.2994
  20778307.901   -10536006.84549  -8200252.34349  20778310.0614   20778315.5664
  23733900.063   -10728154.580 9  -8345942.986 9  23733900.433    23733906.701
  24953999.135    -5717176.36749  -4434410.33249  24953999.0354   24954007.9574
  23016665.562   -15291532.27049 -11902851.44549  23016667.2304   23016674.0804
 96  2 21 19 15 30.0010000  0  8 19 29  2 31 18 28 16 27
  21196786.202   -17069753.90849 -13292876.77749  21196788.4684   21196794.6974
  22686414.149     9125825.12149   7113288.31749  22686415.9494   22686421.5134
  24569559.077    -6936948.06149  -5391384.84049  24569559.7844   24569568.9294
  22570165.783   -16295299.61949 -12677165.12649  22570167.8144   22570173.8104
  20784592.270   -10502987.20449  -8174522.76549  20784593.6944   20784599.2334
  23738224.226   -10705424.118 9  -8328230.944 9  23738226.062    23738231.887
  24943437.515    -5772672.91349  -4477654.39249  24943438.8744   24943446.8554
  23004833.758   -15353710.75949 -11951302.19849  23004835.1014   23004841.4694
 96  2 21 19 16  0.0010000  0  8 19 29  2 31 18 28 16 27
  21193257.113   -17088300.43649 -13307328.61649  21193259.0344   21193265.0744
  22702774.432     9211800.19149   7180281.84549  22702776.2304   22702782.3814
  24553754.267    -7020003.71249  -5456103.42949  24553755.3614   24553763.3374
  22562991.842   -16333005.66949 -12706546.43749  22562992.8894   22562998.5584
  20790969.874   -10469469.87449  -8148405.37349  20790971.5744   20790977.4904
  23742656.087   -10682138.675 9  -8310086.445 9  23742657.084    23742662.866
  24932958.491    -5827734.63249  -4520559.61649  24932960.4084   24932968.7784
  22993019.472   -15415794.91649 -11999679.44449  22993020.6614   22993027.3384
 96  2 21 19 16 30.0010000  0  8 19 29  2 31 18 28 16 27
  21189772.315   -17106612.78849 -13321597.97749  21189774.2494   21189780.6134
  22719199.728     9298116.17749   7247541.00949  22719201.5714   22719207.4484
  24537989.108    -7102846.78149  -5520656.43049  24537990.4084   24537998.5194
  22555915.253   -16370188.85649 -12735520.32549  22555916.9244   22555923.0754
  20797442.144   -10435459.14049  -8121903.51849  20797443.6194   20797449.3374
  23747192.481   -10658294.282 9  -8291506.397 9  23747194.436    23747200.650
  24922565.623    -5882357.97149  -4563123.24749  24922566.1354   24922574.6634
  22981225.417   -15477770.12249 -12047971.78249  22981227.5614   22981234.2274
 96  2 21 19 17  0.0010000  0  8 19 29  2 31 18 28 16 27
  21186327.481   -17124716.56749 -13335704.81449  21186329.1724   21186335.0334
  22735689.620     9384770.83149   7315064.08249  22735691.4964   22735697.2694
  24522260.594    -7185503.05249  -5585063.82149  24522261.4804   24522270.1914
  22548936.111   -16406865.99649 -12764099.88549  22548937.4644   22548943.3484
  20804006.305   -10400961.90849  -8095022.56249  20804008.2424   20804014.0244
  23751836.189   -10633897.866 9  -8272496.208 9  23751836.898    23751842.979
  24912253.798    -5936540.47249  -4605343.38249  24912255.6534   24912262.8714
  22969450.580   -15539647.97649 -12096188.26849  22969452.3454   22969458.9574
 96  2 21 19 17 30.0010000  0  8 19 29  2 31 18 28 16 27
  21182918.866   -17142628.51049 -13349662.16349  21182920.6924   21182926.8024
  22752243.725     9471757.79949   7382846.09949  22752244.4554   22752251.2594
  24506566.832    -7267973.01949  -5649326.03749  24506567.8554   24506575.3764
  22542053.326   -16443037.03149 -12792285.08649  22542054.2124   22542060.1894
  20810663.642   -10365978.39449  -8067762.69449  20810665.4274   20810670.9704
  23756583.682   -10608951.605 9  -8253057.576 9  23756584.029    23756590.088
  24902027.390    -5990279.64349  -4647218.03649  24902029.7364   24902037.4954
  22957695.641   -15601423.21049 -12144324.79349  22957696.6134   22957703.9034
 96  2 21 19 18  0.0010000  0  8 19 29  2 31 18 28 16 27
  21179546.209   -17160350.01549 -13363471.12549  21179548.2054   21179554.5654
  22768855.731     9559062.20549   7450875.45849  22768858.0034   22768864.1424
  24490911.307    -7350243.27149  -5713432.67749  24490912.6204   24490920.9164
  22535267.197   -16478692.46549 -12820068.52249  22535269.0214   22535274.8554
  20817417.190   -10330488.57049  -8040108.29449  20817418.8514   20817424.8094
  23761434.747   -10583453.104 9  -8233188.627 9  23761436.434    23761442.663
  24891883.772    -6043582.24049  -4688752.51949  24891886.2474   24891893.6634
  22945962.532   -15663076.97849 -12192366.66149  22945964.5114   22945971.3884
 96  2 21 19 18 30.0010000  0  8 19 29  2 31 18 28 16 27
  21176212.061   -17177871.25949 -13377124.04349  21176214.1974   21176220.2744
  22785527.514     9646672.60549   7519143.25749  22785530.2054   22785535.5884
  24475289.374    -7432339.36249  -5777403.57149  24475290.3034   24475296.4074
  22528582.584   -16513826.46349 -12847445.66449  22528583.5244   22528589.1934
  20824267.463   -10294493.82449  -8012060.45549  20824268.5374   20824274.3174
  23766390.735   -10557406.804 9  -8212892.822 9  23766392.640    23766399.234
  24881829.038    -6096431.28849  -4729933.59149  24881829.4524   24881836.6404
  22934251.558   -15724622.55249 -12240324.22949  22934252.4494   22934259.3974
 96  2 21 19 19  0.0010000  0  8 19 29  2 31 18 28 16 27
  21172917.589   -17195185.85549 -13390615.93049  21172919.4634   21172925.2554
  22802258.184     9734589.90449   7587650.19849  22802259.8424   22802266.1314
  24459697.989    -7514267.88449  -5841243.94949  24459698.9274   24459707.6524
  22521996.775   -16548430.59249 -12874409.91349  22521997.9164   22522004.4734
  20831212.420   -10257993.69449  -7983618.80049  20831214.2554   20831219.9684
  23771452.948   -10530811.200 9  -8192168.990 9  23771453.745    23771459.745
  24871861.616    -6148813.55249  -4770750.92549  24871861.5014   24871869.1134
  22922556.949   -15786076.92649 -12288210.72849  22922558.5864   22922565.2854
 96  2 21 19 19 30.0010000  0  8 19 29  2 31 18 28 16 27
  21169664.495   -17212279.62849 -13403935.74749  21169666.5154   21169672.7284
  22819048.137     9822820.45149   7656401.23649  22819050.3834   22819056.4674
  24444141.653    -7596009.50849  -5904938.66749  24444142.7094   24444153.2494
  22515515.322   -16582490.86749 -12900950.37549  22515516.9624   22515523.3354
  20838254.442   -10220990.29549  -7954784.99349  20838255.6984   20838261.4864
  23776618.749   -10503663.025 9  -8171014.586 9  23776619.828    23776626.314
  24861980.696    -6200729.64949  -4811205.01849  24861981.9974   24861990.3374
  22910878.617   -15847446.79949 -12336031.38549  22910880.3804   22910886.9514
 96  2 21 19 20  0.0010000  0  8 19 29  2 31 18 28 16 27
  21166453.486   -17229154.17149 -13417084.73449  21166455.4414   21166461.8364
  22835898.223     9911374.36249   7725404.23949  22835900.8904   22835907.1194
  24428621.967    -7677571.38349  -5968493.32349  24428623.4194   24428631.1294
  22509136.225   -16616013.12949 -12927071.60849  22509138.1454   22509144.2814
  20845390.067   -10183489.65649  -7925563.72049  20845391.8254   20845397.6434
  23781889.282   -10475961.763 9  -8149429.201 9  23781891.141    23781897.385
  24852192.092    -6252180.39349  -4851296.51349  24852191.0914   24852199.3774
  22899215.006   -15908739.74349 -12383792.09649  22899216.4724   22899223.3264
 96  2 21 19 20 30.0010000  0  8 19 29  2 31 18 28 16 27
  21163281.633   -17245820.75849 -13430071.68549  21163283.9484   21163290.2384
  22852812.106    10000252.44549   7794659.83549  22852813.9544   22852820.1224
  24413133.580    -7758967.49849  -6031918.83049  24413134.9194   24413144.3474
  22502857.036   -16649010.86449 -12952784.11949  22502858.4414   22502864.8704
  20852618.477   -10145507.41549  -7895967.18049  20852619.6234   20852625.5594
  23787262.866   -10447714.253 9  -8127418.162 9  23787266.207    23787272.549
  24842485.886    -6303169.64849  -4891028.37349  24842488.6854   24842496.7684
  22887562.456   -15969971.71349 -12431505.28849  22887564.1244   22887571.0744
 96  2 21 19 21  0.0010000  0  8 19 29  2 31 18 28 16 27
  21160148.790   -17262286.01249 -13442901.74949  21160150.4474   21160156.7224
  22869788.395    10089465.14949   7864176.19249  22869790.5294   22869797.5064
  24397679.453    -7840180.95349  -6095202.00249  24397680.4684   24397688.1964
  22496679.004   -16681475.91149 -12978081.55349  22496680.8994   22496687.0564
  20859939.337   -10107033.01349  -7865987.13649  20859941.2354   20859946.9394
  23792744.772   -10418912.236 9  -8104975.040 9  23792747.208    23792753.307
  24832873.178    -6353698.48649  -4930401.49749  24832872.6424   24832880.8494
  22875926.393   -16031121.17349 -12479154.19049  22875928.0284   22875934.4044
 96  2 21 19 21 30.0010000  0  8 19 29  2 31 18 28 16 27
  21157051.356   -17278557.55949 -13455580.86849  21157054.0974   21157060.5714
  22886825.710    10178995.85349   7933940.33849  22886827.5994   22886834.1134
  24382258.167    -7921217.48049  -6158347.29149  24382261.1484   24382269.3014
  22490600.716   -16713420.85949 -13002973.70949  22490601.9084   22490607.7344
  20867354.545   -10068068.26649  -7835625.00449  20867355.9814   20867361.7464
  23798331.897   -10389561.766 9  -8082104.548 9  23798332.514    23798338.764
  24823343.467    -6403767.52149  -4969416.32749  24823344.9474   24823352.4284
  22864304.407   -16092190.46849 -12526740.61949  22864306.7464   22864313.2144
 96  2 21 19 22  0.0010000  0  8 19 29  2 31 18 28 16 27
  21153993.652   -17294630.03849 -13468104.87649  21153995.6094   21154001.7604
  22903922.680    10268840.94449   8003949.44649  22903924.8354   22903930.9714
  24366870.491    -8002080.73649  -6221357.60449  24366873.8894   24366877.4444
  22484620.809   -16744841.07549 -13027456.98949  22484623.0454   22484628.8014
  20874865.655   -10028594.05049  -7804865.88449  20874867.3544   20874873.2154
  23804020.731   -10359662.203 9  -8058806.195 9  23804021.723    23804028.228
  24813900.856    -6453382.04649  -5008076.98749  24813903.7074   24813911.8154
  22852700.631   -16153169.90249 -12574257.03349  22852702.6314   22852709.0724
 96  2 21 19 22 30.0010000  0  8 19 29  2 31 18 28 16 27
  21150973.412   -17310501.51049 -13480472.25149  21150975.2644   21150981.7264
  22921076.912    10358986.21749   8074192.48249  22921079.1644   22921085.4644
  24351518.176    -8082765.08549  -6284228.49149  24351519.6524   24351526.9754
  22478741.889   -16775736.41449 -13051531.26949  22478743.7274   22478749.8404
  20882475.765    -9988607.79949  -7773707.77749  20882476.7944   20882482.4964
  23809813.537   -10329219.340 9  -8035084.496 9  23809815.301    23809821.369
  24804548.861    -6502542.93049  -5046384.15649  24804549.1154   24804557.0714
  22841113.070   -16214061.88549 -12621705.31149  22841115.3324   22841121.9864
 96  2 21 19 23  0.0010000  0  8 19 29  2 31 18 28 16 27
  21147991.174   -17326171.59749 -13492682.70649  21147993.4854   21147999.7164
  22938287.968    10449428.70849   8144667.10149  22938289.4264   22938296.0494
  24336198.801    -8163265.38849  -6346955.97849  24336200.4384   24336207.9194
  22472966.373   -16806091.01049 -13075184.18149  22472967.3064   22472973.3424
  20890180.696    -9948110.89749  -7742151.76249  20890183.1114   20890189.0414
  23815711.539   -10298232.373 9  -8010938.808 9  23815712.043    23815718.099
  24795280.229    -6551246.77149  -5084335.18049  24795280.2304   24795288.0634
  22829543.114   -16274863.68649 -12669083.31449  22829545.1134   22829551.5824
 96  2 21 19 23 30.0010000  0  8 19 29  2 31 18 28 16 27
  21145048.704   -17341635.59949 -13504732.57349  21145050.7854   21145057.0124
  22955556.183    10540177.83849   8215380.66249  22955558.3834   22955565.0024
  24320916.684    -8243565.46349  -6409527.41149  24320917.9994   24320926.5044
  22467294.174   -16835895.34349 -13098408.31249  22467295.7664   22467301.9264
  20897987.088    -9907091.56149  -7710188.65749  20897988.7094   20897994.7414
  23821711.096   -10266696.630 9  -7986365.505 9  23821713.419    23821719.073
  24786099.220    -6599491.73249  -5121928.64549  24786100.5084   24786108.1684
  22817990.133   -16335576.09749 -12716391.67249  22817992.0334   22817998.7084
 96  2 21 19 24  0.0010000  0  8 19 29  2 31 18 28 16 27
  21142144.391   -17356899.31749 -13516626.37749  21142146.1164   21142152.3324
  22972883.738    10631236.74649   8286335.61149  22972886.2094   22972892.7134
  24305675.371    -8323663.00349  -6471941.03349  24305677.4454   24305682.1484
  22461728.974   -16865142.76049 -13121198.47949  22461729.8744   22461736.2784
  20905892.570    -9865548.70149  -7677817.61149  20905894.2774   20905900.0674
  23827816.985   -10234616.135 9  -7961367.725 9  23827817.735    23827823.806
  24777004.906    -6647276.07549  -5159163.19049  24777007.5834   24777015.5094
  22806455.850   -16396189.40049 -12763622.80249  22806457.6574   22806464.2204
 96  2 21 19 24 30.0010000  0  8 19 29  2 31 18 28 16 27
  21139278.275   -17371962.66949 -13528364.04849  21139279.9074   21139285.9824
  22990272.080    10722610.98449   8357536.28149  22990274.6254   22990281.0064
  24290474.904    -8403544.64349  -6534186.43349  24290476.5844   24290483.8284
  22456270.635   -16893825.61249 -13143548.72449  22456271.7494   22456278.3784
  20913894.197    -9823496.31949  -7645049.52949  20913896.3174   20913902.4424
  23834026.038   -10201982.123 9  -7935938.640 9  23834027.752    23834033.762
  24768005.877    -6694575.90549  -5196020.20549  24768005.3154   24768014.7534
  22794943.367   -16456689.56449 -12810765.76749  22794944.8044   22794951.1544
 96  2 21 19 25  0.0010000  0  8 19 29  2 31 18 28 16 27
  21136449.152   -17386829.68949 -13539948.73949  21136450.5854   21136456.7134
  23007721.374    10814301.35749   8428983.27949  23007722.6174   23007729.4314
  24275314.210    -8483209.28949  -6596262.75549  24275315.6554   24275325.0434
  22450920.948   -16921934.17249 -13165451.47449  22450922.8694   22450928.7584
  20921992.705    -9780939.67749  -7611888.52049  20921994.5944   20922000.6314
  23840340.907   -10168796.020 9  -7910079.344 9  23840343.103    23840348.870
  24759094.323    -6741396.24949  -5232503.57149  24759097.8174   24759105.4054
  22783451.737   -16517077.85849 -12857821.56449  22783453.5044   22783459.6894
 96  2 21 19 25 30.0010000  0  8 19 29  2 31 18 28 16 27
  21133656.706   -17401502.07249 -13551381.75849  21133658.7054   21133664.7894
  23025225.578    10906295.64649   8500667.10249  23025228.5544   23025234.7834
  24260196.634    -8562656.25249  -6658169.43749  24260197.4724   24260203.8374
  22445679.934   -16949478.45849 -13186914.52049  22445681.5314   22445687.0614
  20930187.267    -9737878.03449  -7578334.00249  20930188.9034   20930194.8164
  23846759.498   -10135060.987 9  -7883792.311 9  23846762.164    23846768.957
  24750278.563    -6787734.92649  -5268611.67949  24750279.8634   24750286.8314
  22771979.748   -16577360.87649 -12904795.31149  22771981.6634   22771988.4344
 96  2 21 19 26  0.0010000  0  8 19 29  2 31 18 28 16 27
  21130901.067   -17415979.96349 -13562663.22949  21130903.2674   21130909.6234
  23042787.293    10998580.02149   8572576.96549  23042789.4174   23042796.4984
  24245119.013    -8641890.20349  -6719910.14549  24245121.0334   24245127.7144
  22440545.545   -16976460.75249 -13207939.65849  22440546.8344   22440553.0894
  20938474.985    -9694324.28749  -7544396.02449  20938476.9334   20938482.9804
  23853285.409   -10100776.514 9  -7857077.154 9  23853286.748    23853292.231
  24741553.873    -6833578.01749  -5304333.57149  24741555.9204   24741563.4084
  22760530.830   -16637528.05349 -12951678.81449  22760532.3774   22760538.5964
 96  2 21 19 26 30.0010000  0  8 19 29  2 31 18 28 16 27
  21128180.143   -17430280.00049 -13573806.11449  21128182.2424   21128188.4854
  23060400.690    11091137.65849   8644699.74249  23060402.7734   23060409.4844
  24230079.970    -8720923.92549  -6781494.83549  24230079.8424   24230088.8584
  22435514.110   -17002897.91049 -13228540.01649  22435515.9644   22435521.7084
  20946851.933    -9650303.09849  -7510093.81549  20946854.0244   20946859.6174
  23859910.256   -10065956.851 9  -7829944.937 9  23859912.105    23859918.344
  24732922.100    -6878949.58449  -5339688.05449  24732921.1634   24732930.4524
  22749099.711   -16697597.55749 -12998486.20649  22749101.7664   22749108.1724
 96  2 21 19 27  0.0010000  0  8 19 29  2 31 18 28 16 27
  21125495.417   -17444389.11349 -13584800.22849  21125497.4274   21125503.4324
  23078065.126    11183962.60149   8717030.82149  23078066.9244   23078073.5824
  24215076.059    -8799761.08749  -6842926.33749  24215076.0454   24215084.1094
  22430588.035   -17028787.57149 -13248713.75749  22430589.5294   22430595.3944
  20955321.130    -9605798.93049  -7475415.25249  20955322.8034   20955328.7994
  23866640.054   -10030598.833 9  -7802393.247 9  23866640.894    23866647.304
  24724377.097    -6923842.24949  -5374669.32849  24724379.5984   24724386.5064
  22737688.341   -16757564.88549 -13045213.97949  22737689.9084   22737696.4734
 96  2 21 19 27 30.0010000  0  8 19 29  2 31 18 28 16 27
  21122848.471   -17458298.55949 -13595638.75549  21122850.6414   21122856.8874
  23095779.633    11277054.68849   8789570.05749  23095782.1414   23095788.3714
  24200108.853    -8878410.86749  -6904211.83449  24200112.6654   24200121.2104
  22425763.500   -17054140.21249 -13268469.03749  22425765.0014   22425770.9344
  20963882.321    -9560809.38349  -7440358.47349  20963884.1734   20963890.0184
  23873471.765    -9994698.362 9  -7774418.848 9  23873472.739    23873477.607
  24715931.809    -6968234.99849  -5409261.09449  24715931.0904   24715939.2054
  22726298.982   -16817416.06549 -13091851.24549  22726300.7034   22726307.2934
 96  2 21 19 28  0.0010000  0  8 19 29  2 31 18 28 16 27
  21120243.216   -17471990.67349 -13606307.93549  21120245.0654   21120251.3024
  23113549.372    11370430.66149   8862330.49349  23113550.5284   23113557.0704
  24185179.677    -8956873.50349  -6965351.54249  24185181.4424   24185189.7374
  22421043.240   -17078945.99249 -13287798.19349  22421044.4014   22421050.4774
  20972538.098    -9515324.08149  -7404915.39449  20972539.8564   20972545.7874
  23880408.306    -9958246.516 9  -7746014.809 9  23880409.167    23880414.566
  24707577.318    -7012114.30249  -5443452.74649  24707580.2264   24707588.3714
  22714932.994   -16877143.40349 -13138392.01749  22714934.7444   22714941.2464
 96  2 21 19 28 30.0010000  0  8 19 29  2 31 18 28 16 27
  21117678.271   -17485467.76249 -13616809.56249  21117680.7004   21117686.6424
  23131368.427    11464073.73949   8935299.07549  23131370.8364   23131377.2364
  24170278.537    -9035170.73449  -7026362.31949  24170281.0254   24170287.7834
  22416422.874   -17103223.67149 -13306715.85049  22416424.5674   22416430.6264
  20981285.416    -9469355.15449  -7369095.46449  20981287.3854   20981293.0254
  23887445.786    -9921267.011 9  -7717199.616 9  23887446.667    23887452.451
  24699321.994    -7055510.42549  -5477267.92349  24699323.3974   24699329.5124
  22703585.159   -16936779.25949 -13184861.50249  22703586.6624   22703593.1954
 96  2 21 19 29  0.0010000  0  8 19 29  2 31 18 28 16 27
  21115156.129   -17498726.00649 -13627140.66049  21115157.6344   21115163.8564
  23149241.368    11557999.18449   9008487.67749  23149243.6744   23149250.5674
  24155412.304    -9113297.59849  -7087240.38249  24155414.4994   24155422.6934
  22411905.403   -17126963.32449 -13325214.25749  22411907.0604   22411913.3794
  20990125.957    -9422896.69149  -7332894.07749  20990128.2684   20990133.9804
  23894581.828    -9883760.766 9  -7687973.977 9  23894583.372    23894588.846
  24691157.357    -7098413.09549  -5510698.54849  24691158.9654   24691165.5524
  22692252.247   -16996333.21249 -13231267.16249  22692253.5934   22692260.3774
 96  2 21 19 29 30.0010000  0  8 19 29  2 31 18 28 16 27
  21112675.456   -17511760.17049 -13637297.15449  21112677.3264   21112683.3904
  23167172.925    11652225.81749   9081910.97849  23167174.9124   23167181.4654
  24140582.711    -9191225.55549  -7147963.42449  24140582.5604   24140592.6674
  22407494.439   -17150143.42149 -13343276.65649  22407496.0384   22407501.9034
  20999061.525    -9375942.44849  -7296306.37049  20999063.2344   20999069.1704
  23901821.840    -9845717.950 9  -7658330.234 9  23901822.697    23901828.136
  24683086.273    -7140823.14349  -5543745.34749  24683086.9284   24683096.7414
  22680934.365   -17055802.94849 -13277607.20449  22680937.2814   22680943.7944
 96  2 21 19 30  0.0010000  0  8 19 29  2 31 18 28 16 27
  21110238.749   -17524563.25349 -13647273.58049  21110240.8164   21110246.9324
  23185162.249    11746761.49549   9155575.09749  23185163.9864   23185171.0954
  24125794.320    -9268941.47849  -7208521.23149  24125795.6904   24125802.4714
  22403191.830   -17172752.77049 -13360894.31849  22403193.7724   22403199.5854
  21008091.293    -9328491.94349  -7259331.96149  21008092.7074   21008098.7294
  23909162.658    -9807143.516 9  -7628272.243 9  23909163.095    23909169.669
  24675105.191    -7182765.54949  -5576427.69749  24675106.1654   24675115.6944
  22669633.934   -17115194.17449 -13323886.06749  22669635.4154   22669641.7674
 96  2 21 19 30 30.0010000  0  8 19 29  2 31 18 28 16 27
  21107847.705   -17537130.39849 -13657066.15949  21107849.5554   21107855.7914
  23203213.531    11841623.74349   9229493.68249  23203215.9774   23203222.5794
  24111050.550    -9346421.21749  -7268895.03449  24111052.3254   24111057.3384
  22399001.949   -17194768.52149 -13378049.42849  22399003.8874   22399010.0674
  21017216.809    -9280535.38049  -7221963.22749  21017218.5884   21017224.6134
  23916605.110    -9768023.613 9  -7597789.223 9  23916607.212    23916613.296
  24667215.183    -7224239.61349  -5608745.14149  24667214.7204   24667222.4834
  22658354.315   -17174467.95349 -13370073.41649  22658356.0264   22658362.1354
 96  2 21 19 31  0.0010000  0  8 19 29  2 31 18 28 16 27
  21105495.955   -17549487.30449 -13666694.91249  21105498.1194   21105504.1674
  23221322.816    11936790.27649   9303649.37449  23221325.7134   23221332.6154
  24096347.643    -9423681.84049  -7329098.08649  24096349.7814   24096355.9124
  22394923.625   -17216203.81149 -13394752.23549  22394924.6684   22394931.2604
  21026435.619    -9232092.35149  -7184215.42549  21026437.0074   21026442.8124
  23924151.533    -9728372.842 9  -7566892.527 9  23924152.893    23924158.186
  24659409.406    -7265256.52949  -5640706.34349  24659409.2654   24659416.7874
  22647095.441   -17233634.80849 -13416177.44149  22647096.8434   22647103.5144
 96  2 21 19 31 30.0010000  0  8 19 29  2 31 18 28 16 27
  21103186.896   -17561622.19949 -13676150.67249  21103188.8684   21103194.9394
  23239487.162    12032241.52849   9378026.93549  23239489.3134   23239496.4224
  24081688.321    -9500721.39849  -7389128.88149  24081688.8974   24081696.9864
  22390954.896   -17237066.39149 -13411008.77749  22390955.3014   22390961.4264
  21035746.607    -9183161.22949  -7146087.29249  21035748.4344   21035754.1894
  23931797.633    -9688190.427 9  -7535581.569 9  23931798.893    23931805.544
  24651686.421    -7305818.93149  -5672313.37449  24651688.8394   24651697.4574
  22635858.606   -17292683.04149 -13462189.03249  22635860.0164   22635866.8354
 96  2 21 19 32  0.0010000  0  8 19 29  2 31 18 28 16 27
  21100922.078   -17573523.35149 -13685424.29949  21100924.1654   21100930.4474
  23257708.032    12127990.89449   9452636.77149  23257710.2814   23257716.0434
  24067069.501    -9577537.01849  -7448985.16849  24067073.4904   24067079.3444
  22387094.263   -17257344.48549 -13426809.87149  22387096.6384   22387102.1184
  21045154.354    -9133723.31449  -7107564.25449  21045156.2534   21045161.9464
  23939547.749    -9647462.114 9  -7503845.246 9  23939549.523    23939555.746
  24644062.679    -7345899.93349  -5703545.32849  24644063.4184   24644070.7874
  22624649.295   -17351588.35249 -13508089.26249  22624650.9394   22624657.5414
 96  2 21 19 32 30.0010000  0  8 19 29  2 31 18 28 16 27
  21098694.410   -17585228.55649 -13694545.23949  21098696.7864   21098702.8724
  23275980.293    12224013.37749   9527459.43849  23275983.2024   23275989.0674
  24052494.764    -9654138.07549  -7508674.29749  24052492.8884   24052501.7424
  22383344.199   -17277050.61749 -13442165.28149  22383346.1954   22383352.0644
  21054654.447    -9083800.95649  -7068663.72849  21054655.9264   21054661.7784
  23947399.564    -9606202.873 9  -7471695.190 9  23947400.735    23947406.389
  24636529.575    -7385494.98749  -5734398.61049  24636528.7514   24636536.1284
  22613463.341   -17410371.11249 -13553893.99149  22613465.0174   22613471.7714
 96  2 21 19 33  0.0010000  0  8 19 29  2 31 18 28 16 27
  21096505.166   -17596735.18549 -13703511.45049  21096507.1234   21096513.2244
  23294303.976    12320302.87549   9602490.16149  23294305.4474   23294311.7604
  24037959.054    -9730520.90449  -7568193.34749  24037961.4874   24037966.9864
  22379702.508   -17296189.27949 -13457078.50449  22379704.0304   22379710.2594
  21064245.503    -9033398.21249  -7029388.87649  21064247.3094   21064253.5014
  23955351.214    -9564413.573 9  -7439132.109 9  23955353.002    23955359.283
  24629087.872    -7424581.17949  -5764855.34549  24629090.3714   24629099.7174
  22602296.173   -17469053.68949 -13599620.66849  22602298.0254   22602304.3034
 96  2 21 19 33 30.0010000  0  8 19 29  2 31 18 28 16 27
  21094352.724   -17608047.51449 -13712326.25149  21094354.3984   21094360.5674
  23312681.369    12416878.14849   9677743.56849  23312683.9634   23312689.5724
  24023465.832    -9806679.84949  -7627537.93449  24023466.8804   24023474.5154
  22376170.565   -17314752.27549 -13471543.15949  22376171.9694   22376178.1054
  21073929.883    -8982507.74349  -6989733.98349  21073931.3434   21073937.4854
  23963405.529    -9522091.959 9  -7406154.240 9  23963406.680    23963412.955
  24621750.110    -7463149.09549  -5794908.26249  24621752.3694   24621758.5544
  22591149.342   -17527633.19049 -13645267.01349  22591150.5984   22591157.0204
 96  2 21 19 34  0.0010000  0  8 19 29  2 31 18 28 16 27
  21092231.834   -17619190.90549 -13721009.41349  21092233.9094   21092239.9824
  23331112.763    12513739.24749   9753219.70149  23331115.7674   23331121.1934
  24009014.648    -9882623.06149  -7686714.43549  24009014.3874   24009024.0174
  22372747.692   -17332740.01949 -13485559.56849  22372748.9584   22372754.7334
  21083706.196    -8931130.89549  -6949700.09449  21083708.0184   21083714.4174
  23971558.928    -9479243.309 9  -7372765.700 9  23971560.593    23971566.147
  24614509.071    -7501199.01349  -5824557.53149  24614511.5064   24614518.3454
  22580018.627   -17586124.28049 -13690844.47549  22580020.2704   22580027.0164
 96  2 21 19 34 30.0010000  0  8 19 29  2 31 18 28 16 27
  21090145.463   -17630155.83749 -13729553.51249  21090147.4284   21090153.4694
  23349600.756    12610890.00749   9828921.54949  23349602.9634   23349608.5794
  23994604.756    -9958344.95349  -7745718.46349  23994606.7634   23994614.1404
  22369434.868   -17350150.07049 -13499125.82349  22369435.7324   22369441.5054
  21093577.131    -8879262.69549  -6909283.32649  21093578.3774   21093584.0954
  23979814.553    -9435862.341 9  -7338962.350 9  23979815.911    23979821.293
  24607370.509    -7538725.32249  -5853798.80349  24607368.7554   24607376.5784
  22568902.881   -17644538.29249 -13736361.86549  22568904.4134   22568910.9824
 96  2 21 19 35  0.0010000  0  8 19 29  2 31 18 28 16 27
  21088099.564   -17640906.54249 -13737930.67549  21088101.6944   21088107.9974
  23368143.433    12708333.81149   9904851.73949  23368145.9484   23368152.3884
  23980237.822   -10033836.34449  -7804542.87749  23980240.3094   23980248.8064
  22366234.827   -17366963.14849 -13512226.90949  22366236.4764   22366242.1504
  21103545.273    -8826876.09649  -6868462.61649  21103546.9614   21103552.9744
  23988173.128    -9391934.620 9  -7304732.972 9  23988175.127    23988181.052
  24600325.716    -7575724.68449  -5882629.46149  24600328.6054   24600336.9794
  22557803.134   -17702863.54849 -13781810.10349  22557805.3214   22557812.1564
 96  2 21 19 35 30.0010000  0  8 19 29  2 31 18 28 16 27
  21086091.198   -17651462.59949 -13746156.16849  21086092.8044   21086098.9864
  23386735.446    12806039.59849   9980986.06649  23386738.6854   23386745.2304
  23965914.005   -10109118.46149  -7863204.22949  23965914.3384   23965923.2474
  22363147.947   -17383185.65549 -13524867.81549  22363149.5384   22363155.2804
  21113610.605    -8773984.39149  -6827248.31549  21113612.0434   21113618.3094
  23996632.116    -9347483.942 9  -7270096.082 9  23996633.581    23996639.529
  24593380.096    -7612237.18449  -5911080.76449  24593381.3824   24593388.9034
  22546718.068   -17761121.04549 -13827205.54049  22546719.4004   22546725.8934
 96  2 21 19 36  0.0010000  0  8 19 29  2 31 18 28 16 27
  21084123.128   -17661803.08049 -13754213.68449  21084125.1114   21084131.3174
  23405373.897    12903980.75649  10057303.79649  23405376.4824   23405381.9664
  23951627.573   -10184188.03049  -7921699.95149  23951629.8994   23951637.5694
  22360174.450   -17398809.30249 -13537042.07649  22360176.6054   22360182.6624
  21123768.465    -8720603.45449  -6785652.79849  21123770.0464   21123776.2704
  24005189.637    -9302512.273 9  -7235053.209 9  24005191.569    24005196.740
  24586524.847    -7648264.51849  -5939154.02549  24586524.5844   24586532.2944
  22535645.858   -17819302.58249 -13872541.79349  22535647.7374   22535654.4914
 96  2 21 19 36 30.0020000  0  8 19 29  2 31 18 28 16 27
  21082203.542   -17671891.63449 -13762074.88749  21082205.2324   21082211.3764
  23424056.766    13002162.63249  10133809.09449  23424059.7124   23424066.9514
  23937386.941   -10259031.78449  -7980019.72949  23937387.8954   23937394.7374
  22357319.045   -17413812.83449 -13548733.12149  22357321.1664   22357327.1514
  21134019.715    -8666733.36049  -6743676.11349  21134021.2314   21134027.3714
  24013847.953    -9257010.425 9  -7199597.229 9  24013849.696    24013855.991
  24579760.425    -7683802.37649  -5966845.85649  24579762.1484   24579769.8854
  22524594.380   -17877379.18749 -13917796.27249  22524596.0644   22524602.6974
 96  2 21 19 37  0.0020000  0  8 19 29  2 31 18 28 16 27
  21080332.943   -17681721.35349 -13769734.40949  21080334.8204   21080341.0484
  23442784.899    13100569.87249  10210490.00049  23442786.3224   23442792.7114
  23923187.111   -10333643.10749  -8038158.38249  23923188.8104   23923196.7334
  22354585.206   -17428184.89149 -13559932.11549  22354586.2084   22354592.1764
  21144362.459    -8612380.38849  -6701323.16949  21144364.2704   21144370.3714
  24022607.374    -9210982.060 9  -7163730.980 9  24022608.678    24022614.860
  24573091.593    -7718848.15949  -5994154.26849  24573092.7584   24573101.6604
  22513567.384   -17935326.97549 -13962950.38249  22513569.0914   22513575.6994
 96  2 21 19 37 30.0020000  0  8 19 29  2 31 18 28 16 27
  21078508.219   -17691311.44949 -13777207.20349  21078509.7494   21078515.8374
  23461554.604    13199205.80849  10287349.11849  23461556.5674   23461562.2344
  23909032.041   -10408041.31749  -8096130.97349  23909032.9754   23909040.5044
  22351965.846   -17441949.17049 -13570657.51249  22351967.0084   22351972.8564
  21154793.162    -8557566.90749  -6658611.38049  21154794.8194   21154800.9184
  24031463.636    -9164437.872 9  -7127462.772 9  24031465.672    24031471.582
  24566519.177    -7753397.64549  -6021075.95149  24566518.9704   24566526.8114
  22502564.964   -17993144.68749 -14008003.13049  22502566.8924   22502573.1584
 96  2 21 19 38  0.0020000  0  8 19 29  2 31 18 28 16 27
  21076731.668   -17700646.83749 -13784481.52349  21076733.4384   21076739.3864
  23480371.978    13298098.98849  10364408.68649  23480374.9414   23480381.9664
  23894915.874   -10482214.70849  -8153928.35749  23894917.2934   23894925.1174
  22349461.549   -17455106.22049 -13580909.74249  22349463.1014   22349469.0724
  21165315.741    -8502270.92249  -6615523.62049  21165317.3904   21165323.5894
  24040423.553    -9117358.375 9  -7090777.467 9  24040424.844    24040430.858
  24560042.789    -7787431.65449  -6047595.95349  24560043.0044   24560050.8424
  22491592.753   -18050801.49449 -14052930.49549  22491594.8564   22491601.7134
 96  2 21 19 38 30.0020000  0  8 19 29  2 31 18 28 16 27
  21074997.417   -17709758.46149 -13791581.48249  21074999.6694   21075005.6214
  23499241.344    13397259.29749  10441676.39549  23499244.4644   23499250.8084
  23880839.667   -10556179.17449  -8211562.98049  23880841.2404   23880850.3104
  22347068.832   -17467684.26949 -13590710.80549  22347069.7064   22347075.5184
  21175931.397    -8446483.16249  -6572052.65449  21175933.2624   21175939.6074
  24049483.211    -9069755.605 9  -7053684.410 9  24049483.404    24049489.816
  24553661.268    -7820966.29749  -6073726.85149  24553662.6534   24553668.1104
  22480645.781   -18108328.88249 -14097757.01249  22480647.8954   22480654.6214
 96  2 21 19 39  0.0020000  0  8 19 29  2 31 18 28 16 27
  21073302.139   -17718667.01949 -13798523.21149  21073304.5644   21073310.1984
  23518165.429    13496696.43849  10519159.80949  23518167.3064   23518173.6604
  23866804.446   -10629939.80449  -8269038.74249  23866804.9594   23866813.8834
  22344782.455   -17479693.59649 -13600068.70549  22344784.0484   22344790.4284
  21186642.358    -8390199.26049  -6528195.08749  21186643.7684   21186650.0914
  24058641.141    -9021626.287 9  -7016181.056 9  24058642.080    24058647.989
  24547375.094    -7853984.99249  -6099455.70749  24547377.7604   24547386.3174
  22469721.167   -18165739.57349 -14142492.59949  22469722.8184   22469729.5064
 96  2 21 19 39 30.0020000  0  8 19 29  2 31 18 28 16 27
  21071644.812   -17727377.38549 -13805310.49849  21071646.6794   21071652.7974
  23537138.967    13596411.54049  10596859.83249  23537141.6704   23537149.1774
  23852807.126   -10703495.67849  -8326354.96949  23852808.4644   23852816.7594
  22342603.104   -17491144.17349 -13608991.21249  22342605.3474   22342611.2074
  21197445.686    -8333426.20049  -6483956.35549  21197447.4104   21197453.6944
  24067897.334    -8972979.482 9  -6978274.462 9  24067899.550    24067905.594
  24541189.960    -7886493.63649  -6124787.12449  24541191.7814   24541198.9924
  22458817.231   -18223039.45349 -14187141.84049  22458819.0714   22458825.7044
 96  2 21 19 40  0.0020000  0  8 19 29  2 31 18 28 16 27
  21070027.722   -17735876.33649 -13811933.05549  21070029.4144   21070035.5144
  23556169.450    13696413.35149  10674783.26049  23556171.0644   23556178.0194
  23838850.868   -10776829.08749  -8383497.83249  23838853.9514   23838861.0284
  22340536.769   -17502013.10449 -13617460.49249  22340537.2654   22340542.8174
  21208346.872    -8276141.07649  -6439318.61449  21208348.4744   21208354.8504
  24077254.762    -8923804.069 9  -6939955.983 9  24077257.134    24077263.447
  24535105.323    -7918473.50549  -6149706.52749  24535106.0274   24535114.5624
  22447933.827   -18280231.52149 -14231707.06949  22447936.0794   22447942.4004
 96  2 21 19 40 30.0020000  0  8 19 29  2 31 18 28 16 27
  21068449.490   -17744166.50149 -13818392.91949  21068451.9004   21068458.1044
  23575249.763    13796684.80449  10752916.79449  23575252.5924   23575259.4284
  23824937.672   -10849946.06649  -8440472.07349  23824939.7504   23824948.1074
  22338577.659   -17512299.73749 -13625476.03649  22338579.5844   22338585.9074
  21219339.552    -8218369.11149  -6394301.51549  21219342.1764   21219348.2924
  24086712.757    -8874110.727 9  -6901233.904 9  24086713.653    24086719.755
  24529120.909    -7949904.26849  -6174198.03349  24529125.5244   24529133.7824
  22437069.267   -18337325.32549 -14276195.72749  22437070.8124   22437077.5844
 96  2 21 19 41  0.0020000  0  8 19 29  2 31 18 28 16 27
  21066912.464   -17752246.79549 -13824689.25049  21066914.2244   21066920.2204
  23594378.968    13897209.22549  10831247.44349  23594381.8764   23594388.8794
  23811066.829   -10922843.28049  -8497275.06249  23811067.2914   23811075.7604
  22336732.337   -17522002.20149 -13633036.38649  22336733.1114   22336739.3134
  21230423.920    -8160125.57949  -6348916.96349  21230425.7484   21230431.8064
  24096265.632    -8823906.546 9  -6862113.764 9  24096267.012    24096273.298
  24523246.003    -7980787.80249  -6198263.15149  24523247.8364   24523255.8834
  22426227.637   -18394298.74149 -14320590.58049  22426229.5964   22426235.9774
 96  2 21 19 41 30.0020000  0  8 19 29  2 31 18 28 16 27
  21065414.441   -17760116.76649 -13830821.69349  21065416.4274   21065422.7674
  23613556.827    13997978.93149  10909769.22749  23613557.5604   23613563.9024
  23797237.894   -10995510.48349  -8553898.84249  23797239.1474   23797246.3454
  22334996.069   -17531121.71949 -13640142.49049  22334997.4994   22335003.9594
  21241596.961    -8101413.04349  -6303166.95049  21241598.4254   21241604.5294
  24105915.041    -8773198.281 9  -6822600.861 9  24105916.400    24105922.372
  24517469.077    -8011144.16949  -6221917.48749  24517471.4114   24517479.7074
  22415407.022   -18451158.43249 -14364896.81649  22415409.6334   22415416.1394
 96  2 21 19 42  0.0020000  0  8 19 29  2 31 18 28 16 27
  21063956.652   -17767776.81949 -13836790.56549  21063958.9154   21063965.0564
  23632779.604    14099007.17349  10988492.47249  23632783.1514   23632789.9224
  23783455.829   -11067937.77149  -8610335.65249  23783456.9434   23783465.2164
  22333373.959   -17539648.84649 -13646786.99049  22333375.0904   22333381.3534
  21252857.395    -8042234.02249  -6257053.44649  21252859.5774   21252865.7064
  24115663.491    -8721975.985 9  -6782687.406 9  24115664.125    24115669.732
  24511794.851    -8040964.88249  -6245154.44049  24511796.7054   24511804.8594
  22404608.907   -18507906.63049 -14409116.17249  22404610.6894   22404617.3524
 96  2 21 19 42 30.0020000  0  8 19 29  2 31 18 28 16 27
  21062538.346   -17775231.20149 -13842599.18049  21062540.3244   21062546.3184
  23652055.953    14200296.06349  11067418.80649  23652057.4244   23652064.9084
  23769721.713   -11140116.39149  -8666578.70449  23769721.8814   23769729.5734
  22331864.423   -17547578.46249 -13652965.90649  22331866.6664   22331872.1814
  21264204.610    -7982605.73749  -6210589.86149  21264206.5734   21264212.7884
  24125506.984    -8670242.345 9  -6742375.491 9  24125508.463    24125514.502
  24506216.875    -8070270.17549  -6267989.74749  24506220.5204   24506228.9144
  22393833.036   -18564532.35649 -14453240.09449  22393835.1934   22393841.8134
 96  2 21 19 43  0.0020000  0  8 19 29  2 31 18 28 16 27
  21061160.459   -17782473.15349 -13848242.26149  21061162.2704   21061168.6154
  23671383.629    14301864.84749  11146563.24649  23671385.1104   23671392.4204
  23756035.670   -11212024.19249  -8722610.72749  23756038.3824   23756047.3424
  22330473.725   -17554890.07249 -13658663.25949  22330474.7844   22330480.9634
  21275643.056    -7922497.81949  -6163752.53749  21275644.6644   21275651.0434
  24135451.501    -8617982.541 9  -6701653.588 9  24135453.004    24135459.241
  24500735.113    -8099067.90349  -6290429.53849  24500740.2654   24500749.1854
  22383083.600   -18621022.70749 -14497258.53149  22383085.4764   22383091.8174
 96  2 21 19 43 30.0020000  0  8 19 29  2 31 18 28 16 27
  21059823.441   -17789498.97049 -13853716.92949  21059825.3194   21059831.6884
  23690764.675    14403713.56749  11225925.81549  23690766.7374   23690773.4284
  23742403.634   -11283667.89449  -8778436.96849  23742404.9644   23742413.0854
  22329201.638   -17561572.51949 -13663870.34649  22329203.2374   22329209.3414
  21287171.293    -7861916.00649  -6116545.94749  21287173.2144   21287179.5754
  24145495.842    -8565198.002 9  -6660522.798 9  24145497.718    24145503.552
  24495353.412    -8127352.44049  -6312469.45249  24495357.9404   24495365.7494
  22372355.986   -18677395.81749 -14541185.60649  22372357.9434   22372364.6524
 96  2 21 19 44  0.0020000  0  8 19 29  2 31 18 28 16 27
  21058526.215   -17796314.02749 -13859027.36349  21058528.4694   21058534.6274
  23710195.394    14505819.44549  11305488.78049  23710197.1234   23710204.2014
  23728815.753   -11355079.37049  -8834082.25249  23728816.6164   23728823.3304
  22328048.787   -17567629.25349 -13668589.87049  22328050.6484   22328056.8504
  21298787.392    -7800875.07049  -6068981.59649  21298788.8724   21298795.3254
  24155635.758    -8511907.361 9  -6618997.642 9  24155638.605    24155644.420
  24490069.398    -8155132.00049  -6334115.85649  24490071.8074   24490079.9094
  22361649.531   -18733659.47249 -14585027.39449  22361651.1954   22361657.8294
 96  2 21 19 44 30.0020000  0  8 19 29  2 31 18 28 16 27
  21057273.380   -17802898.44649 -13864158.08149  21057275.1964   21057281.4854
  23729673.711    14608183.57249  11385252.96649  23729676.4264   23729683.2624
  23715270.456   -11426246.78449  -8889537.35249  23715273.3144   23715281.4564
  22327016.554   -17573052.35649 -13672815.65649  22327018.9424   22327024.4894
  21310496.408    -7739338.89549  -6021031.35449  21310498.6364   21310505.2314
  24165875.623    -8458100.883 9  -6577070.531 9  24165877.933    24165883.968
  24484880.886    -8182399.60249  -6355363.34349  24484882.7464   24484892.2244
  22350968.526   -18789788.62249 -14628764.37649  22350970.3414   22350976.8224
 96  2 21 19 45  0.0020000  0  8 19 29  2 31 18 28 16 27
  21056066.348   -17809240.48649 -13869099.93249  21056068.5624   21056074.8294
  23749198.478    14710781.61649  11465199.43049  23749199.8724   23749206.7874
  23701771.383   -11497192.33049  -8944819.57149  23701772.3714   23701780.0464
  22326099.959   -17577873.32249 -13676572.24249  22326101.4674   22326107.0884
  21322299.729    -7677315.68949  -5972701.60549  21322301.1004   21322307.7234
  24176211.158    -8403794.934 9  -6534754.230 9  24176211.740    24176218.021
  24479785.938    -8209162.65549  -6376217.67749  24479789.9814   24479798.0114
  22340310.783   -18845797.12349 -14672407.34549  22340312.1844   22340318.8194
 96  2 21 19 45 30.0020000  0  9 19 29  2 31 12 18 28 16 27
  21054908.865   -17815325.64449 -13873841.61549  21054910.6334   21054916.9054
  23768764.067    14813600.13949  11545317.69349  23768765.2774   23768772.8034
  23688314.714   -11567909.46149  -8999923.80449  23688315.9604   23688323.6034
  22325296.909   -17582092.21449 -13679859.68049  22325298.7284   22325304.6294
  24846827.127    -2497913.89419  -1934351.18119  24846828.832    24846839.695
  21334192.629    -7614817.84849  -5924002.01249  21334194.3244   21334200.8554
  24186639.290    -8348993.285 9  -6492051.654 9  24186639.935    24186645.894
  24474794.837    -8235415.93549  -6396674.78749  24474794.4394   24474801.6134
  22329672.662   -18901693.31749 -14715962.80549  22329675.2524   22329682.0594
 96  2 21 19 46  0.0020000  0  9 19 29  2 31 12 18 28 16 27
  21053800.052   -17821151.70749 -13878381.40449  21053801.9924   21053808.0854
  23788371.008    14916638.11949  11625606.96849  23788372.6564   23788380.7094
  23674902.803   -11638380.16849  -9054836.00649  23674905.6504   23674913.1194
  22324607.520   -17585714.24049 -13682682.02849  22324609.1834   22324614.9644
  24833700.809    -2566895.251 9  -1988102.839 9  24833701.713    24833712.787
  21346176.719    -7551839.09249  -5874927.67949  21346178.6704   21346185.2594
  24197162.713    -8293690.059 9  -6448958.236 9  24197164.037    24197170.291
  24469894.656    -8261156.66049  -6416732.49949  24469896.0684   24469904.2104
  22319061.369   -18957462.50549 -14759419.30349  22319062.6714   22319069.2304
 96  2 21 19 46 30.0020000  0  9 19 29  2 31 12 18 28 16 27
  21052740.248   -17826719.94649 -13882720.29549  21052742.2884   21052748.5634
  23808018.451    15019886.65049  11706060.29349  23808021.1284   23808027.7844
  23661542.722   -11708593.30549  -9109547.52949  23661544.5194   23661552.2804
  22324030.683   -17588746.61349 -13685044.91149  22324032.2944   22324037.8094
  24820605.808    -2635705.032 9  -2041720.819 9  24820607.006    24820618.044
  21358254.158    -7488376.72149  -5825476.50449  21358255.1774   21358261.5514
  24207782.393    -8237883.839 9  -6405472.870 9  24207783.658    24207790.123
  24465097.004    -8286377.02049  -6436384.72449  24465096.9544   24465104.6294
  22308474.089   -19013097.67649 -14802771.37049  22308475.8894   22308482.4814
 96  2 21 19 47  0.0020000  0  9 19 29  2 31 12 18 28 16 27
  21051726.430   -17832050.83449 -13886874.23249  21051728.0694   21051734.1594
  23827702.917    15123325.46249  11786661.89449  23827704.8564   23827711.5154
  23648228.859   -11778562.52049  -9164068.96549  23648229.8374   23648237.4634
  22323565.575   -17591189.36949 -13686948.35149  22323567.6364   22323573.2744
  24807542.370    -2704354.691 9  -2095214.011 9  24807544.086    24807555.095
  21370416.847    -7424457.09749  -5775669.02649  21370418.7614   21370425.3134
  24218494.118    -8181587.815 9  -6361605.851 9  24218496.271    24218502.277
  24460396.355    -8311071.10949  -6455626.87849  24460397.1904   24460404.1754
  22297909.062   -19068619.98649 -14846035.48749  22297910.2814   22297916.8954
 96  2 21 19 47 30.0020000  0  9 19 29  2 31 12 18 28 16 27
  21050753.454   -17837161.88649 -13890856.87449  21050755.2804   21050761.5004
  23847424.464    15226972.25249  11867425.55249  23847427.6094   23847434.6404
  23634963.330   -11848268.71449  -9218385.45149  23634964.7404   23634972.3274
  22323221.207   -17593001.34849 -13688360.27349  22323222.2854   22323228.3104
  24794512.964    -2772826.771 9  -2148568.843 9  24794514.285    24794525.698
  21382671.758    -7360060.51049  -5725489.88949  21382673.1804   21382679.6074
  24229302.731    -8124785.983 9  -6317344.681 9  24229305.051    24229311.216
  24455799.488    -8335219.05849  -6474443.44249  24455801.9844   24455809.2554
  22287367.092   -19124013.06449 -14889198.90849  22287369.4514   22287375.7454
 96  2 21 19 48  0.0020000  0  9 19 29  2 31 12 18 28 16 27
  21049819.420   -17842067.68849 -13894679.57749  21049821.6244   21049827.8054
  23867189.393    15330832.58649  11948355.60849  23867192.3294   23867198.8274
  23621744.036   -11917736.60449  -9272516.24849  23621745.5324   23621753.4244
  22322994.507   -17594193.95349 -13689289.57349  22322995.6214   22323001.7954
  24781513.586    -2841129.351 9  -2201791.604 9  24781516.870    24781527.403
  21395015.959    -7295188.20349  -5674940.06349  21395017.9564   21395024.4484
  24240208.080    -8067487.702 9  -6272696.669 9  24240208.954    24240215.546
  24451311.037    -8358820.96749  -6492834.52749  24451311.2034   24451319.9734
  22276854.156   -19179258.42549 -14932247.22749  22276856.1804   22276863.0024
 96  2 21 19 48 30.0020000  0  9 19 29  2 31 12 18 28 16 27
  21048928.594   -17846753.36549 -13898330.75349  21048930.2924   21048936.3014
  23886997.314    15434923.77149  12029465.56149  23887000.0044   23887006.6824
  23608568.663   -11986972.58649  -9326466.32549  23608570.4184   23608578.1314
  22322887.586   -17594755.21149 -13689726.91149  22322888.7424   22322894.6504
  24768550.760    -2909255.720 9  -2254877.041 9  24768551.681    24768563.909
  21407451.822    -7229836.04249  -5624016.32649  21407453.8224   21407460.1124
  24251206.425    -8009687.725 9  -6227657.730 9  24251207.760    24251214.528
  24446924.287    -8381864.04349  -6510790.17349  24446925.4124   24446934.7904
  22266372.937   -19234339.78749 -14975167.76049  22266374.9804   22266381.2584
 96  2 21 19 49  0.0020000  0  9 19 29  2 31 12 18 28 16 27
  21048078.306   -17851220.81749 -13901811.88449  21048080.1224   21048086.0094
  23906853.106    15539258.14749  12110765.00349  23906853.4614   23906860.7094
  23595437.549   -12055979.28749  -9380237.73649  23595439.3064   23595446.7274
  22322899.261   -17594688.20549 -13689674.69849  22322901.7184   22322907.4634
  24755619.327    -2977211.434 9  -2307829.512 9  24755621.436    24755631.532
  21419975.137    -7164027.09649  -5572736.64349  21419977.1394   21419983.5034
  24262299.673    -7951393.189 9  -6182233.426 9  24262300.883    24262306.865
  24442643.170    -8404361.84349  -6528320.91949  24442644.2214   24442652.0154
  22255919.392   -19289274.61449 -15017974.10649  22255921.2974   22255927.2094
 96  2 21 19 49 30.0020000  0  9 19 29  2 31 12 18 28 16 27
  21047270.553   -17855462.74049 -13905117.28249  21047272.8934   21047279.0464
  23926756.578    15643855.28549  12192269.18749  23926757.9004   23926765.9904
  23582349.083   -12124756.69549  -9433830.49449  23582350.9174   23582358.7774
  22323030.868   -17593996.01949 -13689135.33049  22323033.2584   22323039.2764
  24742719.272    -3044996.408 9  -2360648.921 9  24742722.357    24742732.725
  21432584.469    -7097766.98549  -5521105.40749  21432586.1844   21432592.4244
  24273486.384    -7892605.633 9  -6136424.945 9  24273487.579    24273494.238
  24438459.996    -8426334.26649  -6545442.28949  24438463.1684   24438471.3984
  22245495.523   -19344052.79549 -15060658.39149  22245497.4684   22245503.7744
 96  2 21 19 50  0.0020000  0  9 19 29  2 31 12 18 28 16 27
  21046508.705   -17859465.28449 -13908236.14949  21046510.9904   21046517.2034
  23946710.889    15748711.83749  12273975.54449  23946712.1704   23946719.7494
  23569305.489   -12193301.44849  -9487241.94249  23569307.2074   23569314.8384
  22323279.792   -17592693.23949 -13688120.17449  22323281.2144   22323286.8234
  24729852.409    -3112609.438 9  -2413334.402 9  24729855.590    24729865.152
  21445278.665    -7031058.25749  -5469124.60049  21445280.2314   21445286.5774
  24284767.100    -7833325.402 9  -6090232.569 9  24284768.388    24284775.094
  24434380.035    -8447791.49049  -6562162.19049  24434380.4664   24434388.3134
  22235100.623   -19398679.76949 -15103224.84349  22235102.1684   22235108.2954
 96  2 21 19 50 30.0020000  0  9 19 29  2 31 12 18 28 16 27
  21045792.230   -17863231.61249 -13911170.95249  21045794.3074   21045800.5244
  23966709.115    15853802.99449  12355864.67549  23966711.0994   23966717.5184
  23556307.034   -12261609.90149  -9540469.27249  23556308.7774   23556316.6294
  22323643.227   -17590784.15249 -13686632.57549  22323644.2444   22323650.3834
  24717019.802    -3180051.887 9  -2465886.885 9  24717022.003    24717032.032
  21458057.144    -6963905.06049  -5416797.45449  21458059.1154   21458065.3954
  24296140.980    -7773555.132 9  -6043658.343 9  24296142.394    24296148.687
  24430392.523    -8468748.48049  -6578492.31949  24430392.3564   24430399.3894
  22224728.070   -19453188.18649 -15145698.91449  22224729.6194   22224735.6274
 96  2 21 19 51  0.0020000  0  9 19 29  2 31 12 18 28 16 27
  21045117.186   -17866779.23849 -13913935.33749  21045119.2414   21045125.2194
  23986748.994    15959118.27149  12437928.44549  23986751.3114   23986759.4524
  23543354.034   -12329678.49949  -9593509.70749  23543355.8964   23543363.1524
  22324122.679   -17588266.77549 -13684670.98249  22324123.5224   22324129.2134
  24704217.412    -3247326.763 9  -2518308.775 9  24704219.191    24704229.642
  21470922.964    -6896295.22849  -5364114.48549  21470924.8084   21470930.9044
  24307606.659    -7713299.703 9  -5996706.059 9  24307608.409    24307614.812
  24426496.749    -8489216.31749  -6594441.27749  24426497.9394   24426505.7004
  22214374.903   -19507592.35249 -15188091.75249  22214376.3014   22214383.0634
 96  2 21 19 51 30.0020000  0  9 19 29  2 31 12 18 28 16 27
  21044484.355   -17870104.09949 -13916526.13749  21044486.3624   21044492.7454
  24006829.960    16064651.45149  12520162.03049  24006833.2704   24006839.8694
  23530448.310   -12397497.53749  -9646355.67649  23530450.6864   23530458.2604
  22324718.290   -17585132.42749 -13682228.63749  22324719.9684   22324725.1514
  24691448.178    -3314423.442 9  -2570591.767 9  24691450.866    24691461.838
  21483882.572    -6828196.26649  -5311050.37849  21483883.8534   21483889.9434
  24319167.119    -7652550.064 9  -5949368.684 9  24319168.919    24319175.113
  24422696.991    -8509176.14749  -6609994.37049  24422699.3864   24422706.8624
  22204046.315   -19561869.14549 -15230385.34349  22204048.0224   22204054.2614
 96  2 21 19 52  0.0020000  0  9 19 29  2 31 12 18 28 16 27
  21043894.205   -17873207.33649 -13918944.24549  21043896.2204   21043902.4994
  24026949.417    16170365.93249  12602536.87349  24026950.8214   24026957.4434
  23517587.697   -12465083.00849  -9699019.65449  23517589.2844   23517596.6444
  22325428.677   -17581399.07849 -13679319.53149  22325430.6214   22325436.3134
  24678713.835    -3381352.053 9  -2622743.885 9  24678715.809    24678725.988
  21496933.208    -6759612.33049  -5257608.37149  21496934.7994   21496941.0614
  24330819.336    -7591317.703 9  -5901655.172 9  24330821.311    24330827.252
  24418998.239    -8528616.43349  -6625142.65149  24419000.3054   24419007.6234
  22193739.667   -19616027.23349 -15272586.42649  22193742.0774   22193748.4654
 96  2 21 19 52 30.0020000  0  9 19 29  2 31 12 18 28 16 27
  21043349.426   -17876071.81249 -13921176.30749  21043351.0944   21043357.3194
  24047102.289    16276279.15549  12685066.57249  24047105.2584   24047111.2694
  23504770.959   -12532433.44049  -9751500.47749  23504772.6534   23504780.1674
  22326256.964   -17577050.50849 -13675931.03849  22326258.0404   22326263.7154
  24666010.047    -3448103.146 9  -2674757.573 9  24666012.200    24666023.737
  21510077.829    -6690537.28849  -5203783.68249  21510079.5964   21510085.5754
  24342565.652    -7529594.671 9  -5853559.315 9  24342566.304    24342572.871
  24415404.230    -8547506.20549  -6639861.97349  24415404.9114   24415412.9314
  22183461.802   -19670043.58449 -15314677.06949  22183463.2984   22183469.6164
 96  2 21 19 53  0.0020000  0  9 19 29  2 31 12 18 28 16 27
  21042847.365   -17878710.63049 -13923232.52849  21042848.9084   21042855.2274
  24067293.333    16382390.00049  12767750.28449  24067297.3424   24067303.8474
  23491997.272   -12599558.30549  -9803805.54549  23491998.9174   23492007.0954
  22327199.585   -17572096.81249 -13672071.02249  22327200.6884   22327206.0884
  24653338.886    -3514696.180 9  -2726648.126 9  24653340.942    24653350.908
  21523309.597    -6621001.39849  -5149599.89249  21523311.7074   21523317.6724
  24354400.808    -7467402.096 9  -5805097.578 9  24354401.580    24354407.365
  24411913.500    -8565854.42249  -6654159.26649  24411914.7394   24411921.9084
  22173210.159   -19723916.18549 -15356655.69549  22173211.4364   22173217.8584
 96  2 21 19 53 30.0020000  0  9 19 29  2 31 12 18 28 16 27
  21042394.926   -17881089.00349 -13925085.80749  21042396.3394   21042402.3854
  24087526.544    16488705.52149  12850593.44849  24087528.5084   24087535.0224
  23479269.241   -12666445.90749  -9855925.72349  23479271.0394   23479278.5674
  22328259.676   -17566522.45449 -13667727.36449  22328261.7144   22328267.1584
  24640699.039    -3581116.278 9  -2778403.909 9  24640701.348    24640711.703
  21536629.185    -6551007.18849  -5095058.97049  21536631.3274   21536637.2704
  24366326.251    -7404726.822 9  -5756259.700 9  24366327.771    24366334.250
  24408527.635    -8583639.24249  -6668017.58249  24408530.0154   24408537.1854
  22162987.764   -19777632.05149 -15398512.19349  22162989.6334   22162996.1104
 96  2 21 19 54  0.0020000  0  9 19 29  2 31 12 18 28 16 27
  21041990.776   -17883209.83249 -13926738.40149  21041992.7944   21041998.7884
  24107796.009    16595224.18249  12933594.93449  24107797.9814   24107805.5014
  23466583.996   -12733107.09549  -9907869.48649  23466585.4504   23466593.2744
  22329438.001   -17560327.37949 -13662900.03949  22329440.1314   22329445.8614
  24628091.459    -3647370.262 9  -2830030.305 9  24628092.875    24628103.437
  21550030.848    -6480580.58149  -5040181.11249  21550032.8064   21550039.1494
  24378344.352    -7341577.123 9  -5707052.167 9  24378344.739    24378351.611
  24405251.047    -8600869.07749  -6681443.42349  24405251.1394   24405259.0324
  22152791.823   -19831215.23849 -15440265.31249  22152793.1864   22152799.4414
 96  2 21 19 54 30.0020000  0  9 19 29  2 31 12 18 28 16 27
  21041634.523   -17885082.49949 -13928197.62849  21041636.3574   21041642.4734
  24128109.314    16701969.25349  13016772.80249  24128110.9734   24128119.3114
  23453946.521   -12799519.01049  -9959618.99949  23453947.9454   23453955.0214
  22330741.345   -17553484.14649 -13657567.65649  22330742.5794   22330748.3964
  24615518.797    -3713448.911 9  -2881520.067 9  24615519.211    24615528.918
  21563514.581    -6409720.92849  -4984965.82249  21563516.8064   21563523.0204
  24390452.328    -7277945.607 9  -5657469.200 9  24390453.590    24390459.939
  24402075.515    -8617545.24749  -6694437.83249  24402077.3334   24402085.8354
  22142620.176   -19884664.96849 -15481914.44049  22142621.7234   22142628.2224
 96  2 21 19 55  0.0020000  0  9 19 29  2 31 12 18 28 16 27
  21041319.619   -17886736.60549 -13929486.53749  21041321.5144   21041327.6944
  24148459.445    16808918.81449  13100110.05549  24148462.1884   24148470.9674
  23441355.462   -12865683.58249 -10011175.78649  23441357.2044   23441364.4964
  22332164.736   -17546007.17849 -13651741.44749  22332165.3184   22332170.8674
  24602972.696    -3779368.007 9  -2932885.505 9  24602974.962    24602984.571
  21577078.523    -6338444.66049  -4929425.89349  21577080.5344   21577086.5914
  24402648.588    -7213849.404 9  -5607524.113 9  24402650.566    24402656.609
  24399001.687    -8633695.10249  -6707022.15149  24399004.5154   24399011.4794
  22132468.661   -19938009.56849 -15523481.64049  22132470.6184   22132476.9204
 96  2 21 19 55 30.0020000  0  9 19 29  2 31 12 18 28 16 27
  21041046.368   -17888170.95849 -13930604.21849  21041048.9974   21041055.0654
  24168853.520    16916077.03449  13183609.88849  24168854.6504   24168862.3614
  23428815.232   -12931584.32349 -10062526.98649  23428816.6914   23428823.8914
  22333708.319   -17537893.24349 -13645418.90249  22333709.3584   22333715.2724
  24590462.462    -3845113.340 9  -2984115.524 9  24590464.133    24590474.603
  21590725.602    -6266727.14349  -4873542.13749  21590727.6214   21590733.9854
  24414937.338    -7149276.275 9  -5557207.416 9  24414939.131    24414944.861
  24396032.513    -8649306.40549  -6719186.80249  24396033.7274   24396041.8134
  22122338.111   -19991248.04149 -15564966.15249  22122340.0304   22122346.0724
 96  2 21 19 56  0.0020000  0  9 19 29  2 31 12 18 28 16 27
  21040810.159   -17889410.55549 -13931570.13749  21040812.7604   21040818.8074
  24189287.397    17023455.07849  13267281.00249  24189288.4974   24189295.0794
  23416326.056   -12997213.96749 -10113666.93849  23416327.7654   23416335.6034
  22335371.720   -17529148.95949 -13638605.17449  22335373.1274   22335379.2154
  24577983.820    -3910690.274 9  -3035214.388 9  24577985.535    24577995.103
  21604456.407    -6194571.60349  -4817317.07049  21604458.3304   21604464.7604
  24427312.550    -7084233.229 9  -5506524.531 9  24427316.035    24427322.295
  24393165.219    -8664385.30249  -6730936.58849  24393164.5224   24393172.0174
  22112229.068   -20044370.01949 -15606359.88149  22112230.9794   22112237.1604
 96  2 21 19 56 30.0020000  0  9 19 29  2 31 12 18 28 16 27
  21040611.122   -17890458.49049 -13932386.70649  21040613.1584   21040619.4514
  24209759.303    17131048.70249  13351120.11749  24209763.3504   24209770.2524
  23403890.216   -13062566.86449 -10164591.24949  23403891.6684   23403898.5834
  22337152.302   -17519792.40049 -13631314.34249  22337153.8514   22337159.6404
  24565535.500    -3976103.706 9  -3086185.851 9  24565537.776    24565546.548
  21618272.326    -6121970.02949  -4760744.43649  21618274.4264   21618280.8834
  24439780.629    -7018726.728 9  -5455480.525 9  24439781.954    24439787.572
  24390389.794    -8678941.12649  -6742278.82349  24390393.9784   24390401.4374
  22102144.546   -20097366.07549 -15647655.48549  22102146.2674   22102152.1834
 96  2 21 19 57  0.0020000  0  9 19 29  2 31 12 18 28 16 27
  21040452.811   -17891290.71549 -13933035.18949  21040455.0374   21040461.1524
  24230271.937    17238848.22949  13435119.64949  24230276.7124   24230283.5064
  23391507.794   -13127637.99549 -10215295.99249  23391508.7674   23391516.8094
  22339045.457   -17509841.51249 -13623560.40449  22339047.4234   22339053.5884
  24553119.247    -4041348.587 9  -3137025.951 9  24553121.830    24553131.458
  21632175.451    -6048909.60549  -4703814.26149  21632177.2054   21632183.9284
  24452334.814    -6952753.462 9  -5404072.791 9  24452335.976    24452342.029
  24387723.510    -8692961.92649  -6753204.13549  24387726.0984   24387733.5434
  22092086.005   -20150224.51249 -15688843.86449  22092087.7204   22092093.5534
 96  2 21 19 57 30.0020000  0  9 19 29  2 31 12 18 28 16 27
  21040339.054   -17891888.74649 -13933501.17749  21040341.2414   21040346.9744
  24250827.532    17346853.41149  13519279.45249  24250828.4654   24250836.6754
  23379176.541   -13192435.59549 -10265787.58649  23379178.4484   23379185.6054
  22341052.650   -17499296.67249 -13615343.64049  22341053.9604   22341059.7064
  24540737.027    -4106421.936 9  -3187732.403 9  24540738.576    24540749.228
  21646164.192    -5975393.07749  -4646528.67549  21646166.8284   21646173.1374
  24464976.892    -6886311.996 9  -5352300.240 9  24464979.337    24464985.608
  24385162.914    -8706440.18149  -6763706.67649  24385160.7824   24385169.7994
  22082056.054   -20202927.77949 -15729911.31949  22082058.5754   22082064.4134
 96  2 21 19 58  0.0020000  0  9 19 29  2 31 12 18 28 16 27
  21040271.272   -17892242.55749 -13933776.86749  21040273.8714   21040279.8374
  24271416.742    17455047.15549  13603586.19249  24271417.4344   24271425.7404
  23366895.350   -13256974.15049 -10316077.33649  23366896.8644   23366904.0164
  22343173.093   -17488151.03949 -13606658.72649  22343174.6894   22343180.9584
  24528384.895    -4171330.580 9  -3238310.515 9  24528387.216    24528397.385
  21660239.522    -5901433.29149  -4588897.69949  21660240.8544   21660247.3744
  24477708.272    -6819410.983 9  -5300169.600 9  24477710.147    24477716.967
  24382695.142    -8719383.70349  -6773792.57249  24382698.6014   24382706.5544
  22072057.379   -20255470.10949 -15770853.37949  22072059.6114   22072066.0204
 96  2 21 19 58 30.0020000  0  9 19 29  2 31 12 18 28 16 27
  21040253.405   -17892336.84449 -13933850.32849  21040255.6764   21040262.1724
  24292037.555    17563411.92549  13688026.19249  24292039.8544   24292047.1884
  23354662.452   -13321257.33449 -10366168.09149  23354664.1364   23354671.8734
  22345409.116   -17476400.54049 -13597502.48949  22345411.2974   22345416.9964
  24516062.894    -4236072.411 9  -3288758.651 9  24516066.821    24516076.489
  21674396.460    -5827033.40549  -4530923.78349  21674398.5854   21674405.4264
  24490526.785    -6752049.845 9  -5247680.412 9  24490528.332    24490534.342
  24380339.994    -8731791.12749  -6783460.69249  24380337.1224   24380344.2734
  22062091.199   -20307847.12949 -15811666.61949  22062092.9424   22062099.0554
 96  2 21 19 59  0.0020000  0  9 19 29  2 31 12 18 28 16 27
  21040283.413   -17892182.87449 -13933730.34949  21040285.2004   21040291.4214
  24312689.641    17671942.87649  13772595.69349  24312691.8464   24312700.5064
  23342476.082   -13385303.41849 -10416074.08549  23342476.6994   23342483.7994
  22347763.478   -17464030.41449 -13587863.42349  22347765.4834   22347770.7244
  24503775.744    -4300651.485 9  -3339079.971 9  24503777.584    24503787.595
  21688634.107    -5752214.71249  -4472623.52649  21688636.3974   21688642.7874
  24503431.618    -6684234.721 9  -5194837.458 9  24503433.761    24503439.321
  24378071.362    -8743665.14449  -6792713.21949  24378076.7994   24378086.2844
  22052156.738   -20360053.28649 -15852346.72349  22052158.3574   22052164.6304
 96  2 21 19 59 30.0020000  0  9 19 29  2 31 12 18 28 16 27
  21040357.570   -17891789.39649 -13933423.73949  21040360.0544   21040366.1034
  24333375.625    17780652.22949  13857304.18449  24333378.2714   24333386.2954
  23330330.875   -13449117.53849 -10465799.33149  23330333.0194   23330340.6984
  22350237.220   -17451026.30849 -13577730.33949  22350239.7764   22350245.2534
  24491515.584    -4365068.690 9  -3389275.166 9  24491519.142    24491529.962
  21702949.656    -5676986.63949  -4414004.27149  21702951.8114   21702958.2444
  24516421.556    -6615968.231 9  -5141642.815 9  24516424.060    24516429.809
  24375917.998    -8755018.50149  -6801559.99149  24375917.8624   24375925.1624
  22042255.299   -20412083.80849 -15892889.97049  22042257.0204   22042263.4914
 96  2 21 20  0  0.0020000  0  9 19 29  2 31 12 18 28 16 27
  21040477.606   -17891159.77649 -13932933.12049  21040480.1554   21040485.9664
  24354096.429    17889536.76349  13942149.21249  24354099.3954   24354105.4294
  23318234.067   -13512691.71649 -10515337.60749  23318235.3474   23318242.8784
  22352832.543   -17437391.82649 -13567106.05849  22352834.2624   22352839.6104
  24479288.806    -4429326.677 9  -3439346.294 9  24479291.193    24479301.424
  21717344.955    -5601344.02749  -4355061.99749  21717346.2204   21717352.7964
  24529498.358    -6547254.380 9  -5088099.565 9  24529499.221    24529505.731
  24373851.588    -8765857.27749  -6810005.81649  24373854.2114   24373863.1334
  22032386.183   -20463947.96649 -15933303.58049  22032387.6164   22032394.0874
 96  2 21 20  0 30.0020000  0  9 19 29  2 31 12 18 28 16 27
  21040643.908   -17890286.15549 -13932252.37449  21040646.2924   21040652.3354
  24374854.311    17998609.53949  14027140.88949  24374854.8464   24374861.6834
  23306181.861   -13576022.88749 -10564686.51949  23306183.7744   23306191.4784
  22355546.456   -17423130.78249 -13555993.54249  22355547.8184   22355553.8364
  24467092.564    -4493420.050 9  -3489289.149 9  24467094.268    24467104.671
  21731817.775    -5525286.97449  -4295796.78049  21731819.3654   21731825.8824
  24542659.398    -6478089.466 9  -5034204.838 9  24542661.274    24542667.334
  24371890.346    -8776171.78149  -6818043.10549  24371892.6644   24371899.8244
  22022547.155   -20515651.46649 -15973592.00349  22022548.8554   22022555.1534
 96  2 21 20  1  0.0020000  0  9 19 29  2 31 12 18 28 16 27
  21040857.514   -17889165.19649 -13931378.89349  21040859.5944   21040865.5444
  24395641.803    18107858.74649  14112270.06649  24395643.8864   24395651.7544
  23294177.190   -13639107.34449 -10613843.18849  23294179.2884   23294186.5544
  22358377.932   -17408251.65849 -13544399.41049  22358379.2444   22358384.8494
  24454927.202    -4557355.134 9  -3539108.708 9  24454928.497    24454938.125
  21746369.044    -5448819.51649  -4236211.77049  21746370.8834   21746377.2294
  24555905.251    -6408482.081 9  -4979965.336 9  24555907.902    24555913.275
  24370026.691    -8785956.83949  -6825667.84649  24370028.8274   24370037.4624
  22012732.897   -20567224.91349 -16013779.08849  22012734.6934   22012741.1054
 96  2 21 20  1 30.0020000  0  9 19 29  2 31 12 18 28 16 27
  21041122.180   -17887777.73749 -13930297.75549  21041123.5294   21041129.5594
  24416462.475    18217269.35849  14197524.99749  24416464.6534   24416471.8244
  23282223.735   -13701923.94949 -10662791.14549  23282225.4914   23282233.1914
  22361325.519   -17392758.27749 -13532326.64049  22361327.3224   22361333.5644
  24442789.692    -4621131.463 9  -3588804.533 9  24442791.921    24442801.811
  21760999.230    -5371934.09749  -4176301.07949  21761001.5094   21761008.1174
  24569234.631    -6338433.414 9  -4925381.979 9  24569236.992    24569243.201
  24368268.930    -8795206.23349  -6832875.18449  24368269.7454   24368278.9314
  22002940.799   -20618685.46249 -16053878.20449  22002942.2524   22002948.3094
 96  2 21 20  2  0.0020000  0  9 19 29  2 31 12 18 28 16 27
  21041441.019   -17886097.72449 -13928988.65149  21041443.2924   21041449.3724
  24437311.528    18326845.02149  14282908.52749  24437315.2314   24437323.8434
  23270323.171   -13764461.68649 -10711521.80049  23270325.2044   23270332.9314
  22364394.598   -17376633.34549 -13519761.75149  22364396.1334   22364401.6634
  24430685.203    -4684734.227 9  -3638365.092 9  24430688.819    24430698.535
  21775714.152    -5294607.48849  -4116046.60549  21775716.3164   21775722.6764
  24582650.590    -6267930.262 9  -4870444.494 9  24582653.267    24582659.755
  24366618.695    -8803890.41349  -6839642.10649  24366616.8184   24366624.6214
  21993170.591   -20670025.05449 -16093883.06849  21993172.7164   21993178.6184
 96  2 21 20  2 30.0020000  0  9 19 29  2 31 12 18 28 16 27
  21041812.675   -17884144.95649 -13927467.01349  21041814.8614   21041820.8294
  24458196.158    18436574.08949  14368411.60949  24458196.2964   24458204.5924
  23258473.052   -13826734.12449 -10760045.73749  23258475.0574   23258482.4024
  22367583.283   -17359877.18749 -13506704.99549  22367584.8004   22367590.6684
  24418616.105    -4748171.271 9  -3687796.534 9  24418617.179    24418627.569
  21790511.765    -5216850.15049  -4055456.49849  21790512.7314   21790519.1434
  24596154.049    -6196982.164 9  -4815160.283 9  24596154.862    24596160.246
  24365066.888    -8812014.04849  -6845972.25549  24365071.2374   24365079.1124
  21983423.728   -20721245.64749 -16133795.20549  21983425.5934   21983431.8094
 96  2 21 20  3  0.0020000  0  9 19 29  2 31 12 18 28 16 27
  21042230.702   -17881951.77249 -13925758.03349  21042232.2594   21042238.3284
  24479103.031    18546454.37749  14454032.52549  24479105.3194   24479113.8014
  23246673.184   -13888745.87149 -10808366.52749  23246674.3384   23246682.2904
  22370890.821   -17342494.22349 -13493159.81849  22370892.8524   22370898.4134
  24406572.244    -4811449.010 9  -3737103.851 9  24406575.489    24406585.890
  21805389.416    -5138663.91249  -3994532.17849  21805391.5554   21805397.6084
  24609737.874    -6125597.480 9  -4759535.858 9  24609737.990    24609745.225
  24363626.872    -8819595.85849  -6851880.16049  24363628.7994   24363637.2074
  21973701.586   -20772338.54249 -16173607.83749  21973702.9484   21973708.9564
 96  2 21 20  3 30.0020000  0  9 19 29  2 31 12 18 28 16 27
  21042689.764   -17879535.00649 -13923874.84049  21042692.1414   21042698.0344
  24500047.799    18656515.65749  14539794.45149  24500050.3704   24500057.4054
  23234919.258   -13950510.53749 -10856494.79549  23234921.2944   23234928.6324
  22374319.767   -17324475.37449 -13479119.14949  22374321.2274   22374326.8014
  24394565.188    -4874563.269 9  -3786283.827 9  24394566.093    24394574.888
  21820352.254    -5060035.41349  -3933263.24549  21820353.8134   21820360.1954
  24623404.089    -6053773.936 9  -4703569.487 9  24623406.085    24623412.226
  24362284.164    -8826651.24249  -6857377.89249  24362285.4764   24362294.2034
  21964007.431   -20823277.50749 -16213300.52049  21964009.5444   21964015.7464
 96  2 21 20  4  0.0020000  0  9 19 29  2 31 12 18 28 16 27
  21043190.710   -17876906.27249 -13921826.47149  21043192.5314   21043198.6474
  24521031.882    18766786.83949  14625719.92849  24521035.3604   24521043.1804
  23223211.790   -14012037.90949 -10904438.15849  23223212.6224   23223219.7654
  22377869.243   -17305825.88149 -13464587.07649  22377870.0644   22377876.0874
  24382585.688    -4937508.562 9  -3835332.098 9  24382587.575    24382598.002
  21835399.705    -4980959.59649  -3871645.74849  21835401.3934   21835407.7744
  24637155.444    -5981507.682 9  -4647258.153 9  24637158.270    24637164.556
  24361045.772    -8833177.84749  -6862463.56549  24361044.4814   24361052.0784
  21954347.538   -20874046.77749 -16252860.97249  21954348.3414   21954354.5764
 96  2 21 20  4 30.0020000  0  9 19 29  2 31 12 18 28 16 27
  21043727.124   -17874083.69449 -13919627.05549  21043729.4124   21043735.3804
  24542053.533    18877261.25149  14711803.81549  24542056.0874   24542064.8494
  23211548.504   -14073323.74749 -10952193.32049  23211550.1744   23211557.5594
  22381534.393   -17286560.49749 -13449575.08649  22381536.4854   22381542.3674
  24370639.985    -5000291.402 9  -3884253.792 9  24370640.687    24370649.590
  21850529.299    -4901454.87149  -3809694.03849  21850530.7664   21850537.4004
  24650990.975    -5908807.235 9  -4590608.501 9  24650992.752    24650998.864
  24359897.966    -8839189.41749  -6867147.92749  24359899.8024   24359908.0744
  21944718.105   -20924645.59549 -16292288.60049  21944719.9524   21944726.1624
 96  2 21 20  5  0.0020000  0  9 19 29  2 31 12 18 28 16 27
  21044305.589   -17871047.65449 -13917261.30649  21044307.2774   21044313.1844
  24563113.868    18987935.67249  14798043.49249  24563118.5104   24563124.9334
  23199933.211   -14134364.60449 -10999757.58649  23199934.9664   23199941.8944
  22385315.471   -17266692.02649 -13434093.15649  22385317.1774   22385322.9774
  24358721.061    -5062910.632 9  -3933047.993 9  24358724.864    24358734.407
  21865739.997    -4821522.47149  -3747409.07349  21865741.4314   21865748.1344
  24664907.458    -5835673.348 9  -4533621.065 9  24664909.320    24664916.024
  24358853.735    -8844676.90549  -6871423.90949  24358856.2454   24358862.5854
  21935121.690   -20975072.23449 -16331582.06749  21935123.9094   21935130.1724
 96  2 21 20  5 30.0020000  0  9 19 29  2 31 12 18 28 16 27
  21044932.550   -17867750.65949 -13914692.21749  21044934.8204   21044940.8484
  24584212.165    19098800.90849  14884431.91049  24584214.3474   24584223.3114
  23188366.351   -14195147.08349 -11047120.52549  23188368.1814   23188375.4764
  22389212.029   -17246218.85649 -13418140.04849  22389212.9894   22389218.6034
  24346839.896    -5125356.555 9  -3981707.133 9  24346840.826    24346852.253
  21881033.561    -4741152.81749  -3684783.39949  21881035.4544   21881041.7224
  24678908.476    -5762098.053 9  -4476289.711 9  24678910.385    24678915.977
  24357916.404    -8849618.26849  -6875274.32949  24357916.4074   24357923.8824
  21925559.395   -21025327.19649 -16370741.75749  21925560.8064   21925567.0694
 96  2 21 20  6  0.0020000  0  9 19 29  2 31 12 18 28 16 27
  21045611.058   -17864182.34749 -13911911.71149  21045613.8454   21045619.5314
  24605337.807    19209818.57049  14970939.05449  24605340.1664   24605349.0984
  23176850.915   -14255660.69749 -11094273.95949  23176852.6584   23176860.1564
  22393219.097   -17225153.74549 -13401725.67449  22393221.7794   22393227.4124
  24334988.757    -5187632.463 9  -4030233.793 9  24334990.348    24335001.021
  21896407.514    -4660359.97749  -3621827.96249  21896409.7974   21896416.2864
  24692994.410    -5688086.728 9  -4418618.565 9  24692994.422    24693000.967
  24357076.087    -8854012.16449  -6878698.15549  24357079.0664   24357088.7004
  21916027.568   -21075417.20549 -16409772.90649  21916028.8124   21916035.1374
 96  2 21 20  6 30.0020000  0  9 19 29  2 31 12 18 28 16 27
  21046341.256   -17860350.55449 -13908925.89649  21046342.9844   21046348.7844
  24626486.753    19320946.72349  15057532.35049  24626487.2184   24626495.9704
  23165383.059   -14315927.27649 -11141234.89749  23165384.4304   23165391.6644
  22397341.515   -17203497.16249 -13384850.42049  22397343.0064   22397348.3264
  24323167.742    -5249752.113 9  -4078638.678 9  24323169.941    24323178.551
  21911859.244    -4579162.34449  -3558557.10749  21911860.9834   21911867.5324
  24707156.781    -5613654.629 9  -4360619.566 9  24707158.537    24707164.423
  24356343.754    -8857876.04849  -6881708.97649  24356345.8024   24356352.0534
  21906524.023   -21125356.44149 -16448686.57449  21906525.7744   21906532.0914
 96  2 21 20  7  0.0020000  0  9 19 29  2 31 12 18 28 16 27
  21047124.054   -17856235.76049 -13905719.56049  21047125.7664   21047131.5684
  24647656.495    19432202.88949  15144225.35149  24647658.5384   24647668.0364
  23153965.506   -14375928.35449 -11187988.95949  23153966.7144   23153973.8014
  22401580.315   -17181221.22949 -13367492.55449  22401581.8524   22401587.0784
  24311380.946    -5311697.147 9  -4126907.492 9  24311381.447    24311391.823
  21927392.611    -4497533.65149  -3494950.36249  21927394.4634   21927400.8894
  24721403.929    -5538785.263 9  -4302279.843 9  24721405.351    24721411.040
  24355710.419    -8861195.67349  -6884295.68649  24355712.3944   24355721.9534
  21897051.496   -21175133.96949 -16487474.23949  21897053.3534   21897059.6934
 96  2 21 20  7 30.0020000  0  9 19 29  2 31 12 18 28 16 27
  21047955.639   -17851865.28249 -13902313.99249  21047957.6324   21047963.4684
  24668851.191    19543572.31749  15231006.61249  24668852.7444   24668859.4034
  23142595.606   -14435673.48249 -11234543.57049  23142597.2634   23142604.6814
  22405939.537   -17158311.63649 -13349640.92049  22405941.5004   22405946.7564
  24299622.199    -5373480.172 9  -4175050.056 9  24299624.722    24299634.892
  21943003.831    -4415494.74149  -3431023.96049  21943006.0174   21943012.5684
  24735730.950    -5463493.450 9  -4243610.934 9  24735732.910    24735739.280
  24355175.124    -8864002.25549  -6886482.64549  24355178.3364   24355185.9404
  21887606.979   -21224760.98849 -16526144.62349  21887609.8144   21887615.8864
 96  2 21 20  8  0.0020000  0  9 19 29  2 31 12 18 28 16 27
  21048830.162   -17847268.16049 -13898731.81849  21048832.2804   21048838.4744
  24690070.677    19655075.92849  15317892.43249  24690071.5444   24690077.6254
  23131274.700   -14495167.55749 -11280902.56049  23131276.2694   23131283.5184
  22410423.571   -17134747.57349 -13331279.32049  22410425.3604   22410430.7504
  24287896.506    -5435096.139 9  -4223062.435 9  24287899.627    24287910.003
  21958693.964    -4333046.49649  -3366778.59749  21958695.6174   21958702.1744
  24750140.052    -5387775.787 9  -4184610.155 9  24750141.242    24750147.296
  24354742.064    -8866294.06849  -6888268.46449  24354742.2284   24354750.1774
  21878195.633   -21274223.23349 -16564686.61649  21878197.3474   21878203.7084
 96  2 21 20  8 30.0020000  0  9 19 29  2 31 12 18 28 16 27
  21049745.787   -17842457.97949 -13894983.62549  21049747.5694   21049753.7004
  24711310.562    19766715.58649  15404884.26449  24711314.6484   24711323.7004
  23119999.513   -14554418.05649 -11327071.75249  23120001.0314   23120008.5164
  22415030.107   -17110542.18149 -13312417.97549  22415031.5054   22415037.1364
  24276201.936    -5496559.778 9  -4270956.127 9  24276203.119    24276213.460
  21974456.237    -4250209.34749  -3302230.19449  21974458.9174   21974465.5324
  24764625.982    -5311649.185 9  -4125290.784 9  24764627.785    24764634.538
  24354401.869    -8868077.22849  -6889657.94049  24354402.1554   24354410.8074
  21868812.098   -21323533.23949 -16603109.97349  21868814.2154   21868820.2744
 96  2 21 20  9  0.0020000  0  9 19 29  2 31 12 18 28 16 27
  21050704.846   -17837416.67249 -13891055.33249  21050706.9484   21050712.9954
  24732587.694    19878526.63949  15492009.64449  24732590.8284   24732598.0514
  23108777.570   -14613389.02349 -11373023.12449  23108779.0064   23108786.4544
  22419758.766   -17085694.07149 -13293055.81249  22419759.7094   22419765.1374
  24264536.989    -5557859.598 9  -4318722.163 9  24264538.207    24264548.310
  21990297.574    -4166967.88049  -3237366.73549  21990298.9704   21990305.6284
  24779193.329    -5235103.844 9  -4065645.111 9  24779194.628    24779199.920
  24354157.804    -8869331.09949  -6890634.98649  24354164.1374   24354172.7404
  21859461.086   -21372670.30249 -16641398.57849  21859463.5294   21859469.8664
 96  2 21 20  9 30.0020000  0  9 19 29  2 31 12 18 28 16 27
  21051710.591   -17832134.19149 -13886939.11349  21051712.1074   21051718.1304
  24753898.637    19990509.21449  15579268.73149  24753901.5814   24753908.9504
  23097606.825   -14672093.14349 -11418766.56049  23097608.1094   23097615.3854
  22424605.417   -17060220.91349 -13273206.59149  22424607.1484   22424612.7144
  24252902.759    -5618996.887 9  -4366361.514 9  24252904.898    24252914.783
  22006212.772    -4083332.83149  -3172196.59249  22006214.5354   22006221.2344
  24793836.471    -5158142.958 9  -4005675.633 9  24793839.212    24793845.004
  24354027.261    -8870058.06949  -6891201.44349  24354026.4324   24354034.1884
  21850145.528   -21421626.61649 -16679546.33649  21850147.2434   21850153.6534
 96  2 21 20 10  0.0020000  0  9 19 29  2 31 12 18 28 16 27
  21052763.221   -17826599.30849 -13882626.21949  21052765.5524   21052771.2484
  24775238.697    20102653.43349  15666653.70549  24775242.7714   24775250.3054
  23086486.421   -14730529.57549 -11464301.42049  23086488.0694   23086495.4214
  22429565.463   -17034157.96849 -13252897.79949  22429566.7054   22429572.3784
  24241298.169    -5679981.832 9  -4413882.168 9  24241299.245    24241308.955
  22022202.177    -3999308.00449  -3106722.72649  22022203.9034   22022210.3874
  24808559.445    -5080778.805 9  -3945391.909 9  24808561.577    24808567.171
  24353986.821    -8870258.70549  -6891357.78549  24353987.3244   24353994.2004
  21840860.572   -21470417.45149 -16717565.14949  21840862.7094   21840869.0764
 96  2 21 20 10 30.0020000  0  9 19 29  2 31 12 18 28 16 27
  21053872.403   -17820772.37449 -13878085.75749  21053874.1444   21053880.0294
  24796610.622    20214952.18049  15754159.14049  24796613.8124   24796619.9254
  23075423.264   -14788668.26549 -11509604.26649  23075424.6974   23075431.9504
  22434637.183   -17007503.91849 -13232128.40949  22434638.7524   22434644.3444
  24229723.018    -5740805.128 9  -4461276.856 9  24229724.556    24229734.989
  22038267.482    -3914886.54949  -3040939.80049  22038268.8804   22038275.1374
  24823358.988    -5003003.623 9  -3884787.933 9  24823361.107    24823367.426
  24354046.303    -8869921.69449  -6891095.17749  24354051.8894   24354060.4534
  21831610.173   -21519031.35949 -16755446.09649  21831611.8174   21831617.9904
 96  2 21 20 11  0.0020000  0  9 19 29  2 31 12 18 28 16 27
  21055035.551   -17814659.67049 -13873322.61649  21055037.6464   21055043.3704
  24818007.063    20327396.02849  15841777.60249  24818008.6564   24818018.6584
  23064413.670   -14846520.37249 -11554683.79749  23064415.8074   23064423.3074
  22439821.043   -16980258.92949 -13210898.54349  22439823.2294   22439828.9164
  24218178.557    -5801470.793 9  -4508548.697 9  24218180.463    24218190.018
  22054404.786    -3830077.60349  -2974854.93349  22054407.4064   22054413.6614
  24838237.360    -4924823.444 9  -3823868.351 9  24838238.875    24838244.658
  24354214.687    -8869062.66449  -6890425.78549  24354216.0964   24354224.1774
  21822390.726   -21567478.38949 -16793197.01249  21822392.7774   21822398.8034
 96  2 21 20 11 30.0020000  0  9 19 29  2 31 12 18 28 16 27
  21056249.771   -17808280.46749 -13868351.81649  21056251.4994   21056257.1154
  24839425.886    20439955.36449  15929486.12349  24839429.7354   24839435.8284
  23053457.606   -14904095.56549 -11599547.55449  23053459.4604   23053466.6594
  22445119.106   -16952418.96149 -13189205.06149  22445121.1564   22445126.7214
  24206663.206    -5861984.627 9  -4555702.238 9  24206665.326    24206674.887
  22070614.561    -3744897.47049  -2908480.82849  22070616.5314   22070622.9614
  24853189.185    -4846246.342 9  -3762639.491 9  24853191.526    24853198.049
  24354475.916    -8867687.62049  -6889354.32649  24354477.1284   24354484.1504
  21813200.722   -21615772.44749 -16830828.73449  21813202.7234   21813208.6374
 96  2 21 20 12  0.0020000  0  9 19 29  2 31 12 18 28 16 27
  21057512.883   -17801642.40449 -13863179.30249  21057514.8114   21057520.4994
  24860868.806    20552633.37349  16017287.02549  24860871.6384   24860877.9934
  23042557.220   -14961378.39949 -11644183.49849  23042558.8124   23042566.0144
  22450533.596   -16923968.72449 -13167036.03949  22450535.1854   22450540.5964
  24195177.357    -5922342.511 9  -4602734.254 9  24195179.201    24195189.443
  22086894.736    -3659347.31749  -2841818.39749  22086896.0294   22086902.3554
  24868218.071    -4767270.004 9  -3701099.539 9  24868219.913    24868225.638
  24354839.164    -8865768.31849  -6887858.77449  24354842.4864   24354849.5104
  21804040.362   -21663908.47049 -16868337.30649  21804042.4924   21804048.4974
 96  2 21 20 12 30.0020000  0  9 19 29  2 31 12 18 28 16 27
  21058821.810   -17794764.12249 -13857819.60249  21058823.5344   21058829.4294
  24882331.047    20665435.01349  16105184.34949  24882333.8674   24882343.2134
  23031709.930   -15018383.55649 -11688603.06649  23031711.3624   23031718.4864
  22456063.948   -16894908.10749 -13144391.39649  22456065.3344   22456071.0734
  24183719.931    -5982546.028 9  -4649645.970 9  24183723.106    24183732.740
  22103241.734    -3573437.45449  -2774875.66849  22103243.9594   22103250.4444
  24883322.503    -4687898.020 9  -3639251.258 9  24883324.453    24883330.241
  24355309.808    -8863303.63549  -6885938.24149  24355312.4784   24355319.9394
  21794911.049   -21711884.14849 -16905720.92749  21794912.9264   21794919.3104
 96  2 21 20 13  0.0020000  0  9 19 29  2 31 12 18 28 16 27
  21060173.021   -17787660.70449 -13852284.47549  21060175.2324   21060181.1174
  24903827.510    20778373.34849  16193188.13049  24903828.5904   24903835.8944
  23020911.312   -15075128.09449 -11732819.55749  23020913.1894   23020919.7374
  22461708.639   -16865240.11549 -13121273.47949  22461710.8614   22461716.9864
  24172293.844    -6042590.141 9  -4696433.484 9  24172296.354    24172306.338
  22119661.100    -3487159.24249  -2707645.92249  22119662.5544   22119668.5924
  24898503.216    -4608127.101 9  -3577092.186 9  24898504.078    24898510.560
  24355885.491    -8860290.91949  -6883590.67249  24355884.4154   24355894.1454
  21785810.536   -21759706.62449 -16942985.18349  21785812.6754   21785818.7674
 96  2 21 20 13 30.0020000  0  9 19 29  2 31 12 18 28 16 27
  21061567.140   -17780333.48449 -13846574.95349  21061569.7004   21061575.4984
  24925341.124    20891437.41549  16281289.83949  24925344.2124   24925350.3694
  23010158.497   -15131635.64649 -11776851.38549  23010160.2584   23010167.2144
  22467468.491   -16834974.66549 -13097690.00949  22467470.3484   22467475.5644
  24160896.683    -6102487.416 9  -4743106.560 9  24160898.273    24160907.758
  22136148.373    -3400517.61849  -2640132.98949  22136149.9754   22136156.6904
  24913756.307    -4527971.963 9  -3514633.664 9  24913757.246    24913763.370
  24356558.128    -8856736.99049  -6880821.37849  24356560.5654   24356569.2454
  21776738.863   -21807380.55049 -16980133.67649  21776740.5784   21776746.6564
 96  2 21 20 14  0.0020000  0  9 19 29  2 31 12 18 28 16 27
  21063010.120   -17772754.87549 -13840669.54149  21063011.6284   21063017.7544
  24946884.386    21004645.79549  16369504.11649  24946886.4854   24946893.0934
  22999449.486   -15187912.19249 -11820703.20549  22999450.8834   22999458.0684
  22473340.212   -16804118.28849 -13073646.07849  22473341.6784   22473347.6704
  24149527.609    -6162231.332 9  -4789660.158 9  24149529.390    24149538.981
  22152707.336    -3313495.37049  -2572323.47049  22152709.6094   22152715.9914
  24929082.812    -4447428.037 9  -3451872.219 9  24929084.261    24929090.455
  24357334.950    -8852654.66849  -6877640.36449  24357337.3334   24357345.3104
  21767695.434   -21854902.09349 -17017163.43549  21767697.5304   21767703.8134
 96  2 21 20 14 30.0020000  0  9 19 29  2 31 12 18 28 16 27
  21064500.535   -17764920.08449 -13834564.50549  21064502.6794   21064508.6614
  24968452.522    21117990.97049  16457824.87549  24968454.5114   24968463.6634
  22988780.797   -15243971.96549 -11864386.10549  22988782.8584   22988790.4424
  22479325.003   -16772672.55849 -13049142.91149  22479326.1584   22479331.7394
  24138187.495    -6221823.644 9  -4836095.652 9  24138189.289    24138199.050
  22169342.170    -3226079.35449  -2504207.11949  22169344.5094   22169350.7954
  24944483.167    -4366498.874 9  -3388810.613 9  24944484.757    24944490.617
  24358210.027    -8848072.22149  -6874069.62449  24358210.1144   24358216.8634
  21758681.827   -21902270.81849 -17054074.11349  21758683.6364   21758689.9934
 96  2 21 20 15  0.0020000  0  9 19 29  2 31 12 18 28 16 27
  21066043.770   -17756811.47549 -13828246.10249  21066045.6764   21066051.6884
  24990048.809    21231466.20149  16546247.05749  24990048.8524   24990056.8044
  22978155.647   -15299810.85949 -11907896.89349  22978157.2174   22978164.2664
  22485424.645   -16740613.81649 -13024162.07549  22485426.5744   22485432.2764
  24126879.720    -6281256.721 9  -4882407.066 9  24126880.213    24126889.175
  22186053.916    -3138261.34349  -2435777.52449  22186055.6344   22186062.1634
  24959957.984    -4285179.120 9  -3325444.611 9  24959959.532    24959964.822
  24359178.576    -8842978.46249  -6870100.47149  24359179.3354   24359187.3694
  21749700.814   -21949468.17849 -17090851.26449  21749702.2764   21749708.3984
 96  2 21 20 15 30.0020000  0  9 19 29  2 31 12 18 28 16 27
  21067638.566   -17748426.91649 -13821712.67249  21067640.9724   21067646.9714
  25011660.974    21345050.21249  16634753.91749  25011663.1004   25011673.1334
  22967573.631   -15355418.41049 -11951227.41449  22967575.4234   22967582.7564
  22491642.836   -16707937.91049 -12998700.32549  22491644.4864   22491650.2944
  24115595.848    -6340539.638 9  -4928601.465 9  24115598.344    24115608.197
  22202838.909    -3050059.14749  -2367048.56249  22202839.9954   22202846.3964
  24975505.345    -4203479.975 9  -3261783.002 9  24975506.479    24975512.473
  24360239.443    -8837377.29249  -6865735.94549  24360244.3204   24360255.1274
  21740752.565   -21996486.98149 -17127489.28249  21740754.9194   21740761.1504
 96  2 21 20 16  0.0020000  0  9 19 29  2 31 12 18 28 16 27
  21069286.639   -17739770.82149 -13814967.65649  21069288.3564   21069294.1114
  25033296.668    21458744.54849  16723346.79849  25033298.5684   25033308.3114
  22957041.198   -15410767.87349 -11994356.83049  22957042.5544   22957049.6044
  22497978.238   -16674644.02949 -12972757.03749  22497980.3344   22497985.7654
  24104346.077    -6399661.596 9  -4974670.443 9  24104347.827    24104357.886
  22219697.567    -2961461.17649  -2298011.20849  22219699.6124   22219706.2064
  24991125.742    -4121392.280 9  -3197818.603 9  24991126.881    24991132.716
  24361408.514    -8831251.27449  -6860962.45649  24361411.2624   24361419.2964
  21731843.113   -22043308.89149 -17163973.87249  21731844.9944   21731851.1934
 96  2 21 20 16 30.0020000  0  9 19 29  2 31 12 18 28 16 27
  21070981.961   -17730859.47049 -13808023.73949  21070984.1374   21070990.1434
  25054951.766    21572544.89649  16812022.26949  25054954.1864   25054962.9354
  22946561.350   -15465841.19849 -12037271.06849  22946562.6754   22946569.7144
  22504432.803   -16640728.06749 -12946329.00249  22504434.0734   22504439.7904
  24093125.779    -6458623.004 9  -5020614.310 9  24093128.187    24093137.421
  22236631.615    -2872475.88649  -2228672.05049  22236633.1654   22236639.3914
  25006820.617    -4038918.549 9  -3133553.396 9  25006821.402    25006827.066
  24362679.314    -8824578.13849  -6855762.62049  24362680.3614   24362688.7754
  21722972.260   -22089924.89649 -17200298.01649  21722974.3644   21722980.3644
